[[{"header":{"parameterUnit":"m.s-1","parameterCategory":1,"la1":30.6,"la2":28.766,"lo1":-90.7593,"lo2":-88.6598,"dy":0.0162,"dx":0.0183,"nx":116,"ny":114,"refTime":"2023-03-05T18:00:00:Z","depth":0,"parameterNumber":2,"parameterNumberName":"U-component_of_WINDS"},"data":[0.0,0.0,0.0,0.0,0.0,0.0,0.0,0.0,0.0,0.0,0.0,0.0,0.0,0.0,0.0,0.0,0.0,0.0,0.0,0.0,0.0,0.0,0.0,0.0,0.0,0.0,0.0,0.0,0.0,0.0,0.0,0.0,0.0,0.0,0.0,0.0,0.0,0.0,0.0,0.0,0.0,0.0,0.0,0.0,0.0,0.0,0.0,0.0,0.0,0.0,0.0,0.0,0.0,0.0,0.0,0.0,0.0,0.0,0.0,0.0,0.0,0.0,0.0,0.0,0.0,0.0,0.0,0.0,0.0,0.0,0.0,0.0,0.0,0.0,0.0,0.0,0.0,0.0,0.0,0.0,0.0,0.0,0.0,0.0,0.0,0.0,0.0,0.0,0.0,0.0,0.0,0.0,0.0,0.0,0.0,0.0,0.0,0.0,0.0,0.0,0.0,0.0,0.0,0.0,0.0,0.0,0.0,0.0,0.0,0.0,0.0,0.0,0.0,0.0,0.0,0.0,0.0,0.0,0.0,0.0,0.0,0.0,0.0,0.0,0.0,0.0,0.0,0.0,0.0,0.0,0.0,0.0,0.0,0.0,0.0,0.0,0.0,0.0,0.0,0.0,0.0,0.0,0.0,0.0,0.0,0.0,0.0,0.0,0.0,0.0,0.0,0.0,0.0,0.0,0.0,0.0,0.0,0.0,0.0,0.0,0.0,0.0,0.0,0.0,0.0,0.0,0.0,0.0,0.0,0.0,0.0,0.0,0.0,0.0,0.0,0.0,0.0,0.0,0.0,0.0,0.0,0.0,0.0,0.0,0.0,0.0,0.0,0.0,0.0,0.0,0.0,0.0,0.0,0.0,0.0,0.0,0.0,0.0,0.0,0.0,0.0,0.0,0.0,0.0,0.0,0.0,0.0,0.0,0.0,0.0,0.0,0.0,0.0,0.0,0.0,0.0,0.0,0.0,0.0,0.0,0.0,0.0,0.0,0.0,0.0,0.0,0.0,0.0,0.0,0.0,0.0,0.0,0.0,0.0,0.0,0.0,0.0,0.0,0.0,0.0,0.0,0.0,0.0,0.0,0.0,0.0,0.0,0.0,0.0,0.0,0.0,0.0,0.0,0.0,0.0,0.0,0.0,0.0,0.0,0.0,0.0,0.0,0.0,0.0,0.0,0.0,0.0,0.0,0.0,0.0,0.0,0.0,0.0,0.0,0.0,0.0,0.0,0.0,0.0,0.0,0.0,0.0,0.0,0.0,0.0,0.0,0.0,0.0,0.0,0.0,0.0,0.0,0.0,0.0,0.0,0.0,0.0,0.0,0.0,0.0,0.0,0.0,0.0,0.0,0.0,0.0,0.0,0.0,0.0,0.0,0.0,0.0,0.0,0.0,0.0,0.0,0.0,0.0,0.0,0.0,0.0,0.0,0.0,0.0,0.0,0.0,0.0,0.0,0.0,0.0,0.0,0.0,0.0,0.0,0.0,0.0,0.0,0.0,0.0,0.0,0.0,0.0,0.0,0.0,0.0,0.0,0.0,0.0,0.0,0.0,0.0,0.0,0.0,0.0,0.0,0.0,0.0,0.0,0.0,0.0,0.0,0.0,0.0,0.0,0.0,0.0,0.0,0.0,0.0,0.0,0.0,0.0,0.0,0.0,0.0,0.0,0.0,0.0,0.0,0.0,0.0,0.0,0.0,0.0,0.0,0.0,0.0,0.0,0.0,0.0,0.0,0.0,0.0,0.0,0.0,0.0,0.0,0.0,0.0,0.0,0.0,0.0,0.0,0.0,0.0,0.0,0.0,0.0,0.0,0.0,0.0,0.0,0.0,0.0,0.0,0.0,0.0,0.0,0.0,0.0,0.0,0.0,0.0,0.0,0.0,0.0,0.0,0.0,0.0,0.0,0.0,0.0,0.0,0.0,0.0,0.0,0.0,0.0,0.0,0.0,0.0,0.0,0.0,0.0,0.0,0.0,0.0,0.0,0.0,0.0,0.0,0.0,0.0,0.0,0.0,0.0,0.0,0.0,0.0,0.0,0.0,0.0,0.0,0.0,0.0,0.0,0.0,0.0,0.0,0.0,0.0,0.0,0.0,0.0,0.0,0.0,0.0,0.0,0.0,0.0,0.0,0.0,0.0,0.0,0.0,0.0,0.0,0.0,0.0,0.0,0.0,0.0,0.0,0.0,0.0,0.0,0.0,0.0,0.0,0.0,0.0,0.0,0.0,0.0,0.0,0.0,0.0,0.0,0.0,0.0,0.0,0.0,0.0,0.0,0.0,0.0,0.0,0.0,0.0,0.0,0.0,0.0,0.0,0.0,0.0,0.0,0.0,0.0,0.0,0.0,0.0,0.0,0.0,0.0,0.0,0.0,0.0,0.0,0.0,0.0,0.0,0.0,0.0,0.0,0.0,0.0,0.0,0.0,0.0,0.0,0.0,0.0,0.0,0.0,0.0,0.0,0.0,0.0,0.0,0.0,0.0,0.0,0.0,0.0,0.0,0.0,0.0,0.0,0.0,0.0,0.0,0.0,0.0,0.0,0.0,0.0,0.0,0.0,0.0,0.0,0.0,0.0,0.0,0.0,0.0,0.0,0.0,0.0,0.0,0.0,0.0,0.0,0.0,0.0,0.0,0.0,0.0,0.0,0.0,0.0,0.0,0.0,0.0,0.0,0.0,0.0,0.0,0.0,0.0,0.0,0.0,0.0,0.0,0.0,0.0,0.0,0.0,0.0,0.0,0.0,0.0,0.0,0.0,0.0,0.0,0.0,0.0,0.0,0.0,0.0,0.0,0.0,0.0,0.0,0.0,0.0,0.0,0.0,0.0,0.0,0.0,0.0,0.0,0.0,0.0,0.0,0.0,0.0,0.0,0.0,0.0,0.0,0.0,0.0,0.0,0.0,0.0,0.0,0.0,0.0,0.0,0.0,0.0,0.0,0.0,0.0,0.0,0.0,0.0,0.0,0.0,0.0,0.0,0.0,0.0,0.0,0.0,0.0,0.0,0.0,0.0,0.0,0.0,0.0,0.0,0.0,0.0,0.0,0.0,0.0,0.0,0.0,0.0,0.0,0.0,0.0,0.0,0.0,0.0,0.0,0.0,0.0,0.0,0.0,0.0,0.0,0.0,0.0,0.0,0.0,0.0,0.0,0.0,0.0,0.0,0.0,0.0,0.0,0.0,0.0,0.0,0.0,0.0,0.0,0.0,0.0,0.0,0.0,0.0,0.0,0.0,0.0,0.0,0.0,0.0,0.0,0.0,0.0,0.0,0.0,0.0,0.0,0.0,0.0,0.0,0.0,0.0,0.0,0.0,0.0,0.0,0.0,0.0,0.0,0.0,0.0,0.0,0.0,0.0,0.0,0.0,0.0,0.0,0.0,0.0,0.0,0.0,0.0,0.0,0.0,0.0,0.0,0.0,0.0,0.0,0.0,0.0,0.0,0.0,0.0,0.0,0.0,0.0,0.0,0.0,0.0,0.0,0.0,0.0,0.0,0.0,0.0,0.0,0.0,0.0,0.0,0.0,0.0,0.0,0.0,0.0,0.0,0.0,0.0,0.0,0.0,0.0,0.0,0.0,0.0,0.0,0.0,0.0,0.0,0.0,0.0,0.0,0.0,0.0,0.0,0.0,0.0,0.0,0.0,0.0,0.0,0.0,0.0,0.0,0.0,0.0,0.0,0.0,0.0,0.0,0.0,0.0,0.0,0.0,0.0,0.0,0.0,0.0,0.0,0.0,0.0,0.0,0.0,0.0,0.0,0.0,0.0,0.0,0.0,0.0,0.0,0.0,0.0,0.0,0.0,0.0,0.0,0.0,0.0,0.0,0.0,0.0,0.0,0.0,0.0,0.0,0.0,0.0,0.0,0.0,0.0,0.0,0.0,0.0,0.0,0.0,0.0,0.0,0.0,0.0,0.0,0.0,0.0,0.0,0.0,0.0,0.0,0.0,0.0,0.0,0.0,0.0,0.0,0.0,0.0,0.0,0.0,0.0,0.0,0.0,0.0,0.0,0.0,0.0,0.0,0.0,0.0,0.0,0.0,0.0,0.0,0.0,0.0,0.0,0.0,0.0,0.0,0.0,0.0,0.0,0.0,0.0,0.0,0.0,0.0,0.0,0.0,0.0,0.0,0.0,0.0,0.0,0.0,0.0,0.0,0.0,0.0,0.0,0.0,0.0,0.0,0.0,0.0,0.0,0.0,0.0,0.0,0.0,0.0,0.0,0.0,0.0,0.0,0.0,0.0,0.0,0.0,0.0,0.0,0.0,0.0,0.0,0.0,0.0,0.0,0.0,0.0,0.0,0.0,0.0,0.0,0.0,0.0,0.0,0.0,0.0,0.0,0.0,0.0,0.0,0.0,0.0,0.0,0.0,0.0,0.0,0.0,0.0,0.0,0.0,0.0,0.0,0.0,0.0,0.0,0.0,0.0,0.0,0.0,0.0,0.0,0.0,0.0,0.0,0.0,0.0,0.0,0.0,0.0,0.0,0.0,0.0,0.0,0.0,0.0,0.0,0.0,0.0,0.0,0.0,0.0,0.0,0.0,0.0,0.0,0.0,0.0,0.0,0.0,0.0,0.0,0.0,0.0,0.0,0.0,0.0,0.0,0.0,0.0,0.0,0.0,0.0,0.0,0.0,0.0,0.0,0.0,0.0,0.0,0.0,0.0,0.0,0.0,0.0,0.0,0.0,0.0,0.0,0.0,0.0,0.0,0.0,0.0,0.0,0.0,0.0,0.0,0.0,0.0,0.0,0.0,0.0,0.0,0.0,0.0,0.0,0.0,0.0,0.0,0.0,0.0,0.0,0.0,0.0,0.0,0.0,0.0,0.0,0.0,0.0,0.0,0.0,0.0,0.0,0.0,0.0,0.0,0.0,0.0,0.0,0.0,0.0,0.0,0.0,0.0,0.0,0.0,0.0,0.0,0.0,0.0,0.0,0.0,0.0,0.0,0.0,0.0,0.0,0.0,0.0,0.0,0.0,0.0,0.0,0.0,0.0,0.0,0.0,0.0,0.0,0.0,0.0,0.0,0.0,0.0,0.0,0.0,0.0,0.0,0.0,0.0,0.0,0.0,0.0,0.0,0.0,0.0,0.0,0.0,0.0,0.0,0.0,0.0,0.0,0.0,0.0,0.0,0.0,0.0,0.0,0.0,0.0,0.0,0.0,0.0,0.0,0.0,0.0,0.0,0.0,0.0,0.0,0.0,0.0,0.0,0.0,0.0,0.0,0.0,0.0,0.0,0.0,0.0,0.0,0.0,0.0,0.0,0.0,0.0,0.0,0.0,0.0,0.0,0.0,0.0,0.0,0.0,0.0,0.0,0.0,0.0,0.0,0.0,0.0,0.0,0.0,0.0,0.0,0.0,0.0,0.0,0.0,0.0,0.0,0.0,0.0,0.0,0.0,0.0,0.0,0.0,0.0,0.0,0.0,0.0,0.0,0.0,0.0,0.0,0.0,0.0,0.0,0.0,0.0,0.0,0.0,0.0,0.0,0.0,0.0,0.0,0.0,0.0,0.0,0.0,0.0,0.0,0.0,0.0,0.0,0.0,0.0,0.0,0.0,0.0,0.0,0.0,0.0,0.0,0.0,0.0,0.0,0.0,0.0,0.0,0.0,0.0,0.0,0.0,0.0,0.0,0.0,0.0,0.0,0.0,0.0,0.0,0.0,0.0,0.0,0.0,0.0,0.0,0.0,0.0,0.0,0.0,0.0,0.0,0.0,0.0,0.0,0.0,0.0,0.0,0.0,0.0,0.0,0.0,0.0,0.0,0.0,0.0,0.0,0.0,0.0,0.0,0.0,0.0,0.0,0.0,0.0,0.0,0.0,0.0,0.0,0.0,0.0,0.0,0.0,0.0,0.0,0.0,0.0,0.0,0.0,0.0,0.0,0.0,0.0,0.0,0.0,0.0,0.0,0.0,0.0,0.0,0.0,0.0,0.0,0.0,0.0,0.0,0.0,0.0,0.0,0.0,0.0,0.0,0.0,0.0,0.0,0.0,0.0,0.0,0.0,0.0,0.0,0.0,0.0,0.0,0.0,0.0,0.0,0.0,0.0,0.0,0.0,0.0,0.0,0.0,0.0,0.0,0.0,0.0,-5.438,-5.4731,0.0,0.0,0.0,0.0,0.0,0.0,0.0,0.0,0.0,0.0,0.0,0.0,0.0,0.0,0.0,0.0,0.0,0.0,0.0,0.0,0.0,0.0,0.0,0.0,0.0,0.0,0.0,0.0,0.0,0.0,0.0,0.0,0.0,0.0,0.0,0.0,0.0,0.0,-4.6377,-4.644,-4.6483,-4.6769,-4.7555,-4.873,0.0,0.0,0.0,0.0,0.0,0.0,0.0,0.0,0.0,0.0,0.0,0.0,0.0,0.0,0.0,0.0,0.0,0.0,0.0,0.0,0.0,0.0,0.0,0.0,0.0,0.0,0.0,0.0,0.0,0.0,0.0,0.0,0.0,0.0,0.0,0.0,0.0,0.0,0.0,0.0,0.0,0.0,0.0,0.0,0.0,0.0,0.0,0.0,0.0,0.0,0.0,0.0,0.0,0.0,0.0,0.0,0.0,0.0,0.0,0.0,0.0,0.0,0.0,0.0,0.0,0.0,0.0,0.0,0.0,0.0,-5.3107,-5.375,0.0,0.0,0.0,0.0,0.0,0.0,0.0,0.0,0.0,0.0,0.0,0.0,0.0,0.0,0.0,0.0,0.0,0.0,0.0,0.0,0.0,0.0,0.0,0.0,0.0,0.0,0.0,0.0,0.0,0.0,0.0,0.0,0.0,0.0,0.0,0.0,0.0,0.0,-4.4555,-4.4581,-4.4632,-4.4632,-4.5696,-4.7576,-4.7673,0.0,0.0,0.0,0.0,0.0,0.0,0.0,0.0,0.0,0.0,0.0,0.0,0.0,0.0,0.0,0.0,0.0,0.0,0.0,0.0,0.0,0.0,0.0,0.0,0.0,0.0,0.0,0.0,0.0,0.0,0.0,0.0,0.0,0.0,0.0,0.0,0.0,0.0,0.0,0.0,0.0,0.0,0.0,0.0,0.0,0.0,0.0,0.0,0.0,0.0,0.0,0.0,0.0,0.0,0.0,0.0,0.0,0.0,0.0,0.0,0.0,0.0,0.0,-5.1014,-5.0694,-5.0044,-5.0057,-5.0108,-5.0227,-5.179,-5.2591,-5.2789,-5.2924,0.0,0.0,0.0,0.0,0.0,0.0,0.0,0.0,0.0,0.0,0.0,0.0,0.0,0.0,0.0,0.0,0.0,0.0,0.0,0.0,0.0,0.0,0.0,0.0,0.0,0.0,0.0,0.0,0.0,0.0,0.0,0.0,0.0,-4.4008,-4.4008,-4.4008,-4.4008,-4.4013,-4.4013,-4.4013,-4.4256,-4.4676,-4.5195,-4.5542,-4.5739,0.0,0.0,0.0,0.0,0.0,0.0,0.0,0.0,0.0,0.0,0.0,0.0,0.0,0.0,0.0,0.0,0.0,0.0,0.0,0.0,0.0,0.0,0.0,0.0,0.0,0.0,0.0,0.0,0.0,0.0,0.0,0.0,0.0,0.0,0.0,0.0,0.0,0.0,0.0,0.0,0.0,-5.3774,-5.3275,0.0,0.0,0.0,0.0,0.0,0.0,0.0,0.0,0.0,0.0,0.0,0.0,0.0,-4.9796,-4.9796,-4.9796,-4.9804,-4.9818,-4.9877,-4.9892,-4.9848,-4.9898,-4.992,-4.9952,-5.0272,0.0,-5.1917,-5.2637,0.0,0.0,0.0,0.0,0.0,0.0,0.0,0.0,0.0,0.0,0.0,0.0,0.0,0.0,0.0,0.0,0.0,0.0,0.0,0.0,0.0,0.0,0.0,0.0,0.0,0.0,0.0,0.0,0.0,0.0,0.0,0.0,0.0,-4.2218,-4.2218,-4.2218,-4.2218,-4.2218,-4.2218,-4.2218,-4.2242,-4.2312,-4.257,-4.3513,-4.4845,-4.4845,0.0,0.0,0.0,0.0,0.0,0.0,0.0,0.0,0.0,0.0,0.0,0.0,0.0,0.0,0.0,0.0,0.0,0.0,0.0,0.0,0.0,0.0,0.0,0.0,0.0,0.0,0.0,0.0,0.0,0.0,0.0,0.0,0.0,0.0,0.0,0.0,0.0,0.0,0.0,-5.3012,-5.2791,-5.2064,-5.2044,-5.2001,0.0,0.0,0.0,0.0,0.0,0.0,0.0,0.0,0.0,-4.9437,-4.934,-4.9292,-4.9292,-4.9292,-4.934,-4.9434,-4.9464,-4.951,-4.9585,-4.9611,-4.9625,-4.9607,-4.9731,-5.0079,-5.0601,-5.1116,-5.1343,-5.1367,0.0,0.0,0.0,0.0,-5.1218,-5.116,0.0,0.0,0.0,0.0,0.0,0.0,0.0,0.0,0.0,0.0,0.0,0.0,0.0,0.0,0.0,-4.6764,0.0,0.0,0.0,0.0,0.0,0.0,0.0,0.0,-4.0769,-4.0704,-4.0704,-4.0704,-4.0704,-4.0704,-4.0704,-4.0704,-4.0704,-4.0769,-4.0769,-4.183,-4.3674,-4.3674,-4.389,-4.4357,0.0,0.0,0.0,0.0,0.0,0.0,0.0,0.0,0.0,0.0,0.0,0.0,0.0,0.0,0.0,0.0,0.0,0.0,0.0,0.0,0.0,0.0,0.0,0.0,0.0,0.0,0.0,0.0,0.0,0.0,0.0,0.0,0.0,0.0,0.0,0.0,0.0,-5.1966,-5.1711,-5.0953,-5.0972,-5.0952,0.0,0.0,0.0,0.0,0.0,0.0,-4.9273,-4.9209,-4.916,-4.916,-4.9096,-4.9062,-4.9062,-4.9062,-4.9096,-4.916,-4.916,-4.9209,-4.9255,-4.9286,-4.9305,-4.9321,-4.9449,-4.9559,-4.9615,-4.9912,-5.0031,-5.0057,-5.0057,-5.0044,-5.0018,-4.9965,-4.9925,-4.9898,0.0,0.0,0.0,0.0,0.0,0.0,0.0,0.0,0.0,0.0,0.0,0.0,0.0,0.0,-4.6948,-4.5788,-4.4563,-4.367,0.0,0.0,0.0,0.0,0.0,0.0,-4.033,-4.0213,-4.0121,-4.0121,-4.0121,-4.0121,-4.0121,-4.0121,-4.0213,-4.033,-4.033,-4.0738,-4.1359,-4.1359,-4.1955,-4.2906,-4.3018,0.0,0.0,0.0,0.0,0.0,0.0,0.0,0.0,0.0,0.0,0.0,0.0,0.0,0.0,0.0,0.0,0.0,0.0,0.0,0.0,0.0,0.0,0.0,0.0,0.0,0.0,0.0,0.0,0.0,0.0,0.0,0.0,0.0,0.0,0.0,0.0,0.0,0.0,-5.0027,-4.9972,0.0,0.0,0.0,0.0,-4.8878,-4.8911,-4.8926,-4.8907,-4.8856,-4.8822,-4.8822,-4.8696,-4.8623,-4.8623,-4.8623,-4.8696,-4.8822,-4.8822,-4.8856,-4.8926,-4.8993,-4.9008,-4.9025,-4.9225,-4.9324,-4.9355,-4.9673,-4.9843,-4.9912,-4.9912,-4.9871,-4.9821,-4.9821,-4.9721,-4.9623,0.0,0.0,0.0,0.0,0.0,0.0,0.0,0.0,0.0,0.0,0.0,0.0,0.0,-4.6581,-4.5352,-4.4572,-4.3315,-4.2388,-4.1928,0.0,0.0,0.0,0.0,0.0,0.0,-3.9609,-3.9523,-3.9523,-3.9523,-3.9609,-3.972,-3.972,-3.9798,-3.991,-3.991,-4.0121,-4.05,-4.0758,-4.1144,-4.1626,-4.2119,-4.2694,0.0,0.0,0.0,0.0,0.0,0.0,0.0,0.0,0.0,0.0,0.0,0.0,0.0,0.0,0.0,0.0,0.0,0.0,0.0,0.0,0.0,0.0,0.0,0.0,0.0,0.0,0.0,0.0,0.0,0.0,0.0,0.0,0.0,0.0,0.0,0.0,0.0,-4.876,-4.8745,0.0,-4.842,-4.8513,-4.8624,-4.866,-4.8696,-4.8714,-4.8714,-4.8678,-4.866,-4.866,-4.8623,-4.8605,-4.8605,-4.8605,-4.8623,-4.866,-4.866,-4.8678,-4.8714,-4.8731,-4.8749,-4.8749,-4.8926,-4.8978,-4.8995,-4.9144,-4.9368,-4.9581,-4.9581,-4.9566,-4.9537,-4.9476,-4.9449,-4.9402,0.0,0.0,0.0,0.0,0.0,0.0,0.0,0.0,0.0,0.0,0.0,-4.8216,-4.7561,-4.5776,-4.4327,-4.3564,-4.2516,-4.1701,-4.1232,0.0,0.0,0.0,-3.9935,0.0,0.0,-3.9077,-3.898,-3.8925,-3.898,-3.9077,-3.9218,-3.9228,-3.9362,-3.959,-3.959,-3.9703,-3.9969,-4.0238,-4.051,-4.0803,-4.1285,-4.1702,-4.2127,0.0,0.0,0.0,0.0,0.0,0.0,0.0,0.0,0.0,0.0,0.0,0.0,0.0,0.0,0.0,0.0,0.0,0.0,0.0,0.0,0.0,0.0,0.0,0.0,0.0,0.0,0.0,0.0,0.0,0.0,0.0,0.0,0.0,0.0,-4.8629,-4.845,-4.7986,-4.8012,-4.8092,-4.819,-4.8323,-4.8419,-4.8458,-4.8495,-4.8495,-4.8495,-4.8495,-4.8495,-4.8495,-4.8495,-4.8495,-4.8495,-4.8495,-4.8495,-4.8495,-4.8495,-4.8495,-4.8495,-4.855,-4.8587,-4.8569,-4.8678,-4.8732,-4.8732,-4.8767,-4.8923,-4.9141,-4.919,-4.9241,-4.9225,-4.9176,-4.9162,-4.9129,0.0,0.0,0.0,0.0,0.0,0.0,0.0,0.0,0.0,0.0,-4.9201,-4.7928,-4.679,-4.5354,-4.398,-4.2785,-4.2192,-4.1701,-4.1232,-4.0741,0.0,0.0,0.0,0.0,-3.8611,-3.8551,-3.8483,-3.8331,-3.8451,-3.8518,-3.8546,-3.8657,-3.8903,-3.9232,-3.9232,-3.9408,-3.967,-3.967,-3.9978,-4.0485,-4.0485,-4.0895,-4.1569,0.0,0.0,0.0,0.0,0.0,0.0,0.0,0.0,0.0,0.0,0.0,0.0,0.0,0.0,0.0,0.0,0.0,0.0,0.0,0.0,0.0,0.0,0.0,0.0,0.0,0.0,0.0,0.0,0.0,0.0,0.0,0.0,0.0,-4.7446,-4.749,-4.7557,-4.7752,-4.7793,-4.7852,-4.7972,-4.811,-4.8187,-4.8187,-4.8267,-4.8287,-4.8287,-4.8287,-4.8287,-4.8306,-4.8306,-4.8306,-4.8306,-4.8306,-4.8306,-4.8306,-4.8306,-4.8306,-4.8306,-4.8438,-4.8476,-4.8513,-4.855,-4.8587,-4.8587,-4.8587,-4.8587,-4.8605,-4.8803,-4.8891,-4.8891,-4.8891,-4.8839,-4.8769,0.0,0.0,0.0,0.0,0.0,0.0,0.0,0.0,0.0,0.0,-4.8414,-4.7205,-4.5963,-4.4556,-4.3415,-4.2689,-4.2089,-4.1529,-4.1035,0.0,0.0,0.0,0.0,0.0,-3.8476,-3.7845,-3.7447,-3.7307,-3.6817,-3.6696,-3.6945,-3.6972,-3.7186,-3.7569,-3.7569,-3.8006,-3.8762,-3.8762,-3.9218,-3.9935,-4.0011,-4.0307,-4.072,0.0,0.0,0.0,0.0,0.0,0.0,0.0,0.0,0.0,0.0,0.0,0.0,0.0,0.0,0.0,0.0,0.0,0.0,0.0,0.0,0.0,0.0,0.0,0.0,0.0,0.0,0.0,0.0,0.0,0.0,0.0,-4.6405,-4.659,-4.707,-4.7223,-4.7312,-4.7359,-4.7575,-4.7744,-4.7783,-4.7949,-4.8052,-4.8052,-4.8072,-4.8111,-4.8208,-4.8226,-4.8247,-4.8287,-4.8306,-4.8306,-4.8306,-4.8306,-4.8306,-4.8306,-4.8306,-4.8306,-4.8306,-4.8343,-4.8363,-4.8363,-4.8382,-4.8382,-4.8382,-4.8382,-4.8382,-4.8383,-4.8587,-4.8678,-4.8678,-4.8678,-4.8678,-4.8642,0.0,0.0,0.0,0.0,0.0,0.0,0.0,0.0,0.0,0.0,-4.8178,-4.6972,-4.5719,-4.4288,-4.3231,-4.2767,-4.2151,-4.1574,-4.1065,0.0,0.0,0.0,0.0,-3.8215,-3.7854,-3.6993,-3.6458,-3.6278,-3.5887,-3.5844,-3.6093,-3.6158,-3.6397,-3.6821,-3.6821,-3.7206,-3.7876,-3.8192,-3.8635,-3.9191,-3.9577,-3.9875,-4.0088,-4.0587,-4.1019,-4.1503,-4.2779,-4.3435,-4.3827,-4.463,0.0,0.0,0.0,0.0,0.0,0.0,0.0,0.0,0.0,0.0,0.0,0.0,0.0,0.0,0.0,0.0,0.0,0.0,0.0,0.0,0.0,0.0,0.0,0.0,-4.5912,-4.6062,-4.6357,-4.6661,-4.6888,-4.6934,-4.7205,-4.7421,-4.7504,-4.7723,-4.7868,-4.7868,-4.7951,-4.8032,-4.811,-4.8128,-4.813,-4.817,-4.817,-4.819,-4.8267,-4.8267,-4.8286,-4.8306,-4.8306,-4.8306,-4.8306,-4.8306,-4.8306,-4.8306,-4.8306,-4.8306,-4.8306,-4.8306,-4.8306,0.0,0.0,0.0,0.0,0.0,-4.8458,-4.8476,0.0,0.0,0.0,0.0,0.0,0.0,0.0,0.0,0.0,0.0,0.0,-4.7018,-4.5712,-4.431,-4.3319,-4.2939,-4.2315,-4.1744,0.0,0.0,0.0,-3.9325,-3.8364,-3.7638,-3.7129,-3.6204,-3.5584,-3.5324,-3.534,-3.5445,-3.5609,-3.5723,-3.6032,-3.6455,-3.6472,-3.6724,-3.7152,-3.7814,-3.8257,-3.8569,-3.9208,-3.9563,-3.9703,-3.9833,-4.0262,-4.0987,-4.1946,-4.2699,-4.342,-4.4432,0.0,0.0,0.0,0.0,0.0,0.0,0.0,0.0,0.0,0.0,0.0,0.0,0.0,0.0,0.0,0.0,0.0,0.0,0.0,0.0,0.0,0.0,0.0,0.0,-4.545,-4.5529,-4.5529,-4.5963,-4.6357,-4.6525,-4.6795,-4.7002,-4.7156,-4.7464,-4.7654,-4.7657,-4.7847,-4.7951,-4.7972,-4.7972,0.0,0.0,0.0,-4.807,-4.8168,-4.8168,-4.8226,-4.8267,-4.8287,-4.8287,-4.8287,-4.8287,-4.8306,-4.8306,-4.8214,-4.8159,-4.8159,-4.8067,-4.8086,-4.8177,-4.8269,-4.8306,-4.8306,-4.8306,-4.8306,-4.8306,0.0,0.0,0.0,0.0,0.0,0.0,0.0,0.0,0.0,-4.8629,-4.8019,-4.6991,-4.5032,-4.4255,-4.3644,-4.3105,-4.2596,-4.1903,0.0,0.0,-3.9986,-3.9408,-3.8569,-3.7847,-3.7268,-3.599,-3.517,-3.4851,-3.4319,-3.4136,-3.4266,-3.4403,-3.4632,-3.4923,-3.5046,-3.5844,-3.7119,-3.7268,-3.8022,-3.9126,-3.9276,-3.9468,-3.9703,-3.9729,-3.9813,-4.0141,-4.1617,-4.2244,-4.2581,-4.4113,-4.4626,-4.4654,-4.4682,-4.4682,0.0,0.0,0.0,0.0,0.0,0.0,0.0,0.0,0.0,0.0,0.0,0.0,0.0,0.0,0.0,0.0,0.0,0.0,0.0,-4.5086,-4.5113,-4.5113,-4.5113,-4.5389,-4.576,-4.6211,-4.6501,-4.6754,-4.702,-4.7219,-4.7312,-4.7363,-4.7515,-4.7639,-4.7762,-4.7863,-4.7927,-4.7992,-4.7992,-4.8012,-4.8032,-4.8032,-4.805,-4.8052,0.0,0.0,-4.8226,-4.8286,-4.8306,-4.8269,-4.7608,-4.7333,-4.7278,-4.6636,-4.6746,-4.7388,-4.8048,-4.8306,-4.8306,-4.8306,-4.8306,-4.8214,0.0,0.0,0.0,0.0,0.0,0.0,0.0,0.0,0.0,0.0,-4.8363,-4.732,-4.5626,-4.466,-4.3949,-4.344,-4.2733,0.0,0.0,-4.0789,-4.0353,-3.9867,-3.8555,-3.7615,-3.712,-3.5622,-3.4711,-3.4404,-3.4076,-3.3975,-3.4101,-3.4176,-3.4595,-3.5243,-3.5316,-3.6067,-3.732,-3.7686,-3.8269,-3.8968,-3.9361,-3.9537,-3.9616,-3.9616,-3.9616,-3.98,-4.1422,-4.2013,-4.2232,-4.381,-4.4384,-4.444,-4.444,-4.4514,-4.4598,0.0,0.0,0.0,0.0,0.0,0.0,0.0,0.0,0.0,0.0,0.0,0.0,0.0,0.0,-4.4913,-4.4913,0.0,-4.4803,-4.4803,-4.4858,-4.4913,-4.4913,-4.5086,-4.5363,-4.576,-4.6087,-4.6381,-4.659,-4.6795,-4.698,-4.7138,-4.7272,-4.7381,-4.749,-4.7636,-4.772,-4.7747,-4.7827,-4.7868,-4.7947,-4.7947,-4.7968,-4.7992,-4.807,-4.809,-4.8072,-4.7786,-4.7661,-4.7624,-4.6819,-4.6507,-4.6471,-4.6067,-4.614,-4.6581,-4.7388,-4.7957,-4.8251,-4.7846,-4.77,-4.7571,0.0,0.0,0.0,0.0,0.0,0.0,0.0,0.0,0.0,0.0,-4.8802,-4.7684,-4.6484,-4.518,-4.4198,0.0,0.0,0.0,0.0,-4.1243,-4.0802,-4.0444,-3.8674,-3.7492,-3.7086,-3.5481,-3.4546,-3.43,-3.4275,-3.4325,-3.4423,-3.462,-3.5202,-3.6098,-3.6279,-3.6909,-3.7834,-3.8413,-3.874,-3.8882,-3.9495,-3.9668,-3.9537,-3.9537,-3.9528,-3.9658,-4.1259,-4.1849,-4.2083,-4.3595,-4.4184,-4.4253,-4.4253,-4.4384,-4.4514,-4.4542,-4.4542,0.0,0.0,0.0,0.0,0.0,0.0,0.0,0.0,-4.4682,-4.4748,-4.4748,-4.4748,-4.4748,-4.4748,-4.4682,-4.4615,-4.4615,-4.4682,-4.4748,-4.4748,-4.4886,-4.5032,-4.5257,-4.5632,-4.5938,-4.6112,-4.6332,-4.659,-4.6865,-4.702,-4.7116,-4.7232,-4.7381,-4.7468,-4.7511,-4.7615,-4.7738,-4.7861,-4.7861,-4.7884,-4.7931,-4.797,-4.7899,-4.7735,-4.7213,-4.6887,-4.6686,-4.5938,-4.5517,-4.5388,-4.5572,-4.5645,-4.5718,-4.6544,-4.7278,-4.7774,-4.7278,-4.7003,-4.6746,0.0,0.0,0.0,0.0,0.0,0.0,0.0,0.0,0.0,0.0,0.0,0.0,0.0,0.0,0.0,0.0,0.0,0.0,-4.2175,-4.1799,-4.1401,-4.0943,-3.9256,-3.811,-3.7715,-3.6058,-3.5152,-3.4994,-3.4875,-3.4828,-3.4851,-3.5754,-3.6231,-3.6396,-3.729,-3.8111,-3.8845,-3.8905,-3.9277,-3.9757,-3.9841,-3.9798,-3.9677,-3.9677,-3.952,-3.9534,-4.115,-4.1738,-4.1955,-4.3566,-4.4097,-4.4126,-4.4126,-4.4126,-4.4184,-4.4281,-4.4338,-4.4367,-4.4542,-4.4615,-4.4615,-4.4615,-4.4615,-4.4615,0.0,-4.4598,-4.4626,-4.4626,-4.4626,-4.4626,-4.4626,-4.4598,-4.4615,-4.4615,-4.4598,-4.4626,-4.4626,-4.4737,-4.4831,-4.4858,-4.5203,-4.5572,-4.5811,-4.5988,-4.6186,-4.6447,-4.659,-4.6778,-4.7025,-4.7156,-4.7312,-4.749,-4.7511,-4.7593,-4.7717,-4.7717,-4.7738,-4.772,-4.7842,-4.7541,-4.6832,-4.6822,-4.6443,-4.5713,-4.4911,-4.4163,-4.3579,-4.4401,-4.4766,-4.4821,-4.57,-4.6085,-4.6232,-4.6856,-4.6636,-4.592,0.0,0.0,0.0,0.0,0.0,0.0,0.0,0.0,0.0,0.0,0.0,0.0,0.0,0.0,0.0,0.0,0.0,0.0,-4.2753,-4.2362,-4.1969,-4.1539,-4.0246,-3.917,-3.8265,-3.7171,-3.6247,-3.5566,-3.5504,-3.5717,-3.6179,-3.6615,-3.7335,-3.8295,-3.8696,-3.933,-4.012,-4.012,-4.0212,-4.0379,-4.0379,-4.0255,-4.0088,-4.045,-4.0445,-4.0394,-4.1371,-4.1966,0.0,0.0,-4.391,-4.3969,-4.3969,-4.4027,-4.4097,-4.4184,-4.4167,-4.4224,-4.4384,-4.4514,-4.4615,-4.4615,-4.4615,-4.4615,-4.4615,-4.4615,-4.4615,-4.4615,-4.4615,-4.4615,-4.4615,-4.4615,-4.4615,-4.4615,-4.4615,-4.4615,-4.4615,-4.4654,-4.4682,-4.4682,-4.5278,-4.5809,-4.6044,-4.6645,-4.6917,-4.6704,-4.6846,-4.685,-4.6655,-4.6842,-4.7048,-4.7205,-4.7403,-4.7533,-4.7575,-4.7657,-4.7717,-4.7717,-4.7288,-4.691,-4.6547,-4.5723,-4.4926,-4.4181,-4.3853,-4.3506,-4.3233,-4.3616,-4.378,-4.3871,-4.4693,-4.4784,-4.4546,-4.5388,-4.548,-4.5094,0.0,0.0,0.0,0.0,0.0,0.0,0.0,0.0,0.0,0.0,0.0,0.0,0.0,0.0,0.0,0.0,0.0,0.0,0.0,-4.2978,-4.26,-4.2218,-4.1224,-4.0239,-3.9308,-3.8477,-3.7671,-3.6874,-3.687,-3.712,-3.7649,-3.7917,-3.8651,-3.9819,-4.0049,-4.0493,-4.1082,-4.1082,-4.1012,-4.0894,-4.0847,-4.0824,-4.0844,-4.1231,-4.157,-4.188,-4.2021,-4.2377,0.0,0.0,-4.3734,-4.3839,-4.3839,-4.3881,-4.3981,-4.4027,-4.4068,-4.4126,-4.4224,-4.4355,-4.4485,-4.4514,-4.4514,-4.4542,-4.4587,-4.4615,-4.4615,-4.4615,-4.4615,-4.4615,-4.4615,-4.4615,-4.4615,-4.4615,-4.4615,-4.4615,-4.4615,-4.4615,-4.4682,-4.4874,-4.562,-4.6289,-4.6703,-4.7243,-4.7345,-4.6767,-4.6899,-4.6776,-4.6246,-4.6495,-4.6731,-4.6934,-4.7227,-4.7403,-4.7511,-4.7593,-4.7657,-4.7678,-4.6884,-4.6377,-4.6124,-4.459,-4.3613,-4.3123,-4.3123,-4.3123,-4.3123,-4.316,-4.316,-4.3233,-4.3834,-4.378,-4.3414,-4.4052,-4.4325,-4.4287,0.0,0.0,0.0,0.0,0.0,0.0,0.0,0.0,0.0,0.0,0.0,0.0,0.0,0.0,0.0,0.0,0.0,0.0,0.0,-4.3621,-4.3317,-4.2977,-4.1935,-4.1272,-4.102,-3.9995,-3.9426,-3.9391,-3.9268,-3.9143,-3.9077,-3.9915,-4.0297,-4.0329,-4.117,-4.1565,-4.1582,-4.1582,-4.1498,-4.1368,-4.1232,-4.1568,-4.2126,-4.1852,-4.2697,-4.3905,-4.3221,0.0,0.0,0.0,-4.3763,-4.3598,-4.3598,-4.3628,0.0,-4.3868,-4.3998,0.0,-4.4097,-4.4097,-4.4155,-4.4281,-4.431,-4.4367,-4.4542,-4.4615,-4.4615,-4.4615,-4.4615,-4.4615,-4.4615,-4.4615,-4.4615,-4.4615,-4.4615,-4.4615,-4.4615,-4.4615,-4.4886,-4.5585,-4.6312,-4.7039,-4.7784,-4.7486,-4.6965,-4.6351,-4.6446,-4.6333,-4.5846,-4.6087,-4.6405,-4.6778,-4.6934,-4.716,-4.749,-4.7511,-4.7554,-4.7678,-4.6884,-4.6087,-4.5273,-4.368,-4.2937,-4.2901,-4.2901,-4.2901,-4.2919,-4.3049,-4.3104,-4.3104,-4.3215,-4.3214,-4.3214,-4.3233,-4.3358,-4.3516,0.0,0.0,0.0,0.0,0.0,0.0,0.0,0.0,0.0,0.0,0.0,0.0,0.0,0.0,0.0,0.0,0.0,0.0,0.0,-4.411,-4.3833,-4.3542,-4.3009,-4.2395,-4.1705,-4.1212,-4.0684,-4.0088,-3.9976,-4.0149,-4.0646,-4.0933,-4.1341,-4.1836,-4.2124,-4.2269,-4.2249,-4.2169,-4.205,-4.1959,-4.2313,-4.255,-4.2747,-4.344,-4.3996,-4.4363,0.0,0.0,0.0,0.0,0.0,0.0,-4.3628,0.0,-4.3628,-4.3687,-4.3822,-4.3985,-4.3985,-4.4027,-4.4097,-4.4155,-4.4184,-4.4184,-4.4241,-4.4327,-4.4412,-4.4412,-4.4902,-4.5331,-4.5331,-4.5331,-4.5331,-4.5331,-4.4936,-4.4615,-4.4615,-4.4615,-4.4699,-4.4925,-4.6041,-4.6887,-4.7141,-4.7539,-4.7498,-4.6823,-4.6435,-4.602,-4.5554,-4.5709,-4.5988,-4.6381,-4.6708,-4.6957,-4.716,-4.7381,-4.7533,-4.7536,-4.63,-4.5001,-4.3679,-4.3155,-4.2901,-4.2901,-4.2901,-4.2901,-4.2901,-4.2938,-4.2975,-4.2975,-4.2994,-4.3068,-4.3123,-4.3123,-4.3196,-4.3304,0.0,0.0,0.0,0.0,0.0,0.0,0.0,0.0,0.0,0.0,0.0,0.0,0.0,0.0,0.0,0.0,0.0,0.0,0.0,0.0,-4.4379,-4.4095,-4.3833,-4.3385,-4.2722,-4.2534,-4.2139,-4.1575,-4.1469,-4.1651,-4.2104,-4.2085,-4.2338,-4.2805,-4.2805,-4.2805,-4.2823,-4.3018,-4.3048,-4.2983,-4.3564,-4.3914,-4.4099,-4.473,-4.5051,0.0,0.0,0.0,0.0,0.0,0.0,0.0,0.0,0.0,-4.3598,-4.3598,-4.3687,-4.3793,-4.3793,-4.3852,-4.3952,-4.4027,-4.4027,-4.4123,-4.4403,-4.4557,-4.4711,-4.498,-4.5492,-4.5917,-4.5988,-4.5988,-4.6017,-4.6092,-4.5466,-4.4976,-4.4976,-4.4784,-4.4699,-4.4942,-4.5821,-4.6498,-4.6769,-4.706,-4.7153,-4.6932,-4.6363,-4.5791,-4.5228,-4.5398,-4.5658,-4.5988,-4.6398,-4.6684,-4.6911,-4.7183,-4.7093,-4.6627,-4.5429,-4.4168,-4.2901,-4.2901,-4.2901,-4.2901,-4.2901,-4.2901,-4.2901,-4.2901,-4.2901,-4.2901,-4.2901,-4.2938,-4.303,-4.303,-4.305,-4.3105,0.0,0.0,0.0,0.0,0.0,0.0,0.0,0.0,0.0,0.0,0.0,0.0,0.0,0.0,0.0,0.0,0.0,0.0,0.0,0.0,0.0,-4.4643,-4.436,-4.4166,-4.4051,-4.3844,-4.3728,-4.3728,-4.3662,-4.3579,-4.344,-4.3372,-4.3303,-4.325,-4.3232,-4.3232,-4.3287,-4.4108,-4.4363,-4.4286,-4.4945,-4.556,-4.6094,-4.5645,0.0,0.0,0.0,0.0,0.0,-4.4697,-4.4224,-4.3898,-4.3898,-4.3763,-4.3598,-4.3598,-4.3598,-4.3598,-4.3598,-4.3598,-4.3658,-4.3839,-4.3931,-4.416,-4.4992,-4.5206,-4.544,-4.616,-4.6327,-4.6404,-4.6505,-4.6535,-4.6595,-4.6807,-4.6198,-4.5725,-4.5674,-4.5094,-4.4919,-4.5568,-4.5686,-4.5974,-4.6667,-4.6109,-4.5991,-4.6684,-4.6186,-4.5541,-4.4854,-4.515,-4.5441,-4.558,-4.5963,-4.6357,-4.6772,-4.6875,-4.6319,-4.5093,-4.4417,-4.3679,-4.2901,-4.2901,-4.2901,-4.2901,-4.2901,-4.2901,-4.2901,-4.2901,-4.2901,-4.2901,-4.2901,-4.2901,-4.2901,-4.2901,-4.2901,-4.2919,0.0,0.0,0.0,0.0,0.0,0.0,0.0,0.0,0.0,0.0,0.0,0.0,0.0,0.0,0.0,0.0,0.0,0.0,0.0,0.0,0.0,0.0,0.0,0.0,0.0,0.0,0.0,-4.4143,-4.4087,-4.4026,-4.3992,-4.3918,-4.3889,-4.3857,-4.3812,-4.3814,-4.3851,-4.4598,-4.4881,-4.489,0.0,-4.6493,-4.6644,0.0,0.0,0.0,0.0,0.0,-4.545,-4.4752,-4.4224,-4.3898,-4.3898,-4.3763,-4.3598,-4.3598,-4.3598,-4.3598,-4.3598,-4.3598,-4.3628,-4.3658,-4.4085,-4.4563,-4.4776,-4.5333,-4.5857,-4.6057,-4.6633,-4.7127,-4.7141,-4.7172,-4.7189,-4.725,-4.6703,-4.6102,-4.5534,-4.5431,-4.528,-4.4908,-4.5365,-4.5771,-4.5957,-4.5821,-4.5788,-4.5974,-4.5337,-4.4885,-4.4793,-4.4913,-4.5113,-4.5441,-4.5632,-4.5938,-4.6357,-4.6186,-4.5781,-4.5093,-4.4375,-4.3639,-4.2901,-4.2901,-4.2901,-4.2901,-4.2901,-4.2901,-4.2901,-4.2901,-4.2901,-4.2901,-4.2901,-4.2901,-4.2901,-4.2901,-4.2901,-4.2901,0.0,0.0,0.0,0.0,0.0,0.0,0.0,0.0,0.0,0.0,0.0,0.0,0.0,0.0,0.0,0.0,0.0,0.0,0.0,0.0,0.0,0.0,0.0,0.0,0.0,0.0,0.0,0.0,0.0,0.0,-4.4374,-4.4321,-4.4277,-4.4258,-4.4233,-4.4423,-4.4797,-4.5541,0.0,0.0,0.0,0.0,0.0,0.0,0.0,0.0,0.0,0.0,-4.5529,-4.4998,-4.4463,-4.4039,-4.3927,-4.3763,-4.3598,-4.3598,-4.3598,-4.3598,-4.3598,-4.3598,-4.3664,-4.4009,-4.439,-4.4854,-4.5516,-4.6026,-4.647,-4.6802,-4.7313,-4.766,-4.7755,-4.7755,-4.7786,-4.7881,-4.7323,-4.6747,-4.6344,-4.5858,-4.5402,-4.5009,-4.5116,-4.5213,-4.5213,-4.5213,-4.5213,-4.5213,-4.4852,-4.4626,-4.4709,-4.4776,-4.4896,-4.514,-4.5389,-4.5578,-4.5712,-4.5412,-4.4979,-4.4384,-4.377,-4.3255,-4.2861,-4.29,-4.2901,-4.2901,-4.2901,-4.2901,-4.2901,-4.2901,-4.2901,-4.2901,-4.2901,-4.2901,-4.2901,-4.2901,-4.3137,-4.3425,0.0,0.0,0.0,0.0,0.0,0.0,0.0,0.0,0.0,0.0,0.0,0.0,0.0,0.0,0.0,0.0,0.0,0.0,0.0,0.0,0.0,0.0,0.0,0.0,0.0,0.0,0.0,0.0,0.0,0.0,0.0,0.0,0.0,0.0,0.0,0.0,0.0,0.0,0.0,0.0,0.0,0.0,0.0,0.0,0.0,0.0,0.0,0.0,0.0,-4.5363,-4.4852,-4.4281,-4.3998,-4.3793,-4.3628,-4.3598,-4.3598,-4.3598,-4.3598,-4.3598,-4.3764,-4.4506,-4.4754,-4.5202,-4.6576,-4.6974,-4.7222,-4.7868,-4.8001,-4.8033,-4.8147,-4.8163,-4.8227,-4.8388,-4.7901,-4.7481,-4.7381,-4.6381,-4.5631,-4.553,-4.5048,-4.4694,-4.4694,-4.4637,-4.4615,-4.4615,-4.4615,-4.4615,-4.4615,-4.4709,-4.4776,-4.4831,-4.5117,-4.5199,-4.5074,-4.4594,-4.406,-4.3486,-4.2985,-4.2764,-4.2803,-4.2861,-4.2882,-4.2901,-4.2901,-4.2901,-4.2901,-4.2901,-4.2901,-4.2901,-4.2901,-4.2901,-4.2901,-4.2901,-4.3426,-4.4095,0.0,0.0,0.0,0.0,0.0,0.0,0.0,0.0,0.0,0.0,-5.1405,-5.1399,0.0,0.0,0.0,0.0,0.0,0.0,0.0,0.0,0.0,0.0,0.0,0.0,0.0,0.0,0.0,0.0,0.0,0.0,0.0,0.0,0.0,0.0,0.0,0.0,0.0,0.0,0.0,0.0,0.0,0.0,0.0,0.0,0.0,0.0,0.0,0.0,0.0,0.0,-4.5052,-4.4435,-4.4155,-4.3969,-4.3839,-4.3658,-4.3598,-4.3598,-4.3598,-4.3598,-4.3764,-4.4506,-4.5152,-4.5831,-4.6692,-4.7371,-4.7852,-4.7968,-4.8001,-4.8001,-4.8033,-4.8033,-4.8066,-4.8099,-4.8063,-4.786,-4.7243,-4.7068,-4.684,-4.6207,-4.5618,-4.5264,-4.5264,-4.4868,-4.4615,-4.4615,-4.4615,-4.4615,-4.4615,-4.4626,-4.4737,-4.4951,-4.4672,-4.4636,-4.4928,-4.3716,-4.3236,-4.3486,-4.2744,-4.253,-4.2803,-4.2822,-4.2842,-4.2901,-4.2901,0.0,-4.2901,-4.2901,-4.2901,-4.2901,-4.2901,-4.2901,-4.2901,-4.2901,-4.3426,-4.4095,0.0,0.0,0.0,0.0,0.0,0.0,0.0,-5.1252,-5.1326,-5.1381,-5.1396,-5.1406,-5.1391,-5.1396,-5.1394,0.0,0.0,0.0,0.0,0.0,0.0,0.0,0.0,0.0,0.0,0.0,0.0,0.0,0.0,0.0,0.0,0.0,0.0,0.0,0.0,0.0,0.0,0.0,0.0,0.0,0.0,0.0,0.0,0.0,0.0,0.0,0.0,0.0,0.0,0.0,-4.6126,-4.5494,-4.4581,-4.4126,-4.3868,-4.3793,-4.3687,-4.3598,-4.3598,-4.3893,-4.4357,-4.5086,-4.5814,-4.656,-4.7305,-4.7752,-4.8001,-4.8001,-4.8001,-4.8001,-4.8001,-4.8001,-4.8001,-4.8001,-4.8049,-4.7966,-4.7633,-4.7378,-4.7106,-4.6755,-4.5888,-4.532,-4.5391,-4.4822,-4.4468,-4.4598,-4.4615,-4.4615,-4.4615,-4.4615,-4.4682,-4.4886,-4.4446,-4.4121,-4.3975,-4.3173,-4.2745,-4.2626,-4.2403,-4.243,-4.2706,-4.2764,-4.2842,-4.2901,-4.2901,-4.2901,-4.2901,-4.2901,-4.2901,-4.2901,-4.2901,-4.2901,-4.2955,-4.3371,-4.4023,-4.4784,0.0,0.0,0.0,0.0,0.0,0.0,0.0,-5.1254,-5.132,-5.1391,-5.1403,-5.1404,-5.1402,-5.1408,-5.1408,0.0,0.0,0.0,0.0,0.0,0.0,0.0,0.0,0.0,0.0,0.0,0.0,-4.5853,-4.6434,0.0,0.0,0.0,0.0,0.0,-4.7822,0.0,0.0,0.0,0.0,0.0,0.0,0.0,0.0,0.0,0.0,0.0,0.0,0.0,0.0,0.0,-4.7377,-4.6845,-4.5582,-4.4867,-4.4511,-4.4393,-4.4258,-4.4138,-4.4092,-4.4489,-4.5102,-4.5847,-4.646,-4.709,-4.7835,-4.8001,-4.8001,-4.8001,-4.8001,-4.8001,-4.8001,-4.8001,-4.8001,-4.8001,-4.8001,-4.8001,-4.8001,-4.7584,-4.7298,-4.7298,-4.6291,-4.5574,-4.5526,-4.4925,-4.4552,-4.4559,-4.457,-4.4615,-4.4615,-4.4615,-4.4654,-4.482,-4.4287,-4.37,-4.3122,-4.2816,-4.2349,-4.1758,-4.2079,-4.2328,-4.255,-4.2686,-4.2804,-4.2881,-4.2882,-4.2901,-4.2901,-4.2901,-4.2901,-4.2901,-4.2901,-4.2901,-4.301,-4.3788,-4.4603,-4.5417,0.0,0.0,0.0,0.0,0.0,0.0,0.0,-5.1254,-5.132,-5.1391,-5.14,-5.1399,-5.1405,-5.1396,-5.1396,0.0,0.0,0.0,0.0,0.0,0.0,0.0,0.0,0.0,0.0,0.0,0.0,-4.7656,-4.7722,0.0,0.0,0.0,0.0,0.0,0.0,-4.8917,-4.902,0.0,0.0,0.0,0.0,0.0,0.0,0.0,0.0,0.0,0.0,-4.8749,-4.8388,-4.8642,-4.8483,-4.8076,-4.7541,-4.6999,-4.6435,-4.6032,-4.5879,-4.5832,-4.5661,-4.5649,-4.5864,-4.6609,-4.6841,-4.709,-4.7835,-4.8001,-4.8001,-4.8001,-4.8001,-4.8001,-4.8001,-4.8001,-4.8001,-4.8001,-4.8001,-4.8001,-4.8001,-4.7934,-4.7934,-4.7934,-4.7333,-4.6662,-4.601,-4.5563,-4.5033,-4.4389,-4.4514,-4.4615,-4.4615,-4.4615,-4.4654,-4.482,-4.4055,-4.3475,-4.3097,-4.2535,-4.2033,-4.1626,-4.1902,-4.2136,-4.2328,-4.253,-4.2688,-4.2822,-4.2862,-4.2901,0.0,-4.2901,-4.2901,-4.2901,-4.2901,-4.2901,-4.301,-4.3788,-4.4603,-4.5417,0.0,0.0,0.0,0.0,0.0,0.0,-5.1196,-5.122,-5.128,-5.1397,-5.1408,-5.1393,-5.1406,-5.1402,-5.1407,-5.1394,0.0,0.0,0.0,0.0,0.0,0.0,0.0,0.0,0.0,0.0,-4.8058,-4.7958,-4.8405,0.0,0.0,0.0,0.0,0.0,0.0,-4.9778,-4.9797,0.0,0.0,0.0,0.0,0.0,0.0,0.0,0.0,0.0,0.0,0.0,-4.9567,-4.9984,-4.9792,-4.9372,-4.9336,-4.8999,-4.8394,-4.695,-4.6307,-4.6079,-4.6001,-4.6223,-4.6527,-4.6825,-4.7222,-4.7636,-4.7934,-4.8001,-4.8001,-4.8001,-4.8001,-4.8001,-4.8001,-4.8001,-4.8001,-4.8001,-4.8001,0.0,-4.8001,-4.8001,-4.8001,-4.8001,-4.7403,-4.6703,-4.6079,-4.5454,-4.4867,-4.4332,-4.4367,-4.4468,-4.4598,-4.4615,-4.4626,-4.4682,-4.3973,-4.3369,-4.2852,-4.2339,-4.1868,-4.1493,-4.1754,-4.2282,-4.3022,-4.3227,-4.364,-4.4155,-4.3785,-4.3607,0.0,-4.31,-4.2901,-4.2901,-4.2901,-4.3209,-4.3715,-4.453,-4.5327,-4.6142,0.0,0.0,0.0,0.0,0.0,-5.1113,-5.1196,-5.1215,-5.1276,-5.1394,-5.162,-5.1783,-5.1777,-5.2008,-5.2076,-5.1815,-5.1542,0.0,0.0,0.0,0.0,0.0,0.0,0.0,0.0,0.0,-4.8874,-4.8768,-4.9271,-4.9513,0.0,0.0,-5.0302,-5.0302,0.0,0.0,0.0,0.0,0.0,0.0,0.0,0.0,0.0,0.0,0.0,0.0,0.0,0.0,0.0,0.0,0.0,-5.0581,-5.0581,0.0,0.0,-4.7942,-4.7157,-4.6867,-4.6743,-4.6969,-4.7222,-4.7222,-4.762,-4.8001,-4.8001,-4.8001,-4.8001,-4.8001,-4.8001,-4.8001,-4.8001,-4.8001,-4.8001,0.0,0.0,-4.8001,-4.8001,-4.8001,-4.8001,-4.8001,-4.7537,-4.6956,-4.6319,-4.5435,-4.472,-4.4275,-4.4281,-4.4367,-4.4497,-4.457,-4.4615,-4.4615,-4.4139,-4.3603,-4.2969,-4.2714,-4.2375,-4.1969,-4.2266,-4.2878,-4.3736,-4.393,-4.4422,-4.5034,-4.4341,-4.4058,0.0,-4.3226,-4.2901,-4.2919,-4.3173,-4.3588,-4.4222,-4.5273,-4.6015,-4.6631,0.0,0.0,0.0,0.0,0.0,0.0,-5.1196,-5.1254,-5.132,-5.1391,-5.214,-5.2688,-5.2694,-5.3452,-5.362,-5.2765,-5.1898,0.0,0.0,0.0,0.0,0.0,0.0,0.0,0.0,0.0,-5.0773,-5.0567,-5.0514,-5.0448,-5.0382,-5.0325,-5.0302,-5.0302,0.0,0.0,0.0,0.0,0.0,0.0,0.0,0.0,0.0,0.0,0.0,0.0,0.0,0.0,0.0,0.0,0.0,0.0,0.0,0.0,0.0,0.0,-4.8827,-4.8591,-4.8258,-4.8098,-4.7984,-4.7984,-4.8001,-4.8001,-4.8001,-4.8001,-4.8001,-4.8001,-4.8001,-4.8001,-4.8001,-4.8001,-4.8001,-4.8001,-4.8001,0.0,-4.8001,-4.8001,-4.8001,-4.8001,-4.8001,-4.7703,-4.6957,-4.5673,-4.4677,-4.4147,-4.4224,-4.431,-4.431,-4.4497,-4.4615,-4.4615,-4.4598,-4.4264,-4.3593,-4.3843,-4.3735,-4.3286,-4.3692,-4.4038,-4.4306,-4.4515,-4.4732,-4.4946,-4.4203,-4.398,0.0,-4.3226,-4.2901,-4.2992,-4.3769,-4.4077,-4.4277,-4.5906,-4.6504,-4.6631,0.0,0.0,0.0,0.0,0.0,0.0,0.0,-5.2165,-5.22,-5.2281,-5.3048,-5.359,-5.3592,-5.3839,-5.3888,-5.3602,-5.2799,0.0,0.0,0.0,0.0,0.0,0.0,0.0,0.0,0.0,-5.0793,-5.0587,-5.0544,-5.0468,-5.0401,-5.0325,-5.0302,-5.0302,-5.0302,-5.0302,0.0,0.0,0.0,0.0,0.0,0.0,0.0,0.0,0.0,0.0,0.0,0.0,0.0,0.0,0.0,0.0,0.0,0.0,0.0,0.0,0.0,-4.8829,-4.8483,-4.826,-4.8115,-4.8033,-4.8001,-4.8001,-4.8001,-4.8001,-4.8001,-4.8001,-4.8001,-4.8001,-4.8001,-4.8001,-4.8001,-4.8001,-4.8001,0.0,-4.8001,-4.8001,-4.8001,-4.8001,-4.7106,-4.6394,-4.6162,-4.4851,-4.3996,-4.3956,-4.3998,-4.4085,-4.4155,-4.4327,-4.4468,-4.4615,-4.4615,-4.4281,-4.3593,-4.3824,-4.3657,-4.318,-4.3572,-4.4202,-4.4987,-4.5289,-4.5845,-4.6493,-4.5248,-4.4793,-4.482,-4.3463,-4.3208,-4.3733,-4.3987,-4.4765,-4.5798,-4.6305,-4.6866,-4.7373,0.0,0.0,0.0,0.0,0.0,0.0,0.0,-5.3097,-5.3111,-5.3173,-5.3955,-5.4492,-5.4489,-5.4773,-5.4841,-5.4519,-5.3969,0.0,0.0,0.0,0.0,0.0,0.0,0.0,-5.1035,-5.0952,-5.0827,-5.0692,-5.0575,-5.05,-5.0435,-5.0359,-5.0325,-5.0302,-5.0646,-5.0799,0.0,0.0,0.0,0.0,0.0,0.0,-5.3053,0.0,0.0,0.0,0.0,0.0,0.0,0.0,0.0,0.0,0.0,0.0,0.0,0.0,0.0,0.0,0.0,-4.8388,-4.8163,-4.8033,-4.8001,-4.8001,-4.8001,-4.8001,-4.8001,-4.8001,-4.8001,-4.8001,-4.8001,-4.8001,-4.8001,-4.8001,-4.8001,-4.8001,-4.8001,-4.8001,-4.8001,-4.8001,-4.6941,-4.6096,-4.5814,-4.4721,-4.3939,-4.3809,-4.3868,-4.3927,-4.4027,-4.4155,-4.4327,-4.4468,-4.457,-4.4406,-4.398,-4.416,-4.4109,-4.389,-4.4252,-4.4858,-4.5663,-4.5975,-4.6498,-4.7115,-4.5992,-4.558,0.0,-4.4311,-4.4095,-4.4584,-4.4892,-4.5617,-4.654,-4.6848,-4.7283,-4.7717,0.0,0.0,0.0,0.0,0.0,0.0,0.0,-5.4008,-5.4023,-5.4084,-5.4841,-5.539,-5.5382,-5.6117,-5.6265,-5.5456,0.0,0.0,0.0,0.0,0.0,0.0,0.0,0.0,-5.1101,-5.0966,-5.0858,-5.0801,-5.0664,-5.0572,-5.05,-5.0492,-5.0455,-5.0436,-5.1314,-5.1735,-5.183,-5.2575,-5.2919,-5.3053,-5.3798,-5.4057,0.0,0.0,0.0,0.0,0.0,0.0,0.0,0.0,0.0,0.0,0.0,0.0,0.0,0.0,0.0,0.0,0.0,-4.8498,-4.8195,-4.8066,-4.8001,-4.8001,-4.8001,-4.8001,0.0,-4.8001,-4.8001,-4.8001,-4.8001,-4.8001,-4.8001,-4.7968,-4.7968,-4.7968,-4.7968,-4.7968,-4.7968,-4.7968,-4.7256,-4.6543,-4.5864,-4.5086,-4.434,-4.3648,-4.3763,-4.3868,-4.3868,-4.4027,-4.4155,-4.4281,-4.4468,-4.4587,-4.4615,-4.472,-4.494,-4.5177,-4.5468,-4.5786,-4.6186,-4.6453,-4.6749,0.0,-4.642,-4.6233,-4.6248,-4.5594,-4.5327,-4.5454,-4.6214,-4.654,-4.6685,-4.7407,-4.7717,-4.7717,0.0,0.0,0.0,0.0,0.0,0.0,0.0,0.0,0.0,0.0,-5.5742,-5.6286,-5.6294,-5.6479,-5.6511,0.0,0.0,0.0,0.0,0.0,0.0,0.0,0.0,0.0,-5.1101,-5.0966,-5.0858,-5.0801,-5.0664,-5.0572,-5.05,-5.1116,-5.1354,-5.1322,-5.2155,-5.2881,-5.3511,-5.3702,-5.418,-5.4811,-5.4995,-5.4994,0.0,0.0,0.0,0.0,-5.4424,-5.4055,0.0,0.0,0.0,0.0,0.0,0.0,0.0,0.0,-5.0341,0.0,-4.9273,0.0,-4.8388,-4.8195,-4.8099,-4.8001,0.0,-4.8001,-4.8001,-4.8001,-4.8001,-4.8001,-4.8001,-4.8001,-4.7968,-4.7787,-4.7787,-4.7721,-4.7637,-4.7604,-4.7671,-4.7754,-4.6632,-4.5806,-4.5798,-4.4622,-4.378,-4.3615,-4.3628,-4.3658,-4.3658,-4.3852,-4.3956,-4.3998,-4.4241,-4.444,-4.4615,-4.472,-4.4886,-4.5059,-4.531,-4.5658,-4.6062,-4.6308,-4.6637,-4.6967,-4.642,-4.6233,-4.6248,-4.5594,-4.5653,-4.625,-4.6432,-4.6884,-4.7446,-4.7645,-4.7717,-4.7717,0.0,0.0,0.0,0.0,0.0,0.0,0.0,0.0,0.0,0.0,0.0,0.0,0.0,0.0,0.0,0.0,0.0,0.0,0.0,0.0,0.0,0.0,0.0,-5.2172,-5.1702,-5.1581,-5.1272,-5.0801,-5.0664,-5.0745,-5.1056,-5.1499,-5.1851,-5.2193,-5.3015,-5.3874,-5.4696,-5.4696,-5.4982,-5.5403,-5.5403,0.0,0.0,0.0,0.0,0.0,-5.4541,-5.4233,0.0,-5.3521,-5.3112,-5.2698,0.0,0.0,0.0,0.0,-5.0564,-5.0189,-4.959,-4.9029,-4.853,-4.826,-4.8115,-4.8001,-4.8001,-4.8001,-4.8001,-4.8001,-4.8001,-4.7968,-4.7886,-4.7853,-4.782,-4.7621,-4.7621,-4.7588,-4.7504,-4.7403,-4.7305,-4.7128,-4.6093,-4.5367,-4.521,-4.42,-4.3539,-4.3598,-4.3598,-4.3598,-4.3598,-4.3687,-4.3793,-4.3898,-4.4056,-4.4241,-4.4468,-4.4626,-4.4793,-4.4913,-4.5177,-4.545,-4.5735,-4.6137,-4.6471,-4.6713,-4.6601,-4.6643,-4.674,-4.6434,-4.6587,-4.7065,-4.7065,-4.7319,-4.7717,-4.7717,-4.7717,-4.7663,0.0,0.0,0.0,0.0,0.0,0.0,0.0,0.0,0.0,0.0,0.0,0.0,0.0,0.0,0.0,0.0,0.0,0.0,0.0,0.0,0.0,0.0,0.0,-5.3422,-5.262,-5.246,-5.1987,-5.1187,-5.0914,-5.1167,-5.1908,-5.189,-5.2349,-5.3225,-5.397,-5.4715,-5.5403,-5.5403,-5.5403,-5.5403,-5.5403,0.0,0.0,0.0,0.0,0.0,0.0,0.0,0.0,-5.3659,-5.3277,-5.2934,-5.2444,0.0,0.0,0.0,0.0,0.0,-4.9825,-4.9243,-4.8656,-4.8324,-4.8115,-4.8001,-4.8001,-4.8001,-4.8001,-4.7968,-4.7968,-4.7902,-4.7704,-4.7638,-4.7588,-4.7436,-4.7369,-4.7335,-4.7335,-4.7149,-4.6888,-4.6339,-4.5636,-4.4997,-4.4479,-4.38,-4.3449,-4.3568,-4.3598,-4.3598,-4.3598,-4.3598,-4.3674,-4.3868,-4.3898,-4.4027,-4.4281,-4.444,-4.4654,-4.4803,-4.5032,-4.523,-4.5415,-4.5912,-4.6211,-4.6381,0.0,0.0,-4.7276,-4.7428,-4.7572,-4.7657,-4.7678,-4.7717,-4.7717,-4.7717,-4.7717,-4.7572,0.0,0.0,0.0,0.0,0.0,0.0,0.0,0.0,0.0,0.0,0.0,0.0,0.0,0.0,0.0,0.0,0.0,0.0,0.0,0.0,0.0,-5.6117,-5.4626,-5.3713,-5.35,-5.3371,-5.3166,-5.2924,-5.2029,-5.2011,-5.2801,-5.2732,-5.3534,-5.5021,-5.5135,-5.5269,-5.5403,-5.5403,-5.5403,-5.5403,-5.5403,0.0,0.0,0.0,0.0,0.0,0.0,0.0,0.0,-5.3699,-5.332,-5.2915,-5.2518,0.0,0.0,0.0,0.0,0.0,-4.9854,-4.932,-4.8861,-4.8547,-4.8244,-4.8001,-4.8001,-4.8001,-4.7968,-4.777,-4.7754,-4.7721,-4.7571,-4.7386,-4.7201,-4.703,-4.6719,-4.6474,-4.6474,-4.6439,-4.6252,-4.5767,-4.5192,-4.4594,-4.4119,-4.3664,-4.3419,-4.3449,-4.3539,-4.3598,-4.3598,-4.3598,-4.3628,-4.3658,-4.3793,-4.3969,-4.4126,-4.4281,-4.448,-4.4803,-4.4831,-4.5059,-4.5415,-4.5709,-4.5988,-4.6259,0.0,-4.7002,-4.707,-4.7381,-4.7511,-4.7533,-4.7657,-4.7717,-4.7717,-4.7717,-4.7717,-4.75,0.0,0.0,0.0,0.0,0.0,0.0,0.0,0.0,0.0,0.0,0.0,0.0,0.0,0.0,0.0,0.0,0.0,0.0,0.0,0.0,0.0,-5.6507,-5.5677,-5.4944,-5.4413,-5.4231,-5.387,-5.331,-5.2729,-5.288,-5.3721,-5.4075,-5.4664,-5.5403,-5.5403,-5.5403,-5.5403,-5.5403,-5.5403,-5.5403,0.0,0.0,0.0,0.0,0.0,0.0,0.0,0.0,0.0,0.0,-5.3422,-5.2987,-5.2613,0.0,0.0,0.0,0.0,0.0,-4.9982,-4.9411,-4.8909,-4.8578,-4.8244,-4.8001,-4.8001,-4.7935,-4.782,-4.7704,-4.7654,-4.7521,-4.7217,-4.7098,-4.6927,-4.6545,-4.612,-4.5905,-4.6012,-4.5623,-4.5183,-4.4729,-4.4111,-4.3604,-4.3264,-4.3079,-4.3099,-4.3372,-4.3462,-4.3522,-4.3598,-4.3598,-4.3598,-4.3598,-4.3687,-4.3822,-4.3998,-4.4126,-4.4355,-4.4709,-4.4765,-4.4923,-4.5177,-4.5468,-4.576,-4.6112,0.0,-4.6795,-4.7002,-4.7276,-4.7428,-4.7511,-4.7657,-4.7717,-4.7663,-4.721,-4.6794,-4.625,0.0,0.0,0.0,0.0,0.0,0.0,0.0,0.0,0.0,0.0,0.0,0.0,0.0,0.0,0.0,0.0,0.0,0.0,0.0,0.0,-5.6507,-5.6507,-5.6437,-5.6053,-5.5307,-5.5103,-5.4643,-5.3898,-5.3496,-5.3633,-5.4257,-5.504,-5.5403,-5.5403,-5.5403,-5.5403,-5.5403,-5.5403,-5.5403,-5.5403,0.0,0.0,0.0,0.0,0.0,0.0,0.0,0.0,0.0,0.0,0.0,0.0,0.0,0.0,0.0,-5.1632,-5.1158,-5.0667,-5.0068,-4.95,-4.897,-4.8578,-4.8244,-4.8001,-4.8001,-4.7853,-4.7671,-4.7654,-4.7487,-4.7251,-4.6842,-4.6668,-4.6388,-4.5905,-4.5436,-4.5144,-4.5269,-4.4616,-4.3961,-4.3482,-4.3049,-4.2729,-4.2414,-4.2508,-4.279,-4.319,-4.3312,-4.3432,-4.3539,-4.3598,-4.3598,-4.3598,-4.3598,-4.3704,-4.3898,-4.3998,-4.4212,-4.4542,-4.4665,-4.4831,-4.4951,-4.523,-4.5572,-4.5938,-4.6211,-4.6566,-4.6911,-4.7143,-4.732,-4.7468,-4.7615,-4.7657,-4.7609,-4.6812,-4.5997,-4.5182,0.0,0.0,0.0,0.0,0.0,0.0,0.0,0.0,0.0,0.0,0.0,0.0,0.0,0.0,0.0,0.0,0.0,0.0,0.0,0.0,-5.6507,-5.6507,-5.6437,-5.63,-5.6117,-5.5986,-5.5843,-5.5702,-5.4707,-5.4161,-5.4135,-5.5002,-5.5403,-5.5403,-5.5403,-5.5403,-5.5403,-5.5403,-5.5403,-5.5403,-5.5403,0.0,0.0,0.0,0.0,0.0,0.0,0.0,0.0,0.0,0.0,0.0,0.0,0.0,-5.218,-5.1658,-5.1158,-5.0667,-5.0068,-4.9543,-4.9077,-4.8593,-4.8244,-4.8001,-4.8001,-4.7853,-4.7671,-4.7537,-4.7217,-4.6807,-4.6442,-4.5961,-4.5468,-4.5061,-4.4458,-4.3965,-4.3781,-4.3319,-4.2729,-4.2031,-4.2357,-4.238,-4.1718,-4.2238,-4.2634,-4.2665,-4.3129,-4.3402,-4.3402,-4.3539,-4.3598,-4.3598,-4.3598,-4.3704,-4.3898,-4.3898,-4.4056,-4.4338,-4.4542,-4.4682,-4.4831,-4.5086,-4.5363,-4.5658,-4.6038,-4.6357,-4.6637,-4.6911,-4.7138,-4.7341,-4.7468,-4.7593,-4.7609,-4.6812,-4.5997,-4.5182,0.0,0.0,0.0,0.0,0.0,0.0,0.0,0.0,0.0,0.0,0.0,0.0,0.0,0.0,0.0,0.0,0.0,0.0,0.0,-5.65,-5.6479,-5.6446,-5.6412,-5.6333,-5.62,-5.6067,-5.5959,-5.5895,-5.533,-5.5004,-5.4925,-5.525,-5.5403,-5.5403,-5.5403,-5.5403,-5.5403,-5.5403,-5.5403,-5.5403,-5.5403,-5.5403,0.0,0.0,0.0,0.0,0.0,0.0,0.0,0.0,-5.3737,-5.3359,0.0,0.0,-5.2204,0.0,-5.1219,-5.0667,-5.0068,-4.923,-4.8395,-4.7939,-4.7258,-4.6821,-4.7125,-4.7029,-4.6684,-4.5961,-4.5614,-4.5261,-4.4763,-4.4129,-4.3655,-4.3494,-4.3036,-4.2683,-4.2624,-4.208,-4.1689,-4.1641,-4.1434,-4.1369,-4.1587,-4.1818,-4.2142,-4.2571,-4.279,-4.3037,-4.3372,-4.3449,-4.3492,-4.3598,-4.3598,-4.3628,-4.3704,-4.3839,-4.3998,-4.4184,-4.4355,-4.4553,-4.4803,-4.4978,-4.5203,-4.5503,-4.5912,-4.6235,-4.6501,-4.6865,-4.7138,-4.7302,-4.7533,-4.7657,-4.7554,-4.6232,-4.5562,-4.511,0.0,0.0,0.0,0.0,0.0,0.0,0.0,0.0,0.0,0.0,0.0,0.0,0.0,0.0,0.0,0.0,0.0,0.0,-5.6496,-5.6496,-5.6474,-5.6393,-5.6377,-5.6315,-5.6199,-5.6043,-5.5941,-5.5875,-5.5596,-5.5427,-5.5403,-5.5403,-5.5403,-5.5403,-5.5403,-5.5403,-5.5403,-5.5403,-5.5403,-5.5403,-5.5403,-5.5403,0.0,0.0,0.0,0.0,0.0,0.0,0.0,0.0,0.0,0.0,0.0,0.0,0.0,0.0,0.0,-5.0344,-4.9762,-4.8752,-4.7721,-4.7228,-4.6581,-4.6065,-4.5941,-4.5978,-4.58,-4.495,-4.4439,-4.4018,-4.3551,-4.2916,-4.2447,-4.2337,-4.1912,-4.1555,-4.1496,-4.0979,-4.0663,-4.0898,-4.0677,-4.0696,-4.1189,-4.1456,-4.1818,-4.2349,-4.2508,-4.2821,-4.3281,-4.3372,-4.3462,-4.3598,-4.3598,-4.3598,-4.3598,-4.3734,-4.3881,-4.4056,-4.4167,-4.4412,-4.4737,-4.4886,-4.5086,-4.5363,-4.5709,-4.6087,-4.6405,-4.6731,-4.703,-4.7302,-4.7554,-4.7512,-4.7174,-4.5798,-4.5146,-4.4729,0.0,0.0,0.0,0.0,0.0,0.0,0.0,0.0,0.0,0.0,0.0,0.0,0.0,0.0,0.0,0.0,0.0,0.0,-5.6496,-5.6496,-5.6474,-5.6393,-5.6336,-5.6272,-5.6199,-5.599,-5.5866,-5.5787,-5.5527,-5.5409,-5.5403,-5.5403,-5.5403,-5.5403,-5.5403,-5.5403,-5.5403,-5.5403,-5.5403,-5.5403,-5.5403,-5.5403,-5.5403,0.0,0.0,0.0,0.0,0.0,0.0,0.0,0.0,0.0,0.0,0.0,0.0,-5.1822,-5.0766,-4.96,-4.9132,-4.8105,-4.7084,-4.6617,-4.6378,-4.5921,-4.4498,-4.4751,-4.5179,-4.4837,-4.4036,-4.3275,-4.2931,-4.2556,-4.2138,-4.1768,-4.1135,-4.0639,-4.0419,-3.9995,-3.9681,-3.9681,-4.0176,-4.0489,-4.0489,-4.1156,-4.167,-4.1866,-4.2334,-4.2743,-4.3082,-4.3281,-4.3462,-4.3598,-4.3598,-4.3598,-4.3598,-4.3598,-4.3704,-4.3898,-4.4027,-4.427,-4.4598,-4.4737,-4.4968,-4.5203,-4.5477,-4.5912,-4.6423,-4.6542,-4.6875,-4.7302,-4.745,-4.7087,-4.6413,-4.5599,-4.4784,-4.3969,0.0,0.0,0.0,0.0,0.0,0.0,0.0,0.0,0.0,0.0,0.0,0.0,0.0,0.0,0.0,0.0,0.0,0.0,-5.6496,-5.6455,-5.6412,-5.6402,-5.6341,-5.6246,-5.6137,-5.5847,-5.5662,-5.5585,-5.5468,-5.5409,-5.5403,-5.5403,-5.5403,-5.5403,-5.5403,-5.5403,-5.5403,-5.5403,-5.5403,-5.5403,-5.5403,-5.5403,-5.5403,0.0,0.0,0.0,0.0,0.0,0.0,0.0,0.0,0.0,0.0,0.0,0.0,-5.1263,-5.0449,-4.9627,-4.8641,-4.7479,-4.6424,-4.5853,-4.5236,-4.4566,-4.3812,-4.4107,-4.4216,-4.3138,-4.2287,-4.171,-4.1453,-4.0999,-4.0588,-4.0356,-4.001,-3.9781,-3.9709,-3.958,-3.9553,-3.9681,-3.9824,-4.0071,-4.0455,-4.0696,-4.107,-4.1637,-4.1947,-4.2302,-4.2728,-4.3021,-4.3265,-4.3432,-4.3568,-4.3598,-4.3598,-4.3598,-4.3704,-4.3898,-4.4027,-4.4212,-4.4412,-4.4665,-4.4886,-4.5086,-4.5336,-4.5709,-4.6161,-4.6661,-4.7053,-4.7302,-4.745,-4.7087,-4.6413,-4.5599,-4.4784,-4.3969,0.0,0.0,0.0,0.0,0.0,0.0,0.0,0.0,0.0,0.0,-5.6606,-5.6584,0.0,0.0,0.0,0.0,0.0,0.0,0.0,-5.6446,-5.6393,-5.6356,-5.631,-5.6175,-5.5977,-5.5726,-5.5551,-5.5468,-5.5415,-5.5403,-5.5403,-5.5403,-5.5403,-5.5403,-5.5403,-5.5371,-5.5326,-5.5326,-5.5326,-5.5326,-5.5326,-5.5358,-5.539,0.0,0.0,0.0,0.0,0.0,0.0,0.0,0.0,0.0,0.0,0.0,0.0,-5.0958,-4.9926,-4.8866,-4.798,-4.6836,-4.5737,-4.5281,-4.4646,-4.3952,-4.3402,-4.3426,-4.3294,-4.2286,-4.1604,-4.1086,-4.0833,-4.0366,-3.9925,-3.9732,-3.9517,-3.9373,-3.9301,-3.9265,-3.9337,-3.943,-3.9553,-3.9732,-4.0141,-4.0385,-4.073,-4.1256,-4.1604,-4.2012,-4.2508,-4.2743,-4.3052,-4.3372,-4.3479,-4.3539,-4.3598,-4.3598,-4.3658,-4.3763,-4.3939,-4.4097,-4.4224,-4.4581,-4.4776,-4.4923,-4.5389,-4.5786,-4.6211,-4.6708,-4.7048,-4.7236,-4.7061,-4.6555,-4.5845,-4.509,-4.4313,-4.3534,0.0,0.0,0.0,0.0,0.0,0.0,0.0,0.0,0.0,0.0,-5.6582,-5.6577,0.0,0.0,0.0,0.0,0.0,0.0,0.0,0.0,-5.6358,-5.6302,-5.62,-5.6043,-5.5797,-5.5651,-5.5527,-5.5408,-5.539,-5.539,-5.539,-5.539,-5.539,-5.5358,-5.5358,-5.5294,-5.5183,-5.5183,-5.5183,-5.5183,-5.5183,-5.5248,-5.5358,-5.5248,0.0,0.0,0.0,0.0,0.0,0.0,0.0,0.0,-5.3189,-5.2261,-5.1288,-5.0682,-4.924,-4.7734,-4.7241,-4.6213,-4.5177,-4.4886,-4.444,-4.3923,-4.3295,-4.2898,-4.2523,-4.2174,-4.1687,-4.1223,-4.0867,-4.0366,-3.996,-3.9717,-3.9517,-3.9337,-3.9141,-3.9104,-3.9104,-3.9068,-3.9265,-3.9445,-3.9646,-4.0141,-4.0524,-4.0765,-4.1256,-4.1785,-4.2318,-4.2508,-4.2852,-4.3342,-4.3372,-4.3462,-4.3598,-4.3598,-4.3598,-4.3598,-4.3793,-4.3969,-4.4097,-4.4429,-4.4654,-4.4858,-4.5477,-4.5988,-4.6381,-4.6661,-4.6898,-4.6999,-4.641,-4.5711,-4.4931,-4.4328,-4.3588,-4.2901,0.0,0.0,0.0,0.0,0.0,0.0,0.0,0.0,0.0,0.0,0.0,0.0,0.0,0.0,0.0,0.0,0.0,0.0,0.0,0.0,-5.6327,-5.6304,-5.604,-5.5827,-5.5724,-5.5539,-5.5432,-5.5408,-5.539,-5.5358,-5.5229,-5.5229,-5.5203,-5.5168,-5.5168,-5.5154,-5.5121,-5.5121,-5.5121,-5.5121,-5.5121,-5.5135,-5.5168,-5.5121,-5.508,0.0,0.0,0.0,0.0,0.0,0.0,0.0,-5.2625,-5.1886,-5.1092,-4.9568,-4.8657,-4.7891,-4.6852,-4.611,-4.5572,-4.5086,-4.444,-4.3852,-4.3552,-4.3235,-4.282,-4.2238,-4.1785,-4.139,-4.0885,-4.0439,-4.0056,-3.9753,-3.9517,-3.9337,-3.9141,-3.9104,-3.9031,-3.887,-3.9031,-3.925,-3.9445,-3.9717,-4.0071,-4.0524,-4.0969,-4.1439,-4.1996,-4.2381,-4.2774,-4.3143,-4.3312,-4.3462,-4.3598,-4.3598,-4.3598,-4.3598,-4.3793,-4.3969,-4.4097,-4.4281,-4.4592,-4.4995,-4.5336,-4.5709,-4.6112,-4.6398,-4.6312,-4.6096,-4.6068,-4.5285,-4.4209,-4.4068,-4.3549,-4.2901,0.0,0.0,0.0,0.0,0.0,0.0,0.0,0.0,0.0,0.0,0.0,0.0,0.0,0.0,0.0,0.0,0.0,0.0,0.0,0.0,-5.6265,-5.6168,-5.5893,-5.5717,-5.5651,-5.5492,-5.5371,-5.5288,-5.5301,-5.5261,-5.5197,-5.5176,-5.5135,-5.5094,-5.5094,-5.508,-5.5038,-5.5028,-5.5,-5.5,-5.4971,-5.5,-5.5057,-5.5014,-5.5,-5.4985,-5.4931,0.0,0.0,0.0,0.0,0.0,0.0,0.0,-5.0635,-4.9199,-4.8295,-4.7538,-4.672,-4.6211,-4.5735,-4.5025,-4.448,-4.401,-4.3687,-4.3325,-4.2959,-4.2429,-4.2029,-4.1604,-4.1122,-4.0646,-4.0231,-3.991,-3.9661,-3.9445,-3.9141,-3.9104,-3.9017,-3.8819,-3.898,-3.9141,-3.9265,-3.9553,-3.9874,-4.0226,-4.0696,-4.1138,-4.1587,-4.2093,-4.2571,-4.3007,-4.319,-4.3372,-4.3598,-4.3598,-4.3598,-4.3598,-4.3704,-4.3881,-4.4097,-4.4327,-4.4609,-4.4913,-4.5177,-4.5321,-4.5354,-4.5659,-4.5534,-4.5147,-4.4904,-4.4387,-4.378,-4.3522,-4.3183,-4.2861,0.0,0.0,0.0,0.0,0.0,0.0,0.0,0.0,0.0,0.0,0.0,0.0,0.0,0.0,0.0,0.0,0.0,0.0,0.0,0.0,0.0,-5.5968,-5.5778,-5.566,-5.5562,-5.5444,-5.532,-5.5197,-5.5189,-5.5176,-5.5157,-5.5107,-5.5066,-5.5052,-5.5052,-5.5028,-5.4956,-5.4886,-5.4875,-5.4856,-5.4799,-5.486,-5.4941,-5.4886,-5.4901,-5.4927,-5.4829,-5.472,-5.459,0.0,0.0,0.0,0.0,0.0,-5.0013,-4.9001,-4.8013,-4.7133,-4.6772,-4.6308,-4.5768,-4.5008,-4.4586,-4.4224,-4.3818,-4.3446,-4.3082,-4.2743,-4.2302,-4.1817,-4.1423,-4.0919,-4.0455,-4.0137,-3.9874,-3.9574,-3.9213,-3.9104,-3.9017,-3.8819,-3.898,-3.9104,-3.9104,-3.943,-3.9732,-3.996,-4.047,-4.0919,-4.129,-4.1818,-4.2349,-4.2868,-4.3021,-4.3265,-4.3598,-4.3598,-4.3598,-4.3598,-4.3628,-4.3805,-4.4097,-4.4429,-4.4654,-4.4803,-4.4922,-4.4811,-4.4545,-4.4778,-4.4595,-4.4174,-4.3668,-4.3417,-4.3325,-4.292,-4.2783,-4.2803,0.0,0.0,0.0,0.0,0.0,0.0,0.0,0.0,0.0,0.0,-5.6412,-5.6407,0.0,0.0,0.0,0.0,0.0,0.0,0.0,0.0,0.0,-5.5737,-5.5651,-5.5551,-5.5432,-5.5307,-5.5229,-5.5197,-5.508,-5.5028,-5.5028,-5.5028,-5.4985,-5.4931,-5.4875,-5.4845,-5.4829,-5.4771,-5.4739,-5.4739,-5.4723,-5.472,-5.4736,-5.472,-5.472,-5.4736,-5.4705,-5.4592,-5.4313,-5.3444,-5.29,0.0,0.0,0.0,-4.9175,-4.8213,-4.7633,-4.7232,-4.7002,-4.6405,-4.5735,-4.5398,-4.4889,-4.4435,-4.4236,-4.3848,-4.3432,-4.3113,-4.2523,-4.1948,-4.1621,-4.1122,-4.0696,-4.047,-4.0001,-3.961,-3.9373,-3.9228,-3.9017,-3.8819,-3.898,-3.9104,-3.9104,-3.9301,-3.9604,-3.996,-4.0331,-4.0749,-4.129,-4.1818,-4.2349,-4.2868,-4.3021,-4.3265,-4.3598,-4.3598,-4.3598,-4.3598,-4.3763,-4.3939,-4.4097,-4.427,-4.4508,-4.4769,-4.4285,-4.4164,-4.4318,-4.4014,-4.3553,-4.3052,-4.3261,-4.2974,-4.2491,-4.2586,-4.2706,-4.2803,0.0,0.0,0.0,0.0,0.0,0.0,0.0,0.0,0.0,0.0,0.0,-5.6296,0.0,0.0,0.0,0.0,0.0,0.0,0.0,0.0,0.0,-5.5714,-5.5562,-5.5468,-5.5408,-5.5281,-5.517,-5.5149,-5.5057,-5.4709,-5.4147,-5.4147,-5.4132,-5.4107,-5.4003,-5.3676,-5.3223,-5.3115,-5.3085,-5.3069,-5.3036,-5.3036,-5.3085,-5.3085,-5.3099,-5.3131,-5.3102,-5.3019,-5.2863,-5.228,-5.1936,-5.1491,-5.0212,0.0,0.0,0.0,-4.7666,-4.7341,-4.707,-4.6518,-4.5963,-4.5684,-4.5266,-4.4824,-4.4491,-4.4064,-4.3641,-4.3432,-4.2836,-4.2238,-4.185,-4.1472,-4.1088,-4.0593,-4.0281,-4.0036,-3.9783,-3.9553,-3.9358,-3.9141,-3.9228,-3.9228,-3.9104,-3.9265,-3.9568,-3.9975,-4.0296,-4.0696,-4.1153,-4.1753,-4.2302,-4.2728,-4.2959,-4.3265,-4.3598,-4.3598,-4.3598,-4.3598,-4.3793,-4.3969,-4.408,-4.3804,-4.3816,-4.402,-4.3834,-4.3442,-4.29,-4.2802,-4.2498,-4.2153,-4.2379,-4.236,-4.2225,-4.2447,-4.2607,-4.2688,0.0,0.0,0.0,0.0,0.0,0.0,0.0,0.0,0.0,0.0,0.0,0.0,0.0,0.0,0.0,0.0,0.0,0.0,0.0,0.0,0.0,-5.5618,-5.548,-5.5383,-5.5358,-5.5223,-5.5149,-5.5066,-5.4805,-5.4272,-5.349,-5.3237,-5.2999,-5.2779,-5.2897,-5.2537,-5.1888,-5.1778,-5.1712,-5.1678,-5.1645,-5.1663,-5.1695,-5.1695,-5.1729,-5.1778,-5.1712,-5.1678,-5.1589,-5.1173,-5.0935,-5.0657,-4.9655,-4.9145,0.0,0.0,0.0,-4.7363,-4.707,-4.6661,-4.6235,-4.5963,-4.5606,-4.5177,-4.4725,-4.4276,-4.3919,-4.3641,-4.319,-4.2696,-4.2174,-4.1801,-4.1423,-4.0867,-4.0662,-4.0455,-4.0172,-3.9945,-3.9753,-3.9553,-3.9496,-3.9409,-3.925,-3.9373,-3.9625,-3.996,-4.0366,-4.073,-4.1135,-4.1768,-4.227,-4.2665,-4.2959,-4.3265,-4.3598,-4.3598,-4.3598,-4.3598,-4.3763,-4.391,-4.4023,-4.3412,-4.3115,-4.3078,-4.3098,-4.2594,-4.1704,-4.1712,-4.1608,-4.1493,-4.167,-4.1888,-4.21,-4.2364,-4.2508,-4.2629,0.0,0.0,0.0,0.0,0.0,0.0,0.0,0.0,0.0,0.0,0.0,0.0,-5.6001,-5.6001,-5.6001,-5.602,0.0,0.0,0.0,0.0,0.0,-5.5432,-5.5408,0.0,-5.521,-5.5149,-5.5066,-5.5014,-5.4168,-5.3678,-5.3475,-5.251,-5.1648,-5.0873,-5.1644,-5.1846,-5.1622,-5.1556,-5.1487,-5.1415,-5.1434,-5.1434,-5.1415,-5.1415,-5.1415,-5.1434,-5.1415,-5.1342,-5.1102,-5.0324,-4.9954,-4.9617,-4.8675,-4.8225,-4.8045,0.0,0.0,0.0,-4.7048,-4.6778,-4.6501,-4.6235,-4.5887,-4.5477,-4.5059,-4.4714,-4.4305,-4.37,-4.3568,-4.3342,-4.2696,-4.2045,-4.1588,-4.1555,-4.1122,-4.0696,-4.0489,-4.0301,-4.0126,-3.9996,-3.9803,-3.9681,-3.9661,-3.9696,-3.9768,-3.996,-4.0505,-4.0935,-4.1256,-4.1818,-4.2333,-4.2868,-4.3021,-4.3265,-4.3598,-4.3598,-4.3598,-4.3598,-4.3598,-4.3734,-4.3894,-4.3287,-4.2718,-4.2149,-4.1714,-4.1486,-4.1393,-4.1088,-4.1017,-4.1163,-4.1471,-4.1776,-4.203,-4.2243,-4.243,-4.2629,0.0,0.0,0.0,0.0,0.0,0.0,0.0,0.0,0.0,0.0,0.0,0.0,0.0,-5.5933,-5.5933,-5.5933,-5.5837,0.0,0.0,0.0,0.0,-5.5408,-5.5396,-5.5333,-5.5197,-5.5135,-5.4818,-5.4221,-5.3802,-5.2949,-5.1756,-5.1347,-5.0593,-4.9579,-5.0398,-5.0421,-4.9868,-4.9691,-4.962,-4.9602,-4.9602,-4.9602,-4.9602,-4.9602,-4.9602,-4.9602,-4.9602,-4.9566,-4.9473,-4.9141,-4.8993,-4.8843,-4.8396,-4.813,-4.7972,-4.7822,-4.7615,-4.7385,-4.7232,-4.7048,-4.6772,-4.6423,-4.6161,-4.5862,-4.5363,-4.5042,-4.4686,-4.4265,-4.3877,-4.3539,-4.3281,-4.268,-4.2158,-4.185,-4.1505,-4.1256,-4.1055,-4.0749,-4.0509,-4.0331,-4.0126,-4.0001,-3.991,-3.9889,-4.0016,-4.0296,-4.0627,-4.0987,-4.1456,-4.1883,-4.2349,-4.2868,-4.3021,-4.3265,-4.3598,-4.3598,-4.3598,-4.3598,-4.3598,-4.3455,-4.3165,-4.2489,-4.1887,-4.1375,-4.0712,-4.0527,-4.0687,-4.0678,-4.0776,-4.1006,-4.1335,-4.1626,-4.1905,-4.21,-4.2351,-4.2609,0.0,0.0,0.0,0.0,0.0,0.0,0.0,0.0,0.0,-5.5775,0.0,0.0,0.0,0.0,-5.5775,-5.5775,-5.5692,-5.5596,-5.5539,-5.5456,-5.5395,-5.5409,-5.5365,-5.528,-5.5176,-5.4827,-5.4344,-5.3694,-5.3005,-5.2005,-5.0751,-5.0394,-4.9735,-4.8927,-4.9323,-4.9232,-4.875,-4.8587,-4.8495,-4.8458,-4.842,-4.8402,-4.8402,-4.8458,-4.8458,-4.8476,-4.8476,-4.8495,-4.8495,-4.8419,-4.8399,-4.8362,-4.8166,-4.8008,-4.7868,-4.7741,-4.7615,-4.749,-4.7385,-4.7227,-4.6998,-4.6684,-4.6429,-4.6161,-4.5709,-4.5363,-4.5042,-4.4742,-4.4265,-4.3848,-4.37,-4.3281,-4.2759,-4.2206,-4.1931,-4.172,-4.1538,-4.1256,-4.0987,-4.0783,-4.0543,-4.037,-4.0261,-4.0261,-4.0366,-4.0593,-4.0885,-4.1256,-4.167,-4.2029,-4.2445,-4.2945,-4.3143,-4.3372,-4.3598,-4.3598,-4.3598,-4.3598,-4.3598,-4.3276,-4.2663,-4.2021,-4.1437,-4.0891,-4.0195,-4.0028,-4.0238,-4.0436,-4.0631,-4.0864,-4.1203,-4.152,-4.1823,-4.1995,-4.2287,-4.2609,0.0,0.0,0.0,0.0,0.0,0.0,0.0,0.0,-5.5504,-5.5504,0.0,0.0,0.0,0.0,0.0,-5.5504,-5.5492,-5.5468,-5.5408,-5.5395,-5.5377,-5.539,0.0,0.0,-5.5056,-5.4206,-5.3656,-5.3433,-5.1792,-5.0885,-5.0635,-4.9653,-4.9079,-4.8874,-4.8476,-4.8363,-4.8494,-4.8343,-4.8267,-4.8187,-4.805,-4.7992,-4.8012,-4.813,-4.8187,-4.8207,-4.8267,-4.8287,-4.8287,-4.8226,-4.8187,-4.8166,-4.7963,-4.7819,-4.7717,-4.7717,-4.7615,-4.7511,0.0,0.0,0.0,-4.7043,-4.6708,-4.6332,-4.6062,-4.5709,-4.5336,-4.5059,-4.4742,-4.4361,-4.3919,-4.37,-4.3402,-4.2743,-4.2333,-4.2093,-4.1931,-4.1736,-4.1555,-4.1357,-4.1021,-4.0833,-4.0833,-4.0833,-4.0833,-4.0833,-4.1323,-4.1703,-4.1898,-4.2238,-4.2618,-4.3096,-4.3432,-4.3598,-4.3598,-4.3598,-4.3598,-4.3598,-4.3582,-4.3168,-4.244,-4.1915,-4.1321,-4.0742,-4.0152,-3.9961,-4.0121,-4.0395,-4.0583,-4.0721,-4.1088,-4.1436,-4.1819,-4.1945,-4.2243,-4.2609,0.0,0.0,0.0,0.0,0.0,0.0,-5.5527,-5.5516,-5.5504,0.0,0.0,0.0,-5.5504,-5.5504,-5.548,-5.5432,-5.5383,-5.5333,-5.5249,-5.5216,-5.5176,-5.5181,-5.4596,-5.4218,-5.4168,-5.3262,-5.2438,-5.1697,-5.1081,-5.0388,-4.9615,-4.9191,-4.8803,-4.8458,-4.8344,-4.8229,-4.8149,-4.8092,-4.8072,-4.805,-4.8012,-4.7992,-4.8012,-4.8032,-4.807,-4.807,-4.8072,-4.8092,-4.8072,-4.8052,-4.807,-4.803,-4.7925,-4.7819,-4.7717,0.0,0.0,0.0,-4.7533,0.0,0.0,0.0,0.0,0.0,-4.6235,-4.5988,-4.5735,-4.5363,-4.5069,-4.4742,-4.4361,-4.4138,-4.3848,-4.3535,-4.3021,-4.2602,-4.2413,-4.2286,-4.2061,-4.1752,-4.1653,-4.1554,-4.139,-4.139,-4.1439,0.0,-4.1719,-4.1947,-4.2238,-4.268,-4.3021,-4.3312,-4.3492,-4.3598,-4.3598,-4.3598,-4.3598,-4.3582,-4.3052,-4.2406,-4.1662,-4.1067,-4.0484,-4.0005,-3.983,-3.9884,-4.0121,-4.0395,-4.0534,-4.0607,-4.1024,-4.1386,-4.167,-4.1902,-4.2243,-4.2609,0.0,0.0,0.0,0.0,0.0,-5.5371,-5.5345,-5.5326,-5.5326,0.0,0.0,0.0,-5.5326,-5.5326,-5.532,-5.5281,-5.4937,-5.4707,-5.4661,-5.4284,-5.4047,-5.4047,-5.3582,-5.3294,-5.321,-5.2305,-5.1508,-5.087,-5.0394,-4.9776,-4.9062,-4.8873,-4.8587,-4.8287,-4.8189,-4.8068,-4.7947,-4.7888,-4.7909,-4.7947,-4.7888,-4.7868,-4.7888,-4.7947,-4.7968,-4.7968,-4.7992,-4.7992,-4.7992,-4.797,-4.7909,-4.7868,-4.7822,-4.7759,-4.7717,0.0,0.0,0.0,0.0,0.0,0.0,-4.6197,0.0,0.0,-4.5564,-4.5351,-4.5117,-4.4821,-4.456,-4.4353,-4.4296,-4.4118,-4.3968,-4.4013,-4.3713,-4.3372,-4.2976,-4.2759,-4.2556,-4.235,-4.2174,-4.2077,-4.1964,-4.1851,-4.1866,-4.198,-4.2045,-4.227,-4.2587,-4.3007,-4.3281,-4.3402,-4.3539,-4.3598,-4.3598,-4.3598,-4.3598,-4.3582,-4.2837,-4.2092,-4.1392,-4.0696,-4.013,-3.9703,-3.9703,-3.9841,-4.0121,-4.0395,-4.0534,-4.0631,-4.1047,-4.1408,-4.1714,-4.1923,-4.224,-4.2568,0.0,0.0,0.0,-5.5281,-5.5216,-5.5162,-5.508,-5.508,-5.508,0.0,-5.508,-5.5042,-5.4947,-5.4928,-5.4909,-5.4813,-5.4134,-5.3715,-5.3715,-5.2992,-5.2561,-5.2561,-5.2398,-5.229,-5.2219,-5.13,-5.0738,-5.0541,-4.9743,-4.9193,-4.8891,-4.8678,-4.8458,-4.8248,0.0,0.0,-4.7861,-4.7759,-4.7759,-4.7861,-4.7759,-4.7717,-4.7699,-4.784,-4.7881,-4.7881,-4.7949,-4.7972,-4.797,-4.7884,-4.7819,-4.7717,-4.7717,-4.7645,-4.7572,0.0,-4.7011,0.0,0.0,0.0,0.0,0.0,-4.4814,0.0,-4.4529,-4.4306,-4.4101,-4.3962,-4.3726,-4.3627,-4.3907,-4.3819,-4.3829,-4.4097,-4.421,-4.4066,-4.3505,-4.319,-4.2992,-4.2961,-4.2696,-4.2508,-4.2476,-4.2302,-4.2206,-4.2206,-4.2365,-4.2634,-4.293,-4.3237,-4.3419,-4.3402,-4.3539,-4.3598,-4.3598,-4.3598,-4.3549,-4.3466,-4.2721,-4.1993,-4.1276,-4.058,-4.0074,-3.9703,-3.9703,-3.9858,-4.0121,-4.0412,-4.0583,-4.0721,-4.1088,-4.1453,-4.1819,-4.1945,-4.2216,-4.2503,0.0,0.0,0.0,-5.5085,-5.5057,-5.5014,-5.4941,-5.4946,-5.4946,-5.4946,-5.4946,-5.4661,-5.3974,-5.3879,-5.3632,-5.2987,-5.2722,-5.2603,-5.2603,-5.2408,-5.2284,-5.2284,-5.1593,-5.1189,-5.1119,-5.018,-4.9674,-4.9565,-4.9204,-4.8943,-4.8822,-4.8495,-4.8248,-4.8052,0.0,0.0,-4.7738,-4.7717,-4.7717,-4.7738,-4.7717,-4.7717,-4.7699,-4.7738,-4.7738,-4.7738,-4.7741,-4.7762,-4.7762,-4.7738,-4.7717,-4.7717,0.0,0.0,0.0,-4.6739,0.0,0.0,0.0,0.0,0.0,-4.507,-4.4923,0.0,-4.4603,-4.4507,-4.4369,-4.4101,-4.3939,-4.3761,-4.3627,-4.3479,-4.3355,-4.3202,-4.3574,-4.387,-4.3748,-4.3654,-4.3535,-4.3312,-4.3251,-4.316,-4.299,-4.2929,-4.2912,-4.2912,-4.2943,-4.3052,-4.3281,-4.3342,-4.3449,-4.3568,-4.3598,-4.3598,-4.3598,-4.3598,-4.33,-4.2704,-4.196,-4.1259,-4.0591,-3.9846,-3.9591,-3.9703,-3.9703,-3.991,-4.0263,-4.0436,-4.0583,-4.0721,-4.1088,-4.1453,-4.1819,-4.1945,-4.2216,-4.2503,0.0,0.0,0.0,-5.4818,-5.4773,-5.473,-5.467,-5.4654,-5.4654,-5.4654,-5.4258,-5.3689,-5.2839,-5.2745,-5.2594,-5.2179,-5.1737,-5.1496,-5.1496,-5.1054,-5.0813,-5.0813,-5.0383,-5.0127,-5.0053,-4.9562,-4.9225,-4.9094,-4.8926,-4.875,-4.855,-4.8343,-4.813,-4.7947,0.0,-4.7738,-4.7615,-4.7615,-4.7554,-4.7511,-4.7636,-4.7657,-4.7615,-4.7615,-4.7337,-4.6952,-4.6997,-4.6786,-4.6504,-4.6504,-4.6504,0.0,-4.6504,-4.6232,-4.5906,0.0,-4.5327,-4.4693,0.0,0.0,0.0,-4.3958,-4.3876,0.0,0.0,-4.3546,-4.3455,-4.3247,-4.3098,-4.3027,-4.3162,-4.3162,-4.3119,-4.3178,-4.3457,-4.3726,-4.3963,-4.4097,-4.4076,-4.386,-4.3789,-4.3671,-4.3476,-4.3325,-4.3204,-4.3113,-4.3204,-4.3295,-4.3372,-4.3462,-4.3539,-4.3598,-4.3598,-4.3598,-4.3598,-4.3598,-4.3218,-4.2473,-4.1728,-4.1044,-4.0376,-3.9647,-3.9458,-3.9703,-3.9703,-3.9935,-4.033,-4.0527,-4.0721,-4.0929,-4.118,-4.156,-4.1905,-4.2012,-4.2202,-4.2407,0.0,0.0,0.0,-5.4549,-5.447,-5.4405,-5.4321,-5.4304,-5.4231,-5.4062,-5.3312,-5.2467,-5.1642,-5.1549,-5.1492,-5.1342,-5.0743,-5.0352,-5.0352,-4.9696,-4.9305,-4.9305,-4.9305,-4.9273,-4.9211,-4.9146,-4.9012,-4.8821,-4.8732,0.0,0.0,0.0,0.0,-4.7881,0.0,-4.7615,-4.7511,-4.7468,-4.7407,-4.732,-4.7511,-4.7551,-4.745,-4.7306,-4.6812,-4.619,-4.6095,-4.5691,-4.5249,-4.5249,-4.5249,-4.5249,-4.5269,-4.518,0.0,0.0,0.0,0.0,0.0,0.0,0.0,0.0,-4.2803,-4.2764,0.0,0.0,0.0,-4.2369,-4.2246,-4.2278,-4.2705,-4.2741,-4.2818,-4.312,-4.3299,-4.3499,-4.3867,-4.4154,-4.4374,-4.4446,-4.4338,-4.4167,-4.3919,-4.3671,-4.3462,-4.3265,-4.3402,-4.3479,-4.3432,-4.3539,-4.3598,-4.3598,-4.3598,-4.3598,-4.3598,-4.3449,-4.3019,-4.2274,-4.1558,-4.0845,-4.0177,-3.9564,-3.9458,-3.9703,-3.9703,-3.9935,-4.0355,-4.06,-4.0864,-4.1123,-4.1358,-4.1666,-4.2005,-4.2079,-4.2166,-4.2308,-5.4424,-5.4441,0.0,0.0,0.0,0.0,0.0,0.0,-5.3609,-5.2902,-5.2102,-5.1265,-5.039,-5.0297,-5.0018,-4.9294,-4.9164,-4.9108,-4.9108,-4.8998,-4.896,-4.896,-4.896,-4.8926,-4.8857,-4.884,-4.8751,-4.855,-4.842,0.0,0.0,0.0,0.0,0.0,-4.7636,-4.7511,-4.749,-4.7385,-4.7302,-4.7298,-4.7267,-4.7272,0.0,-4.6604,-4.6298,-4.6097,-4.5399,-4.5093,-4.5042,0.0,-4.5042,-4.5063,0.0,-4.4716,-4.4159,-4.4221,0.0,0.0,0.0,0.0,0.0,0.0,-4.2842,-4.2802,-4.2783,0.0,-4.2589,-4.257,0.0,-4.2302,-4.2353,0.0,0.0,-4.1983,-4.2542,-4.2949,-4.2882,-4.3393,-4.4066,-4.4824,-4.4896,-4.4731,-4.431,-4.4109,-4.3952,-4.3822,-4.3839,-4.3763,-4.3598,-4.3598,-4.3598,-4.3598,-4.3598,-4.3598,-4.3598,-4.2936,-4.2241,-4.1524,-4.0829,-4.0144,-3.9431,-3.9332,-3.9458,-3.9703,-3.9703,-4.0011,-4.0485,-4.0648,-4.0894,-4.1209,-4.1493,-4.1754,-4.2005,-4.2079,-4.2166,-4.2308,-5.3813,-5.4036,0.0,0.0,0.0,0.0,0.0,-5.2547,-5.1935,-5.1026,-5.0694,-5.0194,-4.9324,-4.9231,-4.9084,-4.875,-4.8732,-4.8732,-4.8732,-4.8732,-4.8732,-4.8732,-4.8697,-4.8661,-4.8643,-4.8513,-4.8419,-4.8342,-4.8189,0.0,0.0,0.0,0.0,0.0,-4.7554,-4.7425,-4.7312,-4.7183,-4.7075,-4.6972,0.0,-4.6184,0.0,-4.5927,-4.5293,-4.4421,-4.3596,-4.3394,-4.3496,0.0,-4.3537,0.0,0.0,0.0,0.0,-4.3213,0.0,0.0,0.0,0.0,0.0,0.0,0.0,0.0,-4.2861,0.0,-4.2725,0.0,0.0,0.0,0.0,0.0,0.0,0.0,-4.2346,-4.2654,-4.29,-4.3163,-4.3705,-4.4672,-4.4725,0.0,-4.4708,-4.4463,-4.4281,-4.4155,-4.3998,-4.3868,-4.3763,-4.3658,-4.3598,-4.3598,-4.3598,-4.3598,-4.3598,-4.2853,-4.2109,-4.1409,-4.0713,-4.0011,-3.9299,-3.9379,-3.9511,-3.9703,-3.9841,-4.0163,-4.0534,-4.0817,-4.1082,-4.134,-4.171,-4.1902,-4.2026,-4.2163,-4.2246,-4.2308,-5.2596,0.0,0.0,0.0,-5.2799,-5.2556,-5.1884,-5.109,-5.0334,-4.9648,-4.9469,-4.9139,-4.8513,-4.8439,-4.8439,-4.8439,-4.8439,-4.8439,-4.8439,-4.8439,-4.8439,-4.8439,-4.8401,-4.8362,-4.8362,-4.8226,-4.8128,-4.8126,-4.8028,0.0,0.0,0.0,0.0,0.0,-4.7425,-4.7312,-4.7116,-4.6806,-4.6562,-4.6312,-4.5411,-4.4829,-4.4525,-4.4756,-4.3997,-4.2757,-4.2211,-4.2103,-4.2249,-4.2287,-4.2348,0.0,-4.247,0.0,-4.247,0.0,0.0,0.0,-4.255,0.0,0.0,0.0,0.0,0.0,0.0,0.0,0.0,0.0,0.0,0.0,0.0,0.0,0.0,0.0,0.0,-4.2504,0.0,-4.2892,-4.3262,-4.4345,-4.4501,0.0,0.0,-4.4732,-4.4586,-4.4378,-4.4167,-4.4027,-4.3898,-4.3763,-4.3658,-4.3598,-4.3598,-4.3598,-4.3598,-4.2655,-4.1926,-4.1409,-4.0514,-3.9829,-3.9299,-3.9448,-3.9563,-3.9729,-3.9969,-4.0271,-4.0583,-4.0953,-4.1238,-4.1493,-4.1858,-4.2026,-4.2051,-4.2225,-4.2308,-4.2308,-5.0447,-5.0675,0.0,-5.0879,-5.078,-5.0641,-5.0498,-4.9781,-4.9252,-4.9234,-4.8541,-4.8048,-4.8012,-4.8012,-4.8012,-4.8012,-4.8012,-4.8012,-4.8012,-4.8012,-4.8012,-4.8012,-4.8012,-4.8012,-4.8012,-4.8012,-4.797,-4.7902,-4.792,0.0,0.0,0.0,0.0,0.0,-4.7245,-4.7133,-4.6944,-4.61,-4.5579,-4.5282,-4.4325,-4.336,-4.2509,0.0,-4.2386,-4.1661,-4.1758,0.0,0.0,-4.1966,-4.2026,0.0,0.0,0.0,0.0,0.0,0.0,0.0,0.0,0.0,0.0,-4.2764,0.0,0.0,0.0,0.0,-4.29,0.0,0.0,0.0,0.0,0.0,0.0,0.0,0.0,0.0,0.0,0.0,-4.2764,-4.3966,-4.4397,0.0,0.0,-4.4835,-4.4988,-4.453,-4.4474,-4.4293,-4.3927,-4.3898,-4.3793,-4.3598,-4.3598,-4.3598,-4.3598,-4.2142,-4.1425,-4.1364,-4.0011,-3.9315,-3.9299,-3.9448,-3.9563,-3.9729,-3.9969,-4.0337,-4.0721,-4.0976,-4.1301,-4.1626,-4.188,-4.2034,-4.2103,-4.2246,-4.2308,-4.2308,0.0,0.0,0.0,-5.011,-5.0292,-5.0028,-4.9372,-4.8669,-4.8182,-4.8079,-4.7925,-4.7804,-4.7804,-4.7804,-4.7804,-4.7804,-4.7804,-4.7804,-4.7804,-4.7804,-4.7804,-4.7804,-4.7723,-4.7663,-4.7663,-4.7582,-4.7536,-4.7511,-4.7511,0.0,0.0,0.0,0.0,0.0,0.0,-4.6626,-4.5852,0.0,0.0,0.0,0.0,-4.2002,-4.1291,0.0,-4.1516,-4.134,-4.1353,-4.142,0.0,-4.16,-4.1666,-4.1732,-4.1758,-4.1845,-4.1909,-4.1952,-4.2055,0.0,0.0,0.0,-4.2409,-4.245,0.0,0.0,0.0,0.0,0.0,0.0,0.0,0.0,0.0,0.0,0.0,0.0,0.0,0.0,0.0,0.0,-4.256,-4.2871,-4.3701,-4.4406,0.0,-4.4781,-4.4872,-4.5072,-4.479,-4.453,-4.4293,-4.4039,-4.3868,-4.3793,-4.3658,-4.3598,-4.3598,-4.2125,-4.1409,-4.1364,-3.9951,-3.9299,-3.9299,-3.9537,-3.9668,-3.9729,-4.0171,-4.0485,-4.0721,-4.1035,-4.1386,-4.1736,-4.1923,-4.2094,-4.2246,-4.2287,-4.2308,-4.2308,-4.7272,-4.7116,-4.7415,-4.882,-4.9027,-4.878,-4.8187,-4.7727,-4.7421,-4.7338,-4.7399,-4.7443,-4.7443,-4.7443,-4.7443,-4.7443,-4.7443,-4.7443,-4.7443,-4.7486,-4.7508,-4.7508,-4.7468,-4.7428,-4.7428,-4.7323,-4.7302,-4.7302,-4.7302,-4.7298,0.0,0.0,0.0,0.0,0.0,-4.5964,-4.517,-4.4442,-4.372,0.0,0.0,-4.1043,0.0,0.0,-4.0871,-4.0954,0.0,-4.1029,-4.1152,-4.1198,-4.1312,-4.142,-4.142,-4.1493,-4.1587,-4.1587,-4.167,-4.1793,-4.1858,-4.1991,0.0,-4.2267,-4.245,0.0,-4.2725,0.0,-4.2862,0.0,0.0,0.0,0.0,0.0,0.0,0.0,0.0,0.0,0.0,-4.2588,0.0,0.0,-4.3233,-4.4047,-4.4624,-4.4725,-4.495,-4.5503,-4.5169,-4.4845,-4.4569,-4.4281,-4.4056,-4.3898,-4.3763,-4.3542,-4.3201,-4.1993,-4.1293,-4.1028,-3.9862,-3.9299,-3.9299,-3.9573,-3.9703,-3.9729,-4.0288,-4.0607,-4.0793,-4.1071,-4.1475,-4.1862,-4.1984,-4.2136,-4.2308,-4.2308,-4.2308,-4.2308,-4.6819,-4.6661,-4.6684,-4.7066,-4.7043,-4.6957,-4.6957,-4.6957,-4.6957,-4.6957,-4.6957,-4.6957,-4.6957,-4.6957,-4.6957,-4.6957,-4.6957,-4.6957,-4.6957,-4.7088,-4.7156,-4.7174,-4.7232,-4.7276,-4.7276,-4.7276,-4.7276,-4.7276,0.0,0.0,0.0,0.0,0.0,0.0,-4.5705,0.0,-4.4828,-4.3103,-4.2198,-4.1822,-4.0857,-4.0485,-4.0461,-4.0313,-4.0337,-4.0485,-4.0624,-4.0673,-4.0697,-4.084,-4.0959,-4.107,-4.107,-4.1105,-4.1186,-4.1186,-4.1272,-4.1403,-4.1538,-4.167,-4.1866,-4.2184,-4.2287,0.0,0.0,0.0,-4.2783,0.0,0.0,0.0,0.0,0.0,0.0,0.0,0.0,0.0,0.0,0.0,-4.257,0.0,-4.2941,-4.347,-4.4024,-4.4572,-4.5159,-4.5715,-4.5503,-4.5178,0.0,-4.4586,-4.4321,-4.3956,-4.3898,-4.3444,-4.2518,-4.1789,-4.1061,-4.0393,-3.9647,-3.9299,-3.9299,-3.9573,-3.9703,-3.9729,-4.0288,-4.0655,-4.0935,-4.1117,-4.1515,-4.2005,-4.2005,-4.2136,-4.2308,-4.2308,-4.2308,-4.2308,-4.6398,-4.6161,-4.6013,-4.6013,-4.6235,-4.6423,-4.6423,-4.6423,-4.6423,-4.6423,-4.6423,-4.6423,-4.6423,-4.6423,-4.6423,-4.6423,-4.6423,-4.6471,-4.6542,-4.659,-4.6637,-4.6731,-4.6778,-4.6778,-4.6778,-4.6778,-4.6778,-4.6778,0.0,0.0,-4.6731,0.0,0.0,0.0,0.0,-4.4174,-4.2764,-4.2293,-4.1501,-4.0568,-4.0197,-3.9986,-3.991,0.0,-3.9884,-3.9961,-4.0263,-4.0478,-4.0558,-4.0583,-4.0631,-4.0655,-4.0655,-4.0728,-4.0823,-4.0823,-4.1006,-4.1186,-4.1233,-4.1443,-4.167,-4.1758,-4.2058,-4.2308,0.0,0.0,0.0,0.0,0.0,0.0,0.0,0.0,0.0,0.0,0.0,0.0,0.0,0.0,0.0,-4.2588,0.0,0.0,-4.3456,-4.3638,-4.4135,-4.5124,-4.4958,-4.4923,-4.5205,0.0,-4.4446,-4.435,-4.4056,-4.3502,-4.2724,-4.1846,-4.1061,-4.0393,-3.9647,-3.9299,-3.9299,-3.9573,-3.9703,-3.9729,-4.0288,-4.0655,-4.0935,-4.1117,-4.1515,-4.2005,-4.2005,-4.2136,-4.2308,-4.2308,-4.2308,-4.2308,-4.5963,-4.5709,-4.5494,-4.5363,-4.5529,-4.5709,-4.5837,-4.5862,-4.5862,-4.5862,-4.5862,-4.5887,-4.5938,-4.5938,-4.5963,-4.603,-4.603,-4.6055,-4.613,-4.6186,-4.6259,-4.6332,-4.6381,-4.6447,-4.6447,-4.6447,-4.6447,-4.6447,0.0,0.0,-4.6405,0.0,0.0,0.0,0.0,-4.2982,-4.1884,-4.1386,-4.0737,-3.9986,-3.9858,-3.9755,0.0,-3.9703,-3.9703,-3.9729,-3.9961,-4.0113,-4.0238,-4.0238,-4.0313,-4.0412,-4.0412,-4.051,-4.0607,-4.0607,-4.0721,-4.084,-4.0905,-4.1099,-4.1312,-4.1408,-4.1719,-4.2016,-4.2079,-4.2246,-4.2409,0.0,-4.2472,-4.2552,0.0,0.0,0.0,0.0,0.0,0.0,0.0,0.0,0.0,0.0,-4.2568,0.0,-4.2846,-4.3116,-4.3696,-4.463,-4.469,0.0,0.0,0.0,-4.4506,-4.4045,-4.3697,-4.2984,-4.1849,-4.1261,-4.0597,-3.9912,-3.9497,-3.9299,-3.9299,-3.9573,-3.9703,-3.9729,-4.0288,-4.0655,-4.0935,-4.118,-4.156,-4.2005,-4.2094,-4.2202,-4.2308,-4.2308,-4.2308,-4.2308,-4.5555,-4.531,-4.5113,-4.4978,-4.4951,-4.5032,-4.5257,-4.5336,-4.5363,-4.5363,-4.5363,-4.5389,-4.5503,-4.5503,-4.5572,-4.5693,-4.5693,-4.5693,-4.5718,-4.5829,-4.5912,-4.5912,-4.6038,-4.6087,-4.6087,-4.6087,-4.6087,0.0,0.0,0.0,0.0,0.0,0.0,0.0,0.0,0.0,0.0,-4.0493,-3.9986,-3.9849,-3.9703,-3.9651,-3.9651,-3.9651,-3.9651,-3.9651,-3.9651,-3.9746,-3.9875,-3.9875,-4.0054,-4.0255,-4.0255,-4.0337,-4.0461,-4.0461,-4.0461,-4.051,-4.0624,-4.0769,-4.0918,-4.1117,-4.1363,-4.1582,-4.1714,-4.1909,-4.2082,-4.2205,-4.229,-4.2391,0.0,0.0,0.0,0.0,0.0,0.0,0.0,0.0,0.0,0.0,0.0,0.0,0.0,-4.2825,-4.3446,-4.4094,-4.4384,0.0,0.0,0.0,-4.4299,-4.3339,-4.2992,-4.2133,-4.0644,-4.0491,-4.0028,-3.9299,-3.9299,-3.9299,-3.9299,-3.9573,-3.9703,-3.9729,-4.0288,-4.0655,-4.0918,-4.1226,-4.1622,-4.2026,-4.2222,-4.2308,-4.2308,-4.2308,-4.2308,-4.2308,-4.514,-4.4978,-4.4858,-4.4831,-4.472,-4.4682,-4.472,-4.494,-4.5059,-4.5059,-4.5059,-4.5086,-4.5096,-4.5113,-4.5113,-4.514,-4.514,0.0,0.0,0.0,0.0,-4.5503,-4.5529,-4.5529,-4.5529,-4.5529,-4.5529,0.0,0.0,0.0,0.0,0.0,0.0,0.0,0.0,0.0,-4.0383,-4.0062,0.0,-3.958,-3.9537,-3.9458,-3.9379,-3.9379,-3.9379,-3.9379,-3.9379,-3.9537,-3.9729,-3.9729,-3.9833,-3.9977,-3.9977,-4.0062,-4.0171,-4.0171,-4.0238,-4.0337,-4.0355,-4.0551,-4.0769,-4.0918,-4.1111,-4.1318,-4.1448,-4.167,-4.1866,-4.1888,-4.197,-4.2076,-4.2166,0.0,0.0,0.0,0.0,0.0,0.0,0.0,0.0,0.0,0.0,-4.2465,0.0,0.0,0.0,0.0,0.0,-4.3366,0.0,0.0,-4.3134,0.0,-4.2362,0.0,0.0,0.0,-4.0028,-3.9299,-3.9299,-3.9299,-3.9299,-3.9573,-3.9703,-3.9729,-4.0288,-4.0655,-4.0935,-4.1157,-4.1538,-4.2026,-4.2222,-4.2308,-4.2308,-4.2308,-4.2308,-4.2308,-4.4659,-4.4536,-4.444,-4.444,-4.4384,-4.4344,-4.4344,-4.444,-4.4609,-4.4776,-4.4776,-4.4831,-4.4886,-4.4913,-4.4923,-4.4978,-4.5005,-4.5032,-4.5086,-4.5113,-4.514,-4.5177,-4.5177,-4.5177,-4.5177,-4.4816,-4.461,-4.461,0.0,0.0,0.0,0.0,0.0,0.0,0.0,-4.0409,0.0,0.0,0.0,-3.9501,-3.9405,-3.9352,-3.9299,-3.9299,-3.9299,-3.9299,-3.9299,-3.9379,-3.9494,-3.959,-3.9694,-3.9798,-3.9798,-3.9833,-3.991,-3.9986,-4.0037,-4.0104,-4.0188,-4.0337,-4.0502,-4.0558,-4.0776,-4.0989,-4.1105,-4.129,-4.1466,-4.156,-4.1626,-4.1732,-4.1909,-4.2184,0.0,0.0,0.0,0.0,0.0,0.0,-4.2588,0.0,0.0,0.0,0.0,0.0,0.0,0.0,0.0,-4.2835,-4.2914,0.0,-4.2586,0.0,0.0,0.0,-4.0256,0.0,-3.9647,-3.9299,-3.9299,-3.9299,-3.9299,-3.9573,-3.9703,-3.9729,-4.0288,-4.0655,-4.0935,-4.1426,-4.1797,-4.2076,-4.2243,-4.2308,-4.2308,-4.2308,-4.2308,-4.2308,-4.4281,-4.4184,-4.4097,-4.4097,-4.4097,-4.4097,-4.4097,-4.4097,-4.4184,-4.4457,-4.4485,-4.4542,-4.4637,-4.4637,-4.4692,-4.4786,-4.4814,-4.4814,-4.4814,-4.4841,-4.4773,-4.4603,-4.463,-4.4589,-4.4419,-4.3856,-4.3549,0.0,0.0,0.0,0.0,0.0,0.0,0.0,0.0,0.0,0.0,0.0,-3.9484,-3.9448,-3.9325,-3.9299,-3.9299,-3.9299,-3.9299,-3.9299,-3.9299,-3.9299,-3.9325,-3.9422,-3.9537,-3.9668,-3.9668,-3.9677,-3.9729,-3.9824,-3.9875,-3.991,-4.0037,-4.0163,-4.0263,-4.0288,-4.0453,-4.0648,-4.0776,-4.0912,-4.107,-4.1221,-4.129,-4.1403,-4.167,-4.1952,0.0,0.0,0.0,0.0,0.0,0.0,0.0,0.0,0.0,0.0,-4.2267,0.0,0.0,0.0,0.0,-4.2409,-4.2172,-4.2221,-4.1997,0.0,0.0,-4.0306,-3.9703,0.0,-3.9299,-3.9299,-3.9299,-3.9299,-3.9299,-3.9573,-3.9703,-3.9729,-4.0288,-4.068,-4.1012,-4.1644,-4.197,-4.21,-4.2205,-4.2267,-4.2308,-4.2308,-4.2308,-4.2308,-4.4126,-4.4097,-4.4097,-4.4097,-4.4097,-4.4097,-4.4097,-4.4097,-4.4097,-4.4126,-4.4143,-4.4155,-4.4155,-4.4155,-4.4155,-4.4184,-4.4184,-4.4184,-4.4184,-4.431,-4.4063,-4.3406,-4.3466,-4.3227,-4.2577,-4.2492,-4.2458,0.0,0.0,-4.1948,0.0,0.0,0.0,0.0,0.0,0.0,0.0,-3.9501,-3.9448,-3.9325,-3.9299,-3.9299,-3.9299,-3.9299,-3.9299,-3.9299,-3.9299,-3.9299,-3.9299,-3.9299,-3.9405,-3.9528,-3.9528,-3.9616,-3.9703,-3.9703,-3.9807,-3.9901,-3.9926,-4.0011,-4.0163,-4.028,-4.033,-4.0362,-4.051,-4.0631,-4.0745,-4.0769,-4.0976,-4.1186,-4.1403,-4.156,-4.1714,0.0,0.0,0.0,0.0,0.0,-4.2328,-4.2308,0.0,0.0,-4.2124,-4.2124,0.0,0.0,-4.185,-4.1732,-4.1336,-4.1043,-4.0796,-4.0612,-4.007,-3.977,-3.9703,-3.9432,-3.9299,-3.9299,-3.9299,-3.9299,-3.9299,-3.9573,-3.9703,-3.9729,-4.0288,-4.0758,-4.1209,-4.1498,-4.1776,-4.2026,-4.2079,-4.2187,-4.2308,-4.2308,-4.2308,-4.2308,-4.3835,-4.3747,0.0,0.0,0.0,0.0,0.0,-4.3505,-4.3505,-4.3505,-4.3848,-4.4097,-4.4097,-4.4097,-4.4097,-4.4097,-4.4097,-4.3913,-4.3461,-4.3484,-4.3205,-4.2467,-4.2471,-4.2364,-4.2061,-4.1624,-4.1405,0.0,0.0,0.0,0.0,0.0,0.0,0.0,0.0,-3.9511,-3.9379,-3.9379,-3.9352,-3.9299,-3.9299,-3.9299,-3.9299,-3.9299,-3.9299,-3.9299,-3.9299,-3.9299,-3.9299,-3.9299,-3.9342,-3.9379,-3.9379,-3.9405,-3.9484,-3.9563,-3.9616,-3.9668,-3.9755,-3.9884,-3.9986,-4.0054,-4.0113,-4.0213,-4.0337,-4.0429,-4.0461,-4.0558,-4.0721,-4.0912,-4.1059,-4.1249,-4.1408,-4.1538,0.0,0.0,0.0,0.0,0.0,-4.2115,0.0,-4.2115,0.0,-4.2034,0.0,0.0,0.0,-4.1453,-4.1209,-4.0806,-4.0558,-4.051,0.0,-3.9703,-3.9703,-3.9432,-3.9299,-3.9299,-3.9299,-3.9299,-3.9299,-3.9484,-3.9703,-3.9961,-4.0412,-4.0817,-4.1152,-4.1471,-4.1714,-4.1884,-4.2009,-4.2055,-4.2115,-4.2115,-4.2115,-4.2115,-4.3462,0.0,-4.3281,0.0,-4.3113,-4.3113,-4.3113,-4.3113,-4.3113,-4.3113,-4.3505,-4.3818,-4.3818,-4.3864,-4.381,-4.3594,-4.3606,-4.3318,-4.2595,-4.2573,-4.2284,-4.1531,-4.1552,0.0,-4.1261,-4.0742,-4.0491,-4.0491,-3.9971,0.0,0.0,0.0,0.0,0.0,-3.9448,-3.9395,-3.9299,-3.9299,-3.9299,-3.9299,-3.9299,-3.9272,-3.9202,-3.9202,-3.9175,-3.9148,-3.9148,-3.9148,-3.9148,-3.9148,-3.9148,-3.9175,-3.9272,-3.9299,-3.9325,-3.9405,-3.9475,-3.9528,-3.9616,-3.9746,-3.9849,-3.9849,-3.9935,-4.0062,-4.018,-4.0213,-4.0263,-4.0412,-4.0527,-4.0624,-4.0769,-4.0924,-4.1111,-4.1244,0.0,0.0,0.0,-4.1797,0.0,-4.188,-4.188,-4.1858,-4.1837,-4.1815,0.0,0.0,0.0,0.0,-4.1134,0.0,0.0,0.0,0.0,0.0,-3.9703,-3.9432,-3.9299,-3.9299,-3.9299,-3.9299,-3.9299,-3.9484,-3.9755,-4.0138,-4.0436,-4.0745,-4.107,-4.1307,-4.1538,-4.1736,-4.1858,-4.1923,-4.2005,-4.2005,-4.2005,-4.2005,-4.3113,-4.3096,-4.3113,-4.3113,-4.3113,-4.3113,-4.3113,-4.3113,-4.3113,-4.3113,-4.3113,-4.3096,-4.3096,-4.3281,-4.3138,-4.24,-4.2435,-4.222,-4.1475,-4.1627,-4.1394,0.0,0.0,-4.0464,-3.9737,-3.972,-3.972,-3.972,0.0,0.0,-3.9501,0.0,-3.9299,-3.9299,-3.9299,-3.9299,-3.9299,-3.9299,-3.9299,-3.9299,-3.9299,-3.9175,-3.8996,-3.8996,-3.8914,-3.8805,-3.8805,-3.8805,-3.8805,-3.8805,-3.8805,-3.886,-3.9191,-3.9299,-3.9299,-3.9299,-3.9395,-3.9501,-3.9501,-3.9616,-3.9703,-3.9703,-3.9807,-3.9901,-3.9901,-4.0011,-4.0138,-4.0263,-4.0288,-4.0355,-4.0485,-4.0624,-4.0745,-4.0871,0.0,0.0,0.0,-4.1515,0.0,-4.1604,-4.1604,-4.156,-4.1426,-4.1403,0.0,0.0,0.0,0.0,0.0,0.0,0.0,-4.0305,-3.991,0.0,-3.9703,-3.9432,-3.9299,-3.9299,-3.9299,-3.9299,-3.9299,-3.9573,-3.9858,-4.0113,-4.0238,-4.0534,-4.0912,-4.0912,-4.1175,-4.1604,-4.1604,-4.1754,-4.2005,-4.2005,-4.2005,-4.2005,-4.2649,-4.2618,-4.2586,-4.2444,-4.2429,-4.2429,-4.2429,-4.2429,-4.2429,-4.2429,-4.2025,-4.1734,-4.1734,-4.2211,-4.2219,0.0,-4.1444,-4.1161,0.0,-4.0445,-4.0143,-3.9419,-3.9396,-3.9363,-3.9228,-3.9212,-3.9309,-3.9432,0.0,0.0,0.0,-3.9325,-3.9245,-3.9094,-3.9094,-3.9023,-3.8958,-3.8958,-3.8958,-3.8958,-3.8958,-3.8914,-3.886,-3.886,-3.8832,-3.8805,-3.8805,-3.8805,-3.8805,-3.8805,-3.8805,-3.8832,-3.8914,-3.9023,-3.9094,-3.9094,-3.9202,-3.9352,-3.9352,-3.9458,-3.9563,-3.9563,-3.9668,-3.9755,-3.9755,-3.9858,-3.9977,-4.0028,-4.0087,-4.0213,-4.0337,-4.0404,-4.0478,-4.0607,-4.0752,0.0,-4.0935,0.0,-4.1129,-4.1129,-4.1129,-4.1105,-4.1059,-4.1059,0.0,0.0,0.0,0.0,0.0,0.0,0.0,0.0,-3.9858,0.0,-3.9563,-3.9379,-3.9299,-3.9299,-3.9299,-3.9299,-3.9299,-3.9484,-3.9668,-3.9833,-4.0062,-4.0337,-4.0655,-4.0823,-4.1053,-4.1261,-4.1318,-4.1386,-4.1453,-4.1453,-4.1453,-4.1453,-4.2109,-4.2109,-4.2045,-4.1948,-4.1916,-4.1916,-4.1916,-4.1916,-4.182,-4.1565,-4.1167,-4.0705,-4.0163,-4.0484,0.0,-4.0346,-4.0371,-4.0107,-3.9373,-3.938,-3.9196,-3.8738,-3.8777,-3.8832,-3.8914,-3.8914,0.0,-3.9121,-3.9121,-3.9121,-3.9121,-3.9121,-3.904,-3.8914,-3.8914,-3.886,-3.8706,-3.8706,-3.8694,-3.8655,-3.8655,-3.8611,-3.8539,-3.8539,-3.8528,-3.8444,-3.8444,-3.8444,-3.8444,-3.8444,-3.8444,-3.8444,-3.8444,-3.8539,-3.8706,-3.8887,-3.8996,-3.9121,-3.9175,-3.9245,-3.9325,-3.9422,-3.9537,-3.9625,-3.9677,-3.9755,-3.9807,-3.9807,-3.9884,-3.9986,-4.013,-4.0155,-4.0213,-4.0387,-4.0502,-4.0576,-4.0624,0.0,-4.0752,0.0,0.0,0.0,0.0,-4.0752,-4.0704,0.0,0.0,0.0,0.0,0.0,0.0,-4.0037,-3.9755,-3.959,-3.9501,-3.9352,-3.9299,-3.9299,-3.9299,-3.9299,-3.9299,-3.9448,-3.9554,-3.9625,-3.991,-4.0163,-4.0387,-4.0583,-4.0793,-4.0953,-4.1012,-4.1041,-4.1088,-4.1088,-4.1088,-4.1088,-4.1522,-4.1522,-4.1522,0.0,-4.1522,-4.1522,-4.1522,-4.1522,-4.127,-4.0608,-4.0482,-3.9945,-3.8587,-3.8398,-3.8532,-3.8996,0.0,0.0,-3.8383,-3.846,-3.8556,-3.8556,-3.8667,-3.875,-3.875,-3.875,-3.8777,-3.8777,-3.8777,-3.8777,-3.8777,-3.8777,-3.8777,-3.875,-3.875,-3.8694,-3.8556,-3.8556,-3.8488,-3.8363,-3.8379,-3.8234,-3.8087,-3.8042,-3.7972,-3.7876,-3.7876,-3.7876,-3.7876,-3.7876,-3.7876,-3.7876,-3.7876,-3.796,-3.8128,-3.8595,-3.8777,-3.8805,-3.8942,-3.8969,-3.9023,-3.9245,-3.9379,-3.9528,-3.9625,-3.9677,-3.9677,-3.9677,-3.9703,-3.9729,-3.9875,-3.9901,-3.9977,-4.023,-4.0255,-4.0305,-4.0436,-4.0461,-4.0461,0.0,0.0,0.0,-4.0461,-4.0461,-4.0444,0.0,0.0,0.0,0.0,0.0,-4.0011,-3.9875,-3.9616,-3.9501,-3.9501,-3.9352,-3.9299,-3.9299,-3.9299,-3.9299,-3.9299,-3.9448,-3.9501,-3.9528,-3.9772,-3.9935,-4.007,-4.0213,-4.0412,-4.0648,-4.0673,-4.0769,-4.0871,-4.0871,-4.0871,-4.0871,0.0,0.0,-4.0749,-4.0749,-4.0749,-4.0749,-4.0749,-4.0749,-4.0501,-3.9838,-3.9311,-3.8676,-3.784,-3.7297,-3.7049,-3.7278,-3.767,-3.7889,-3.7863,-3.7905,-3.7947,-3.8062,-3.8091,-3.816,-3.8258,-3.8286,-3.8359,-3.8488,-3.8488,-3.8488,-3.8488,-3.8488,-3.8403,-3.8286,-3.8286,-3.8173,-3.8062,-3.8062,-3.8049,-3.802,-3.7905,-3.7847,-3.7772,-3.7623,-3.7565,-3.7522,-3.7522,-3.7522,-3.7522,-3.7522,-3.7522,-3.7522,-3.7522,-3.7535,-3.7666,-3.8144,-3.8455,-3.8667,-3.8694,-3.8777,-3.8887,-3.9023,-3.9202,-3.9352,-3.9379,-3.9458,-3.9554,-3.9554,-3.9642,-3.9703,-3.9729,-3.9755,-3.9781,-3.9833,-3.9833,-3.9884,-4.0011,-4.0037,-4.0087,0.0,-4.0196,-4.0146,-4.0037,-4.0037,-3.9986,0.0,0.0,0.0,-3.979,-3.9694,-3.9616,-3.9606,-3.9511,-3.9432,-3.9352,-3.9325,-3.9299,-3.9299,-3.9299,-3.9299,-3.9299,-3.9325,-3.9405,-3.9501,-3.958,-3.9668,-3.9807,-4.0062,-4.0171,-4.0263,-4.0461,-4.0558,-4.059,-4.059,-4.059,-4.059,-4.0296,-4.0261,-4.0261,-4.0261,-4.0261,-4.0261,-4.0261,-3.9986,-3.9577,-3.8904,-3.8231,-3.7558,-3.6886,-3.6472,-3.6289,-3.6383,-3.68,-3.7164,-3.7361,-3.7435,-3.7508,-3.7596,-3.7639,-3.7698,-3.7783,-3.7783,-3.7828,-3.7931,-3.7931,-3.7931,-3.7931,-3.7931,-3.7886,-3.7783,-3.7783,-3.7711,-3.7596,-3.7596,-3.7537,-3.7464,-3.7405,-3.7391,-3.7361,-3.724,-3.721,-3.721,-3.721,-3.7164,-3.7074,-3.7074,-3.7043,-3.7013,-3.7074,-3.7074,-3.7164,-3.7492,-3.7873,-3.8189,-3.8258,-3.8444,-3.8683,-3.8942,-3.9094,-3.9175,-3.9272,-3.9369,-3.9422,-3.9422,-3.9458,-3.9537,-3.9616,-3.9616,-3.9642,-3.9677,-3.9703,-3.9729,-3.9781,-3.9824,-3.9833,-3.991,-3.9935,-3.9884,-3.9807,-3.9824,-3.9781,-3.9703,-3.9625,0.0,-3.9616,-3.9484,-3.9448,-3.9501,-3.9448,-3.9379,-3.9299,-3.9299,-3.9299,-3.9299,-3.9299,-3.9299,-3.9299,-3.9299,-3.9325,-3.9405,-3.9475,-3.9537,-3.9625,-3.9833,-3.9935,-3.9918,-4.0087,-4.0121,-4.0121,-4.0121,-4.0121,-4.0121,-3.994,-3.9905,-3.9905,-3.9905,-3.9905,-3.9895,-3.9788,-3.9273,-3.8622,-3.7861,-3.7273,-3.6652,-3.5985,-3.591,-3.5941,-3.5941,-3.6305,-3.6631,-3.6877,-3.6998,-3.7058,-3.7104,-3.7208,-3.7268,-3.7268,-3.7268,-3.7298,-3.7298,-3.7328,-3.7344,-3.7344,-3.7298,-3.7298,-3.7298,-3.7268,-3.7208,-3.7104,-3.7104,-3.7029,-3.6908,-3.6908,-3.6877,-3.6877,-3.6847,-3.6847,-3.6847,-3.6847,-3.6739,-3.66,-3.66,-3.6507,-3.6445,-3.6569,-3.66,-3.6631,-3.6816,-3.7181,-3.7567,-3.774,-3.8046,-3.842,-3.8805,-3.8914,-3.8996,-3.9218,-3.9245,-3.9272,-3.9299,-3.9299,-3.9325,-3.9448,-3.9475,-3.9511,-3.9625,-3.9625,-3.9651,-3.9677,0.0,-3.9677,-3.9703,-3.9703,-3.9677,-3.9677,-3.9677,-3.9651,-3.9651,-3.9537,-3.9475,-3.9475,-3.9352,-3.9352,-3.9475,-3.9352,-3.9299,-3.9299,-3.9299,-3.9299,-3.9299,-3.9299,-3.9299,-3.9299,-3.9299,-3.9299,-3.9299,-3.9422,-3.9475,-3.9475,-3.9599,-3.9677,-3.9677,-3.9677,-3.9703,-3.9703,-3.9703,-3.9703,-3.9703,-3.9532,-3.9496,-3.9496,-3.9496,-3.9496,-3.9301,-3.8737,-3.8557,-3.8077,-3.6892,-3.6652,-3.6322,-3.5629,-3.5602,-3.5604,-3.572,-3.5816,-3.5975,-3.6305,-3.6321,-3.643,-3.66,-3.6631,-3.6631,-3.6631,-3.6754,-3.68,-3.68,-3.6984,-3.706,-3.706,-3.6877,-3.68,-3.68,-3.6693,-3.6647,-3.66,-3.66,-3.6616,-3.6554,-3.6399,-3.6336,-3.6305,-3.6195,-3.6163,-3.6163,-3.6163,-3.6132,-3.61,-3.61,-3.61,-3.6068,-3.61,-3.61,-3.61,-3.6132,-3.6429,-3.6785,-3.7194,-3.7623,-3.8075,-3.842,-3.8572,-3.8722,-3.8996,-3.9067,-3.9077,-3.9272,-3.9299,-3.9299,-3.9325,-3.9325,-3.9325,-3.9352,-3.9352,-3.9405,-3.9528,0.0,-3.9563,-3.9677,-3.9703,-3.9668,-3.9537,-3.9511,-3.9484,-3.9379,-3.9352,-3.9325,-3.9325,-3.9299,-3.9299,-3.9325,-3.9299,-3.9299,-3.9299,-3.9299,-3.9299,-3.9299,-3.9299,-3.9299,-3.9299,-3.9299,-3.9299,-3.9299,-3.9325,-3.9325,-3.9325,-3.9475,-3.9511,-3.9537,-3.9668,-3.9703,-3.9703,-3.9703,-3.9703,-3.9703,-3.9424,-3.9388,-3.9305,-3.8931,-3.8871,-3.8631,-3.7958,-3.7584,-3.715,-3.66,-3.6178,-3.5833,-3.5534,-3.5504,-3.5522,-3.5604,-3.5604,-3.5668,-3.5829,-3.6005,-3.6116,-3.6241,-3.6226,-3.6226,-3.6226,-3.6289,-3.6305,-3.6305,-3.6429,-3.646,-3.646,-3.6352,-3.6305,-3.632,-3.6258,-3.6226,-3.6226,-3.6226,-3.6226,-3.6226,-3.6116,-3.6085,-3.6085,-3.6037,-3.6005,-3.6005,-3.6005,-3.5941,-3.5831,-3.5831,-3.5782,-3.5733,-3.5814,-3.5831,-3.5863,-3.5973,-3.6241,-3.66,-3.7074,-3.7417,-3.7711,-3.8046,-3.8319,-3.8544,-3.875,-3.8832,-3.8942,-3.9094,-3.9148,-3.9175,-3.9272,-3.9299,-3.9299,-3.9299,-3.9299,0.0,0.0,-3.9379,-3.9422,-3.9484,-3.9468,-3.9458,-3.9405,-3.9379,-3.9352,-3.9299,-3.9299,-3.9299,-3.9299,-3.9299,-3.9299,-3.9299,-3.9299,-3.9299,-3.9299,-3.9299,-3.9299,-3.9299,-3.9299,-3.9299,-3.9299,-3.9299,-3.9299,-3.9299,-3.9299,-3.9299,-3.9299,-3.9352,-3.9379,-3.9405,-3.9458,-3.9468,-3.9468,-3.9468,-3.9468,-3.9468,-3.9388,-3.9254,-3.902,-3.8482,-3.8257,-3.7943,-3.73,-3.6791,-3.6432,-3.6282,-3.5818,-3.5504,-3.5504,-3.5504,-3.5504,-3.5504,-3.5504,-3.5504,-3.5504,-3.5733,-3.5878,-3.5878,-3.5878,-3.5878,-3.5878,-3.591,-3.5941,-3.5941,-3.5973,-3.6005,-3.6005,-3.5941,-3.5941,-3.5941,-3.591,-3.5878,-3.5878,-3.5878,-3.5878,-3.5878,-3.5878,-3.5878,-3.5878,-3.5878,-3.5878,-3.5878,-3.5878,-3.5782,-3.5638,-3.5638,-3.5604,-3.5537,-3.5621,-3.5638,-3.5671,-3.5861,-3.6068,-3.6414,-3.6892,-3.7104,-3.7268,-3.7653,-3.796,-3.8205,-3.8415,-3.8583,-3.875,-3.8887,-3.8942,-3.8996,-3.9218,-3.9245,-3.9245,-3.9299,0.0,0.0,0.0,-3.9299,-3.9299,-3.9299,-3.9299,-3.9299,-3.9299,-3.9299,-3.9299,-3.9299,-3.9299,-3.9299,-3.9299,-3.9299,-3.9299,-3.9299,-3.9299,-3.9299,-3.9299,-3.9299,-3.9299,-3.9299,-3.9299,-3.9299,-3.9299,-3.9299,-3.9299,-3.9299,-3.9299,-3.9299,-3.9299,-3.9299,-3.9299,-3.9299,-3.9299,-3.9299,-3.9299,-3.9299,-3.9299,-3.9299,-3.9388,-3.8901,-3.8452,-3.8407,-3.7883,-3.727,-3.6656,-3.6522,-3.6267,-3.5654,-3.5534,-3.5504,-3.5504,-3.5504,-3.5504,-3.5504,-3.5504,-3.5504,-3.5504,-3.5537,-3.5537,-3.5537,-3.5537,-3.5537,-3.5537,-3.5653,-3.572,-3.572,-3.5894,-3.6005,-3.6005,-3.5831,-3.572,-3.572,-3.5572,-3.5537,-3.5537,-3.5537,-3.5537,-3.5537,-3.5537,-3.5537,-3.5537,-3.5537,-3.5537,-3.5537,-3.5537,-3.5537,-3.5504,-3.5504,-3.5504,-3.5504,-3.5504,-3.5504,-3.5537,-3.5537,-3.5621,-3.5879,-3.6414,-3.6554,-3.6662,-3.7134,-3.7358,-3.7565,-3.7886,-3.8205,-3.8476,-3.8611,-3.8722,-3.886,-3.8996,-3.9023,-3.9094,-3.9272,0.0,0.0,-3.9299,-3.9299,-3.9299,-3.9299,-3.9299,-3.9299,-3.9299,-3.9299,-3.9299,-3.9299,-3.9299,-3.9299,-3.9299,-3.9299,-3.9299,-3.9299,-3.9299,-3.9299,-3.9299,-3.9299,-3.9299,-3.9299,-3.9299,-3.9299,-3.9299,-3.9299,-3.9299,-3.9299,-3.9299,-3.9299,-3.9299,-3.9299,-3.9299,-3.9299,-3.9299,-3.9299,-3.9299,-3.9299,-3.9299,-3.9299,-3.8781,-3.8242,-3.7659,-3.7285,-3.7,-3.6611,-3.5983,-3.5878,-3.5789,-3.5534,-3.5504,-3.5504,-3.5504,-3.5504,-3.5504,-3.5504,-3.5504,-3.5504,-3.5504,-3.5504,-3.5504,-3.5504,-3.5504,-3.5504,-3.5504,-3.5554,-3.5572,-3.5572,-3.5636,-3.5683,-3.5683,-3.5604,-3.5572,-3.5572,-3.5522,-3.5504,-3.5504,-3.5504,-3.5504,-3.5504,-3.5504,-3.5504,-3.5504,-3.5504,-3.5504,-3.5504,-3.5504,-3.5504,-3.5504,-3.5504,-3.5504,-3.5504,-3.5504,-3.5504,-3.5504,-3.5504,-3.5522,-3.5636,-3.5941,-3.6258,-3.6554,-3.6723,-3.7013,-3.7328,-3.7535,-3.7786,-3.8049,-3.8246,-3.8415,-3.86,-3.8722,-3.8832,-3.8942,-3.9094,0.0,-3.9148,-3.9272,-3.9299,-3.9299,-3.9299,-3.9299,-3.9299,-3.9299,-3.9299,-3.9299,-3.9299,-3.9299,-3.9299,-3.9299,-3.9299,-3.9299,-3.9299,-3.9299,-3.9299,-3.9299,-3.9299,-3.9299,-3.9299,-3.9299,-3.9299,-3.9299,-3.9299,-3.9299,-3.9299,-3.9299,-3.9299,-3.9299,-3.9299,-3.9299,-3.9299,-3.9299,-3.9299,-3.9299,-3.9299,-3.9299,-3.9299,-3.8078,-3.7569,-3.6985,-3.6552,-3.6312,-3.6028,-3.5579,-3.5504,-3.5504,-3.5504,-3.5504,-3.5504,-3.5504,-3.5504,-3.5504,-3.5504,-3.5504,-3.5504,-3.5504,-3.5504,-3.5504,-3.5504,-3.5504,-3.5504,-3.5504,-3.5504,-3.5504,-3.5504,-3.5504,-3.5504,-3.5504,-3.5504,-3.5504,-3.5504,-3.5504,-3.5504,-3.5504,-3.5504,-3.5504,-3.5504,-3.5504,-3.5504,-3.5504,-3.5504,-3.5504,-3.5504,-3.5504,-3.5504,-3.5504,-3.5504,-3.5504,-3.5504,-3.5504,-3.5504,-3.5504,-3.5504,-3.5504,-3.5537,-3.5621,-3.5941,-3.6258,-3.632,-3.6662,-3.7013,-3.7104,-3.7344,-3.7626,-3.7812,-3.8046,-3.8234,-3.8399,-3.8556,-3.8738,-3.886,-3.8942,-3.9067,-3.9175,-3.9272,-3.9299,-3.9299,-3.9299,-3.9299,-3.9299,-3.9299,-3.9299,-3.9299,-3.9299,-3.9299,-3.9299,-3.9299,-3.9299,-3.9299,-3.9299,-3.9299,-3.9299,-3.9299,-3.9299,-3.9299,-3.9299,-3.9299,-3.9299,-3.9299,-3.9299,-3.9299,-3.9299,-3.9299,-3.9299,-3.9299,-3.9299,-3.9299,-3.9299,-3.9299,-3.9299,-3.9299,-3.9299,-3.9299,-3.7404,-3.6911,-3.6477,-3.6477,-3.5938,-3.5504,-3.5504,-3.5504,-3.5504,-3.5504,-3.5504,-3.5504,-3.5504,-3.5504,-3.5504,-3.5504,-3.5504,-3.5504,-3.5504,-3.5504,-3.5504,-3.5504,-3.5504,-3.5504,-3.5504,-3.5504,-3.5504,-3.5504,-3.5504,-3.5504,-3.5504,-3.5504,-3.5504,-3.5504,-3.5504,-3.5504,-3.5504,-3.5504,-3.5504,-3.5504,-3.5504,-3.5504,-3.5504,-3.5504,-3.5504,-3.5504,-3.5504,-3.5504,-3.5504,-3.5504,-3.5504,-3.5504,-3.5504,-3.5504,-3.5504,-3.5504,-3.5504,-3.5504,-3.5504,-3.5604,-3.5752,-3.5941,-3.6258,-3.6492,-3.6492,-3.6877,-3.7238,-3.7358,-3.7567,-3.7772,-3.8059,-3.8262,-3.8448,-3.8583,-3.8832,-3.8996,-3.8996,-3.9175,-3.9299,-3.9299,-3.9299,-3.9299,-3.9299,-3.9299,-3.9299,-3.9299,-3.9299,-3.9299,-3.9299,-3.9299,-3.9299,-3.9315,-3.9315,-3.9315,-3.9315,-3.9315,-3.9299,-3.9299,-3.9299,-3.9299,-3.9315,-3.9299,-3.9299,-3.9315,-3.9299,-3.9299,-3.9299,-3.9299,-3.9299,-3.9299,-3.9299,-3.9299,-3.9299,-3.9299,-3.9299,-3.9299,-3.6761,-3.6237,-3.5804,-3.5804,-3.5639,-3.5504,-3.5504,-3.5504,-3.5504,-3.5504,-3.5504,-3.5504,-3.5504,-3.5504,-3.5504,-3.5504,-3.5504,-3.5504,-3.5504,-3.5504,-3.5504,-3.5504,-3.5504,-3.5504,-3.5504,-3.5504,-3.5504,-3.5504,-3.5504,-3.5504,-3.5504,-3.5504,-3.5504,-3.5504,-3.5504,-3.5504,-3.5504,-3.5504,-3.5504,-3.5504,-3.5504,-3.5504,-3.5504,-3.5504,-3.5504,-3.5504,-3.5504,-3.5504,-3.5504,-3.5504,-3.5504,-3.5504,-3.5504,-3.5504,-3.5504,-3.5504,-3.5504,-3.5504,-3.5504,-3.5522,-3.5604,-3.5767,-3.5958,-3.6163,-3.6274,-3.6507,-3.6754,-3.6892,-3.7134,-3.7403,-3.7594,-3.7756,-3.802,-3.842,-3.8532,-3.8628,-3.8832,-3.8996,-3.9094,-3.9094,-3.9202,-3.9299,-3.9299,-3.9299,-3.9299,-3.9299,-3.9299,-3.9299,-3.9299,-3.9299,-3.9547,-4.0061,-4.0078,-4.031,-4.0779,-3.9796,-3.9299,-3.9299,-3.9299,-3.9564,-4.0061,-3.9547,-3.958,-4.0044,-3.9514,-3.9299,-3.9299,-3.9299,-3.9299,-3.9299,-3.9299,-3.9299,-3.9299,-3.9299,-3.9299,-3.9299,-3.6088,-3.5774,-3.5504,-3.5504,-3.5504,-3.5504,-3.5504,-3.5504,-3.5504,-3.5504,-3.5504,-3.5504,-3.5504,-3.5504,-3.5504,-3.5504,-3.5504,-3.5504,-3.5504,-3.5504,-3.5504,-3.5504,-3.5504,-3.5504,-3.5504,-3.5504,-3.5504,-3.5504,-3.5504,-3.5504,-3.5504,-3.5504,-3.5504,-3.5504,-3.5504,-3.5504,-3.5504,-3.5504,-3.5504,-3.5504,-3.5504,-3.5504,-3.5504,-3.5504,-3.5504,-3.5504,-3.5504,-3.5504,-3.5504,-3.5504,-3.5504,-3.5504,-3.5504,-3.5504,-3.5504,-3.5504,-3.5504,-3.5504,-3.5504,-3.5504,-3.5537,-3.5589,-3.575,-3.5894,-3.5975,-3.6148,-3.6352,-3.6569,-3.6785,-3.6983,-3.7194,-3.7419,-3.7685,-3.7976,-3.8177,-3.8375,-3.86,-3.875,-3.886,-3.8914,-3.9067,-3.9175,-3.9175,-3.9245,-3.9431,-3.9713,-3.9746,-3.9862,-4.01,-4.0117,-4.0315,-4.0779,-4.0796,-4.0994,-4.1409,-4.0564,-4.0117,-4.0117,-4.0117,-4.0348,-4.0779,-4.0315,-4.0365,-4.0746,-4.0044,-3.9746,-3.9713,-3.9431,-3.9299,-3.9299,-3.9299,-3.9299,-3.9299,-3.9299,-3.9299,-3.9299,-3.5504,-3.5504,-3.5504,-3.5504,-3.5504,-3.5504,-3.5504,-3.5504,-3.5504,-3.5504,-3.5504,-3.5504,-3.5504,-3.5504,-3.5504,-3.5504,-3.5504,-3.5504,-3.5504,-3.5504,-3.5504,-3.5504,-3.5504,-3.5504,-3.5472,-3.5504,-3.5504,-3.5472,-3.5472,-3.5472,-3.5439,-3.5472,-3.5472,-3.5472,-3.5504,-3.5504,-3.5504,-3.5504,-3.5504,-3.5504,-3.5504,-3.5504,-3.5504,-3.5504,-3.5504,-3.5504,-3.5504,-3.5504,-3.5504,-3.5504,-3.5504,-3.5504,-3.5504,-3.5504,-3.5504,-3.5504,-3.5504,-3.5504,-3.5504,-3.5504,-3.5504,-3.5504,-3.5604,-3.5688,-3.5688,-3.5831,-3.6068,-3.6367,-3.6429,-3.6554,-3.6877,-3.715,-3.7328,-3.7387,-3.7754,-3.8116,-3.8307,-3.8488,-3.8639,-3.875,-3.8887,-3.8996,-3.8996,-3.9241,-3.9713,-4.0442,-4.0492,-4.0746,-4.1375,-4.1409,-4.1413,-4.1508,-4.1508,-4.1541,-4.1607,-4.1595,-4.1541,-4.1409,-4.1409,-4.1413,-4.1508,-4.1413,-4.1458,-4.1446,-4.0779,-4.0475,-4.0359,-3.968,-3.9365,-3.9299,-3.9299,-3.9299,-3.9299,-3.9299,-3.9299,-3.9299,-3.5504,-3.5504,-3.5504,-3.5504,-3.5504,-3.5504,-3.5504,-3.5504,-3.5504,-3.5504,-3.5504,-3.5504,-3.5504,-3.5504,-3.5504,-3.5504,-3.5504,-3.5504,-3.5504,-3.5504,-3.5504,-3.5504,-3.5504,-3.5439,-3.5261,-3.5439,-3.5439,-3.5261,-3.5261,-3.518,-3.5034,-3.518,-3.5261,-3.5261,-3.5439,-3.5504,-3.5504,-3.5504,-3.5504,-3.5504,-3.5504,-3.5504,-3.5504,-3.5504,-3.5504,-3.5504,-3.5504,-3.5504,-3.5504,-3.5504,-3.5504,-3.5504,-3.5504,-3.5504,-3.5504,-3.5504,-3.5504,-3.5504,-3.5504,-3.5504,-3.5504,-3.5504,-3.5537,-3.5554,-3.5554,-3.5653,-3.5799,-3.5847,-3.599,-3.6195,-3.6554,-3.6647,-3.6816,-3.7178,-3.7417,-3.7623,-3.7817,-3.8193,-3.8448,-3.8476,-3.8711,-3.8887,-3.8996,-3.9704,-4.0459,-4.1127,-4.1193,-4.1259,-4.1409,-4.1409,-4.1645,-4.2224,-4.2258,-4.2522,-4.3118,-4.3118,-4.2539,-4.1409,-4.1409,-4.1678,-4.2224,-4.1645,-4.174,-4.2208,-4.1508,-4.0878,-4.0393,-4.0243,-3.9829,-3.9299,-3.9299,-3.9299,-3.9299,-3.9299,-3.9299,-3.9299,-3.5504,-3.5504,-3.5504,-3.5504,-3.5504,-3.5504,-3.5504,-3.5504,-3.5504,-3.5504,-3.5504,-3.5504,-3.5504,-3.5504,-3.5504,-3.5504,-3.5504,-3.5504,-3.5504,-3.5407,-3.5359,-3.5359,-3.5261,-3.5148,-3.5082,-3.5148,-3.5148,-3.5082,-3.5082,-3.5001,-3.4902,-3.5001,-3.5115,-3.518,-3.5326,-3.5407,-3.5504,-3.5504,-3.5504,-3.5504,-3.5504,-3.5504,-3.5504,-3.5504,-3.5504,-3.5504,-3.5504,-3.5504,-3.5504,-3.5504,-3.5504,-3.5504,-3.5504,-3.5504,-3.5504,-3.5504,-3.5504,-3.5504,-3.5504,-3.5504,-3.5504,-3.5504,-3.5504,-3.5504,-3.5504,-3.5539,-3.5621,-3.5688,-3.5784,-3.5926,-3.6195,-3.632,-3.6476,-3.6816,-3.6983,-3.7164,-3.7403,-3.7743,-3.7976,-3.8049,-3.8667,-3.932,-3.9893,-4.04,-4.0995,-4.1762,-4.184,-4.2018,-4.2423,-4.244,-4.2622,-4.3002,-4.3019,-4.3201,-4.3598,-4.3598,-4.3201,-4.244,-4.244,-4.2638,-4.3002,-4.2622,-4.2655,-4.2969,-4.2224,-4.174,-4.1342,-4.0691,-4.0177,-3.9796,-3.9448,-3.9299,-3.9299,-3.9299,-3.9299,-3.9299,-3.5504,-3.5504,-3.5504,-3.5504,-3.5504,-3.5504,-3.5504,-3.5504,-3.5504,-3.5504,-3.5504,-3.5504,-3.5504,-3.5504,-3.5504,-3.5504,-3.5472,-3.5439,-3.5439,-3.5261,-3.5148,-3.5148,-3.5001,-3.4902,-3.4868,-3.4868,-3.4868,-3.4868,-3.4868,-3.4835,-3.4835,-3.4835,-3.4935,-3.5129,-3.518,-3.5294,-3.5439,-3.5504,-3.5504,-3.5504,-3.5504,-3.5504,-3.5504,-3.5504,-3.5504,-3.5504,-3.5504,-3.5504,-3.5504,-3.5504,-3.5504,-3.5504,-3.5504,-3.5504,-3.5504,-3.5504,-3.5504,-3.5504,-3.5504,-3.5504,-3.5504,-3.5504,-3.5504,-3.5504,-3.5504,-3.5504,-3.5522,-3.5638,-3.5671,-3.5735,-3.5894,-3.6053,-3.6179,-3.6398,-3.6569,-3.6754,-3.7043,-3.7254,-3.7464,-3.78,-3.8849,-3.9956,-4.1014,-4.1125,-4.1508,-4.2361,-4.2469,-4.2792,-4.3535,-4.3598,-4.3598,-4.3598,-4.3598,-4.3598,-4.3598,-4.3598,-4.3598,-4.3598,-4.3598,-4.3598,-4.3598,-4.3598,-4.3598,-4.3565,-4.2936,-4.2605,-4.239,-4.1094,-4.0509,-4.0326,-3.9597,-3.9299,-3.9299,-3.9299,-3.9299,-3.9299,-3.5504,-3.5504,-3.5504,-3.5504,-3.5504,-3.5504,-3.5504,-3.5504,-3.5504,-3.5504,-3.5504,-3.5504,-3.5504,-3.5504,-3.5504,-3.5504,-3.5326,-3.5261,-3.5261,-3.5034,-3.4935,-3.4935,-3.4902,-3.4835,-3.4731,-3.4731,-3.4731,-3.4731,-3.4731,-3.4631,-3.4481,-3.4664,-3.4731,-3.4798,-3.5063,-3.5213,-3.5261,-3.5439,-3.5504,-3.5504,-3.5504,-3.5504,-3.5504,-3.5504,-3.5504,-3.5504,-3.5504,-3.5504,-3.5504,-3.5504,-3.5504,-3.5504,-3.5504,-3.5504,-3.5504,-3.5504,-3.5504,-3.5504,-3.5504,-3.5504,-3.5504,-3.5504,-3.5504,-3.5504,-3.5504,-3.5504,-3.5504,-3.5522,-3.5537,-3.5587,-3.5703,-3.5752,-3.5816,-3.6037,-3.632,-3.6554,-3.6585,-3.6952,-3.752,-3.8302,-3.9407,-4.0476,-4.1432,-4.1618,-4.2062,-4.2916,-4.3164,-4.3303,-4.3432,-4.3539,-4.3598,-4.3598,-4.3598,-4.3598,-4.3598,-4.3598,-4.3598,-4.3598,-4.3598,-4.3598,-4.3598,-4.3598,-4.3598,-4.3582,-4.3482,-4.3085,-4.2423,-4.1624,-4.0928,-4.0326,-3.9597,-3.9299,-3.9299,-3.9299,-3.9299,-3.9299,-3.5504,-3.5504,-3.5504,-3.5504,-3.5504,-3.5504,-3.5504,-3.5504,-3.5504,-3.5504,-3.5504,-3.5504,-3.5504,-3.5504,-3.5439,-3.5326,-3.5261,-3.5148,-3.5034,-3.4883,-3.4783,-3.4783,-3.4683,-3.4582,-3.4515,-3.4515,-3.4515,-3.4515,-3.4515,-3.4481,-3.4414,-3.4481,-3.4597,-3.4698,-3.485,-3.5016,-3.5213,-3.5294,-3.5392,-3.5504,-3.5504,-3.5504,-3.5504,-3.5504,-3.5504,-3.5504,-3.5504,-3.5504,-3.5504,-3.5504,-3.5504,-3.5504,-3.5504,-3.5504,-3.5504,-3.5504,-3.5504,-3.5504,-3.5504,-3.5504,-3.5504,-3.5504,-3.5504,-3.5504,-3.5504,-3.5504,-3.5504,-3.5504,-3.5504,-3.5537,-3.5572,-3.5604,-3.5621,-3.5799,-3.5958,-3.6085,-3.6195,-3.6893,-3.7904,-3.933,-4.0056,-4.0768,-4.1677,-4.1977,-4.2325,-4.2789,-4.3007,-4.316,-4.3235,-4.3295,-4.3325,-4.3325,-4.3432,-4.3509,-4.3509,-4.3568,-4.3598,-4.3598,-4.3598,-4.3598,-4.3598,-4.3598,-4.3598,-4.3598,-4.3598,-4.3416,-4.3052,-4.2307,-4.1607,-4.0878,-4.0194,-3.9663,-3.9299,-3.9299,-3.9299,-3.9299]},{"header":{"parameterUnit":"m.s-1","parameterCategory":1,"la1":30.6,"la2":28.766,"lo1":-90.7593,"lo2":-88.6598,"dy":0.0162,"dx":0.0183,"nx":116,"ny":114,"refTime":"2023-03-05T18:00:00:Z","depth":0,"parameterNumber":3,"parameterNumberName":"V-component_of_WINDS"},"data":[0.0,0.0,0.0,0.0,0.0,0.0,0.0,0.0,0.0,0.0,0.0,0.0,0.0,0.0,0.0,0.0,0.0,0.0,0.0,0.0,0.0,0.0,0.0,0.0,0.0,0.0,0.0,0.0,0.0,0.0,0.0,0.0,0.0,0.0,0.0,0.0,0.0,0.0,0.0,0.0,0.0,0.0,0.0,0.0,0.0,0.0,0.0,0.0,0.0,0.0,0.0,0.0,0.0,0.0,0.0,0.0,0.0,0.0,0.0,0.0,0.0,0.0,0.0,0.0,0.0,0.0,0.0,0.0,0.0,0.0,0.0,0.0,0.0,0.0,0.0,0.0,0.0,0.0,0.0,0.0,0.0,0.0,0.0,0.0,0.0,0.0,0.0,0.0,0.0,0.0,0.0,0.0,0.0,0.0,0.0,0.0,0.0,0.0,0.0,0.0,0.0,0.0,0.0,0.0,0.0,0.0,0.0,0.0,0.0,0.0,0.0,0.0,0.0,0.0,0.0,0.0,0.0,0.0,0.0,0.0,0.0,0.0,0.0,0.0,0.0,0.0,0.0,0.0,0.0,0.0,0.0,0.0,0.0,0.0,0.0,0.0,0.0,0.0,0.0,0.0,0.0,0.0,0.0,0.0,0.0,0.0,0.0,0.0,0.0,0.0,0.0,0.0,0.0,0.0,0.0,0.0,0.0,0.0,0.0,0.0,0.0,0.0,0.0,0.0,0.0,0.0,0.0,0.0,0.0,0.0,0.0,0.0,0.0,0.0,0.0,0.0,0.0,0.0,0.0,0.0,0.0,0.0,0.0,0.0,0.0,0.0,0.0,0.0,0.0,0.0,0.0,0.0,0.0,0.0,0.0,0.0,0.0,0.0,0.0,0.0,0.0,0.0,0.0,0.0,0.0,0.0,0.0,0.0,0.0,0.0,0.0,0.0,0.0,0.0,0.0,0.0,0.0,0.0,0.0,0.0,0.0,0.0,0.0,0.0,0.0,0.0,0.0,0.0,0.0,0.0,0.0,0.0,0.0,0.0,0.0,0.0,0.0,0.0,0.0,0.0,0.0,0.0,0.0,0.0,0.0,0.0,0.0,0.0,0.0,0.0,0.0,0.0,0.0,0.0,0.0,0.0,0.0,0.0,0.0,0.0,0.0,0.0,0.0,0.0,0.0,0.0,0.0,0.0,0.0,0.0,0.0,0.0,0.0,0.0,0.0,0.0,0.0,0.0,0.0,0.0,0.0,0.0,0.0,0.0,0.0,0.0,0.0,0.0,0.0,0.0,0.0,0.0,0.0,0.0,0.0,0.0,0.0,0.0,0.0,0.0,0.0,0.0,0.0,0.0,0.0,0.0,0.0,0.0,0.0,0.0,0.0,0.0,0.0,0.0,0.0,0.0,0.0,0.0,0.0,0.0,0.0,0.0,0.0,0.0,0.0,0.0,0.0,0.0,0.0,0.0,0.0,0.0,0.0,0.0,0.0,0.0,0.0,0.0,0.0,0.0,0.0,0.0,0.0,0.0,0.0,0.0,0.0,0.0,0.0,0.0,0.0,0.0,0.0,0.0,0.0,0.0,0.0,0.0,0.0,0.0,0.0,0.0,0.0,0.0,0.0,0.0,0.0,0.0,0.0,0.0,0.0,0.0,0.0,0.0,0.0,0.0,0.0,0.0,0.0,0.0,0.0,0.0,0.0,0.0,0.0,0.0,0.0,0.0,0.0,0.0,0.0,0.0,0.0,0.0,0.0,0.0,0.0,0.0,0.0,0.0,0.0,0.0,0.0,0.0,0.0,0.0,0.0,0.0,0.0,0.0,0.0,0.0,0.0,0.0,0.0,0.0,0.0,0.0,0.0,0.0,0.0,0.0,0.0,0.0,0.0,0.0,0.0,0.0,0.0,0.0,0.0,0.0,0.0,0.0,0.0,0.0,0.0,0.0,0.0,0.0,0.0,0.0,0.0,0.0,0.0,0.0,0.0,0.0,0.0,0.0,0.0,0.0,0.0,0.0,0.0,0.0,0.0,0.0,0.0,0.0,0.0,0.0,0.0,0.0,0.0,0.0,0.0,0.0,0.0,0.0,0.0,0.0,0.0,0.0,0.0,0.0,0.0,0.0,0.0,0.0,0.0,0.0,0.0,0.0,0.0,0.0,0.0,0.0,0.0,0.0,0.0,0.0,0.0,0.0,0.0,0.0,0.0,0.0,0.0,0.0,0.0,0.0,0.0,0.0,0.0,0.0,0.0,0.0,0.0,0.0,0.0,0.0,0.0,0.0,0.0,0.0,0.0,0.0,0.0,0.0,0.0,0.0,0.0,0.0,0.0,0.0,0.0,0.0,0.0,0.0,0.0,0.0,0.0,0.0,0.0,0.0,0.0,0.0,0.0,0.0,0.0,0.0,0.0,0.0,0.0,0.0,0.0,0.0,0.0,0.0,0.0,0.0,0.0,0.0,0.0,0.0,0.0,0.0,0.0,0.0,0.0,0.0,0.0,0.0,0.0,0.0,0.0,0.0,0.0,0.0,0.0,0.0,0.0,0.0,0.0,0.0,0.0,0.0,0.0,0.0,0.0,0.0,0.0,0.0,0.0,0.0,0.0,0.0,0.0,0.0,0.0,0.0,0.0,0.0,0.0,0.0,0.0,0.0,0.0,0.0,0.0,0.0,0.0,0.0,0.0,0.0,0.0,0.0,0.0,0.0,0.0,0.0,0.0,0.0,0.0,0.0,0.0,0.0,0.0,0.0,0.0,0.0,0.0,0.0,0.0,0.0,0.0,0.0,0.0,0.0,0.0,0.0,0.0,0.0,0.0,0.0,0.0,0.0,0.0,0.0,0.0,0.0,0.0,0.0,0.0,0.0,0.0,0.0,0.0,0.0,0.0,0.0,0.0,0.0,0.0,0.0,0.0,0.0,0.0,0.0,0.0,0.0,0.0,0.0,0.0,0.0,0.0,0.0,0.0,0.0,0.0,0.0,0.0,0.0,0.0,0.0,0.0,0.0,0.0,0.0,0.0,0.0,0.0,0.0,0.0,0.0,0.0,0.0,0.0,0.0,0.0,0.0,0.0,0.0,0.0,0.0,0.0,0.0,0.0,0.0,0.0,0.0,0.0,0.0,0.0,0.0,0.0,0.0,0.0,0.0,0.0,0.0,0.0,0.0,0.0,0.0,0.0,0.0,0.0,0.0,0.0,0.0,0.0,0.0,0.0,0.0,0.0,0.0,0.0,0.0,0.0,0.0,0.0,0.0,0.0,0.0,0.0,0.0,0.0,0.0,0.0,0.0,0.0,0.0,0.0,0.0,0.0,0.0,0.0,0.0,0.0,0.0,0.0,0.0,0.0,0.0,0.0,0.0,0.0,0.0,0.0,0.0,0.0,0.0,0.0,0.0,0.0,0.0,0.0,0.0,0.0,0.0,0.0,0.0,0.0,0.0,0.0,0.0,0.0,0.0,0.0,0.0,0.0,0.0,0.0,0.0,0.0,0.0,0.0,0.0,0.0,0.0,0.0,0.0,0.0,0.0,0.0,0.0,0.0,0.0,0.0,0.0,0.0,0.0,0.0,0.0,0.0,0.0,0.0,0.0,0.0,0.0,0.0,0.0,0.0,0.0,0.0,0.0,0.0,0.0,0.0,0.0,0.0,0.0,0.0,0.0,0.0,0.0,0.0,0.0,0.0,0.0,0.0,0.0,0.0,0.0,0.0,0.0,0.0,0.0,0.0,0.0,0.0,0.0,0.0,0.0,0.0,0.0,0.0,0.0,0.0,0.0,0.0,0.0,0.0,0.0,0.0,0.0,0.0,0.0,0.0,0.0,0.0,0.0,0.0,0.0,0.0,0.0,0.0,0.0,0.0,0.0,0.0,0.0,0.0,0.0,0.0,0.0,0.0,0.0,0.0,0.0,0.0,0.0,0.0,0.0,0.0,0.0,0.0,0.0,0.0,0.0,0.0,0.0,0.0,0.0,0.0,0.0,0.0,0.0,0.0,0.0,0.0,0.0,0.0,0.0,0.0,0.0,0.0,0.0,0.0,0.0,0.0,0.0,0.0,0.0,0.0,0.0,0.0,0.0,0.0,0.0,0.0,0.0,0.0,0.0,0.0,0.0,0.0,0.0,0.0,0.0,0.0,0.0,0.0,0.0,0.0,0.0,0.0,0.0,0.0,0.0,0.0,0.0,0.0,0.0,0.0,0.0,0.0,0.0,0.0,0.0,0.0,0.0,0.0,0.0,0.0,0.0,0.0,0.0,0.0,0.0,0.0,0.0,0.0,0.0,0.0,0.0,0.0,0.0,0.0,0.0,0.0,0.0,0.0,0.0,0.0,0.0,0.0,0.0,0.0,0.0,0.0,0.0,0.0,0.0,0.0,0.0,0.0,0.0,0.0,0.0,0.0,0.0,0.0,0.0,0.0,0.0,0.0,0.0,0.0,0.0,0.0,0.0,0.0,0.0,0.0,0.0,0.0,0.0,0.0,0.0,0.0,0.0,0.0,0.0,0.0,0.0,0.0,0.0,0.0,0.0,0.0,0.0,0.0,0.0,0.0,0.0,0.0,0.0,0.0,0.0,0.0,0.0,0.0,0.0,0.0,0.0,0.0,0.0,0.0,0.0,0.0,0.0,0.0,0.0,0.0,0.0,0.0,0.0,0.0,0.0,0.0,0.0,0.0,0.0,0.0,0.0,0.0,0.0,0.0,0.0,0.0,0.0,0.0,0.0,0.0,0.0,0.0,0.0,0.0,0.0,0.0,0.0,0.0,0.0,0.0,0.0,0.0,0.0,0.0,0.0,0.0,0.0,0.0,0.0,0.0,0.0,0.0,0.0,0.0,0.0,0.0,0.0,0.0,0.0,0.0,0.0,0.0,0.0,0.0,0.0,0.0,0.0,0.0,0.0,0.0,0.0,0.0,0.0,0.0,0.0,0.0,0.0,0.0,0.0,0.0,0.0,0.0,0.0,0.0,0.0,0.0,0.0,0.0,0.0,0.0,0.0,0.0,0.0,0.0,0.0,0.0,0.0,0.0,0.0,0.0,0.0,0.0,0.0,0.0,0.0,0.0,0.0,0.0,0.0,0.0,0.0,0.0,0.0,0.0,0.0,0.0,0.0,0.0,0.0,0.0,0.0,0.0,0.0,0.0,0.0,0.0,0.0,0.0,0.0,0.0,0.0,0.0,0.0,0.0,0.0,0.0,0.0,0.0,0.0,0.0,0.0,0.0,0.0,0.0,0.0,0.0,0.0,0.0,0.0,0.0,0.0,0.0,0.0,0.0,0.0,0.0,0.0,0.0,0.0,0.0,0.0,0.0,0.0,0.0,0.0,0.0,0.0,0.0,0.0,0.0,0.0,0.0,0.0,0.0,0.0,0.0,0.0,0.0,0.0,0.0,0.0,0.0,0.0,0.0,0.0,0.0,0.0,0.0,0.0,0.0,0.0,0.0,0.0,0.0,0.0,0.0,0.0,0.0,0.0,0.0,0.0,0.0,0.0,0.0,0.0,0.0,0.0,0.0,0.0,0.0,0.0,0.0,0.0,0.0,0.0,0.0,0.0,0.0,0.0,0.0,0.0,0.0,0.0,0.0,0.0,0.0,0.0,0.0,0.0,0.0,0.0,0.0,0.0,0.0,0.0,0.0,0.0,0.0,0.0,0.0,0.0,0.0,0.0,0.0,0.0,0.0,0.0,0.0,0.0,0.0,0.0,0.0,0.0,0.0,0.0,0.0,0.0,0.0,0.0,0.0,0.0,0.0,0.0,0.0,0.0,0.0,0.0,0.0,0.0,0.0,0.0,0.0,0.0,0.0,0.0,0.0,0.0,0.0,0.0,0.0,0.0,0.0,0.0,0.0,0.0,0.0,0.0,0.0,0.0,0.0,0.0,0.0,0.0,0.0,0.0,0.0,0.0,0.0,0.0,0.0,0.0,0.0,0.0,0.0,0.0,0.0,0.0,0.0,0.0,0.0,0.0,0.0,0.0,0.0,0.0,0.0,0.0,0.0,0.0,0.0,0.0,0.0,0.0,0.0,0.0,0.0,0.0,0.0,0.0,0.0,0.0,0.0,0.0,0.0,0.0,0.0,0.0,0.0,0.0,0.0,0.0,0.0,0.0,0.9895,0.9712,0.0,0.0,0.0,0.0,0.0,0.0,0.0,0.0,0.0,0.0,0.0,0.0,0.0,0.0,0.0,0.0,0.0,0.0,0.0,0.0,0.0,0.0,0.0,0.0,0.0,0.0,0.0,0.0,0.0,0.0,0.0,0.0,0.0,0.0,0.0,0.0,0.0,0.0,1.9151,1.8999,1.884,1.8011,1.7132,1.6246,0.0,0.0,0.0,0.0,0.0,0.0,0.0,0.0,0.0,0.0,0.0,0.0,0.0,0.0,0.0,0.0,0.0,0.0,0.0,0.0,0.0,0.0,0.0,0.0,0.0,0.0,0.0,0.0,0.0,0.0,0.0,0.0,0.0,0.0,0.0,0.0,0.0,0.0,0.0,0.0,0.0,0.0,0.0,0.0,0.0,0.0,0.0,0.0,0.0,0.0,0.0,0.0,0.0,0.0,0.0,0.0,0.0,0.0,0.0,0.0,0.0,0.0,0.0,0.0,0.0,0.0,0.0,0.0,0.0,0.0,1.0323,1.0083,0.0,0.0,0.0,0.0,0.0,0.0,0.0,0.0,0.0,0.0,0.0,0.0,0.0,0.0,0.0,0.0,0.0,0.0,0.0,0.0,0.0,0.0,0.0,0.0,0.0,0.0,0.0,0.0,0.0,0.0,0.0,0.0,0.0,0.0,0.0,0.0,0.0,0.0,2.0071,1.9965,1.9755,1.9755,1.9162,1.8144,1.7943,0.0,0.0,0.0,0.0,0.0,0.0,0.0,0.0,0.0,0.0,0.0,0.0,0.0,0.0,0.0,0.0,0.0,0.0,0.0,0.0,0.0,0.0,0.0,0.0,0.0,0.0,0.0,0.0,0.0,0.0,0.0,0.0,0.0,0.0,0.0,0.0,0.0,0.0,0.0,0.0,0.0,0.0,0.0,0.0,0.0,0.0,0.0,0.0,0.0,0.0,0.0,0.0,0.0,0.0,0.0,0.0,0.0,0.0,0.0,0.0,0.0,0.0,0.0,1.2483,1.2229,1.1841,1.1787,1.1568,1.1308,1.0831,1.0521,1.0321,1.0347,0.0,0.0,0.0,0.0,0.0,0.0,0.0,0.0,0.0,0.0,0.0,0.0,0.0,0.0,0.0,0.0,0.0,0.0,0.0,0.0,0.0,0.0,0.0,0.0,0.0,0.0,0.0,0.0,0.0,0.0,0.0,0.0,0.0,2.1109,2.1109,2.1109,2.1109,2.1052,2.1052,2.1052,2.0814,2.0419,1.9242,1.8458,1.8017,0.0,0.0,0.0,0.0,0.0,0.0,0.0,0.0,0.0,0.0,0.0,0.0,0.0,0.0,0.0,0.0,0.0,0.0,0.0,0.0,0.0,0.0,0.0,0.0,0.0,0.0,0.0,0.0,0.0,0.0,0.0,0.0,0.0,0.0,0.0,0.0,0.0,0.0,0.0,0.0,0.0,1.6505,1.5654,0.0,0.0,0.0,0.0,0.0,0.0,0.0,0.0,0.0,0.0,0.0,0.0,0.0,1.4044,1.4044,1.4044,1.387,1.3524,1.3306,1.3019,1.2718,1.2441,1.2273,1.2223,1.1895,0.0,1.0504,1.059,0.0,0.0,0.0,0.0,0.0,0.0,0.0,0.0,0.0,0.0,0.0,0.0,0.0,0.0,0.0,0.0,0.0,0.0,0.0,0.0,0.0,0.0,0.0,0.0,0.0,0.0,0.0,0.0,0.0,0.0,0.0,0.0,0.0,2.1511,2.1511,2.1511,2.1511,2.1511,2.1511,2.1511,2.1465,2.1327,2.0763,2.0002,1.9267,1.9267,0.0,0.0,0.0,0.0,0.0,0.0,0.0,0.0,0.0,0.0,0.0,0.0,0.0,0.0,0.0,0.0,0.0,0.0,0.0,0.0,0.0,0.0,0.0,0.0,0.0,0.0,0.0,0.0,0.0,0.0,0.0,0.0,0.0,0.0,0.0,0.0,0.0,0.0,0.0,1.7481,1.7089,1.6541,1.6347,1.6023,0.0,0.0,0.0,0.0,0.0,0.0,0.0,0.0,0.0,1.4234,1.4498,1.4659,1.4659,1.4659,1.4498,1.4175,1.4067,1.3905,1.3635,1.3467,1.3413,1.3408,1.3093,1.2602,1.2032,1.1449,1.1148,1.1036,0.0,0.0,0.0,0.0,1.1707,1.187,0.0,0.0,0.0,0.0,0.0,0.0,0.0,0.0,0.0,0.0,0.0,0.0,0.0,0.0,0.0,1.7079,0.0,0.0,0.0,0.0,0.0,0.0,0.0,0.0,2.1963,2.2043,2.2043,2.2043,2.2043,2.2043,2.2043,2.2043,2.2043,2.1963,2.1963,2.1371,2.0307,2.0307,2.0118,1.9749,0.0,0.0,0.0,0.0,0.0,0.0,0.0,0.0,0.0,0.0,0.0,0.0,0.0,0.0,0.0,0.0,0.0,0.0,0.0,0.0,0.0,0.0,0.0,0.0,0.0,0.0,0.0,0.0,0.0,0.0,0.0,0.0,0.0,0.0,0.0,0.0,0.0,1.7893,1.7554,1.7172,1.687,1.6617,0.0,0.0,0.0,0.0,0.0,0.0,1.4654,1.4869,1.503,1.503,1.5303,1.541,1.541,1.541,1.5303,1.503,1.503,1.4869,1.4648,1.4541,1.4546,1.4493,1.4121,1.3802,1.3527,1.2387,1.1896,1.1787,1.1787,1.1841,1.1951,1.2169,1.2332,1.2441,0.0,0.0,0.0,0.0,0.0,0.0,0.0,0.0,0.0,0.0,0.0,0.0,0.0,0.0,1.6567,1.7405,1.8118,1.8932,0.0,0.0,0.0,0.0,0.0,0.0,2.2759,2.2925,2.3047,2.3047,2.3047,2.3047,2.3047,2.3047,2.2925,2.2759,2.2759,2.2061,2.096,2.096,2.0861,2.0696,2.0461,0.0,0.0,0.0,0.0,0.0,0.0,0.0,0.0,0.0,0.0,0.0,0.0,0.0,0.0,0.0,0.0,0.0,0.0,0.0,0.0,0.0,0.0,0.0,0.0,0.0,0.0,0.0,0.0,0.0,0.0,0.0,0.0,0.0,0.0,0.0,0.0,0.0,0.0,1.7226,1.7085,0.0,0.0,0.0,0.0,1.6236,1.601,1.5838,1.5832,1.6051,1.6217,1.6217,1.6471,1.6624,1.6624,1.6624,1.6471,1.6217,1.6217,1.6051,1.5838,1.5565,1.5452,1.5399,1.4815,1.4552,1.4444,1.331,1.2659,1.2387,1.2387,1.255,1.2827,1.2827,1.3207,1.3645,0.0,0.0,0.0,0.0,0.0,0.0,0.0,0.0,0.0,0.0,0.0,0.0,0.0,1.5529,1.6675,1.7782,1.8721,1.9597,2.0563,0.0,0.0,0.0,0.0,0.0,0.0,2.3917,2.3983,2.3983,2.3983,2.3917,2.3807,2.3807,2.3677,2.345,2.345,2.3047,2.2334,2.19,2.159,2.1382,2.1577,2.1695,0.0,0.0,0.0,0.0,0.0,0.0,0.0,0.0,0.0,0.0,0.0,0.0,0.0,0.0,0.0,0.0,0.0,0.0,0.0,0.0,0.0,0.0,0.0,0.0,0.0,0.0,0.0,0.0,0.0,0.0,0.0,0.0,0.0,0.0,0.0,0.0,0.0,1.7989,1.7802,0.0,1.7325,1.706,1.6802,1.6577,1.6471,1.6418,1.6418,1.6524,1.6577,1.6577,1.6624,1.6677,1.6677,1.6677,1.6624,1.6577,1.6577,1.6524,1.6418,1.6305,1.6252,1.6252,1.5838,1.5678,1.5624,1.5083,1.4331,1.3576,1.3576,1.363,1.3738,1.3954,1.4121,1.4283,0.0,0.0,0.0,0.0,0.0,0.0,0.0,0.0,0.0,0.0,0.0,1.3089,1.4314,1.5595,1.6794,1.7878,1.8985,2.0002,2.0952,0.0,0.0,0.0,2.3406,0.0,0.0,2.4775,2.4893,2.4978,2.4893,2.4775,2.4625,2.4572,2.4358,2.4024,2.4024,2.3797,2.3309,2.2882,2.2397,2.1982,2.2241,2.229,2.2281,0.0,0.0,0.0,0.0,0.0,0.0,0.0,0.0,0.0,0.0,0.0,0.0,0.0,0.0,0.0,0.0,0.0,0.0,0.0,0.0,0.0,0.0,0.0,0.0,0.0,0.0,0.0,0.0,0.0,0.0,0.0,0.0,0.0,0.0,1.9155,1.9024,1.86,1.837,1.816,1.7898,1.7648,1.7384,1.716,1.7054,1.6995,1.6995,1.6995,1.6995,1.6995,1.6995,1.6995,1.6995,1.6995,1.6995,1.6995,1.6995,1.6995,1.6995,1.6895,1.6849,1.6842,1.6583,1.6424,1.6424,1.6258,1.5719,1.5024,1.4863,1.4761,1.4815,1.4976,1.5089,1.5196,0.0,0.0,0.0,0.0,0.0,0.0,0.0,0.0,0.0,0.0,1.1755,1.3179,1.4027,1.5561,1.6882,1.7667,1.8896,2.0002,2.0952,2.1891,0.0,0.0,0.0,0.0,2.5496,2.5516,2.5653,2.5915,2.5631,2.5495,2.5453,2.5284,2.4904,2.4456,2.4456,2.4209,2.3777,2.3777,2.3256,2.2441,2.2441,2.2669,2.2983,0.0,0.0,0.0,0.0,0.0,0.0,0.0,0.0,0.0,0.0,0.0,0.0,0.0,0.0,0.0,0.0,0.0,0.0,0.0,0.0,0.0,0.0,0.0,0.0,0.0,0.0,0.0,0.0,0.0,0.0,0.0,0.0,0.0,1.9835,1.9732,1.9517,1.893,1.8826,1.8729,1.8475,1.8167,1.8016,1.8016,1.7747,1.7635,1.7635,1.7635,1.7635,1.7582,1.7582,1.7582,1.7582,1.7582,1.7582,1.7582,1.7582,1.7582,1.7582,1.7331,1.7226,1.7179,1.6895,1.673,1.673,1.673,1.673,1.6677,1.6152,1.5945,1.5945,1.5945,1.6105,1.6377,0.0,0.0,0.0,0.0,0.0,0.0,0.0,0.0,0.0,0.0,1.1177,1.2483,1.3724,1.5179,1.6557,1.7846,1.9126,2.0311,2.1419,0.0,0.0,0.0,0.0,0.0,2.577,2.5587,2.5617,2.5821,2.5362,2.4985,2.4686,2.4646,2.4322,2.3762,2.3762,2.3691,2.358,2.358,2.3506,2.3406,2.3276,2.3037,2.2863,0.0,0.0,0.0,0.0,0.0,0.0,0.0,0.0,0.0,0.0,0.0,0.0,0.0,0.0,0.0,0.0,0.0,0.0,0.0,0.0,0.0,0.0,0.0,0.0,0.0,0.0,0.0,0.0,0.0,0.0,0.0,2.2072,2.1725,2.0712,2.0411,2.0205,2.0042,1.9524,1.9108,1.9063,1.8586,1.8265,1.8265,1.8213,1.8108,1.7905,1.7911,1.7799,1.7635,1.7582,1.7582,1.7582,1.7582,1.7582,1.7582,1.7582,1.7582,1.7582,1.7536,1.7483,1.7483,1.7371,1.7371,1.7371,1.7371,1.7371,1.7312,1.673,1.6465,1.6465,1.6465,1.6524,1.663,0.0,0.0,0.0,0.0,0.0,0.0,0.0,0.0,0.0,0.0,1.0626,1.1984,1.338,1.4872,1.6325,1.766,1.8988,2.0221,2.132,0.0,0.0,0.0,0.0,2.5174,2.5714,2.5484,2.5469,2.5758,2.5363,2.4982,2.469,2.4561,2.4205,2.3627,2.3627,2.3532,2.3381,2.3576,2.3676,2.3665,2.378,2.3547,2.3261,2.3374,2.3444,2.3541,2.4142,2.4449,2.467,2.4994,0.0,0.0,0.0,0.0,0.0,0.0,0.0,0.0,0.0,0.0,0.0,0.0,0.0,0.0,0.0,0.0,0.0,0.0,0.0,0.0,0.0,0.0,0.0,0.0,2.3079,2.2778,2.2173,2.1573,2.1121,2.1019,2.0403,1.9946,1.9798,1.916,1.8795,1.8795,1.8527,1.8318,1.8167,1.8174,1.8115,1.795,1.795,1.7898,1.7747,1.7747,1.7694,1.7582,1.7582,1.7582,1.7582,1.7582,1.7582,1.7582,1.7582,1.7582,1.7582,1.7582,1.7582,0.0,0.0,0.0,0.0,0.0,1.71,1.7107,0.0,0.0,0.0,0.0,0.0,0.0,0.0,0.0,0.0,0.0,0.0,1.156,1.2838,1.4558,1.6035,1.7131,1.8619,1.9911,0.0,0.0,0.0,2.4454,2.4441,2.4736,2.5459,2.5115,2.5149,2.5547,2.5324,2.5108,2.4876,2.4609,2.4189,2.3618,2.3629,2.3452,2.3215,2.3629,2.3732,2.3635,2.4086,2.4067,2.3797,2.358,2.3775,2.4083,2.434,2.4715,2.5068,2.5266,0.0,0.0,0.0,0.0,0.0,0.0,0.0,0.0,0.0,0.0,0.0,0.0,0.0,0.0,0.0,0.0,0.0,0.0,0.0,0.0,0.0,0.0,0.0,0.0,2.3976,2.3827,2.3827,2.2979,2.2173,2.1818,2.1326,2.0865,2.0565,1.9843,1.9435,1.9376,1.8848,1.8527,1.8475,1.8475,0.0,0.0,0.0,1.8272,1.8069,1.8069,1.7911,1.7687,1.7635,1.7635,1.7635,1.7635,1.7582,1.7582,1.7549,1.7528,1.7528,1.7495,1.7502,1.7535,1.7569,1.7582,1.7582,1.7582,1.7582,1.7582,0.0,0.0,0.0,0.0,0.0,0.0,0.0,0.0,0.0,0.7593,0.9171,1.0741,1.2066,1.3636,1.5188,1.6601,1.7917,1.9484,0.0,0.0,2.3319,2.4209,2.4042,2.4344,2.5256,2.439,2.4172,2.463,2.4198,2.3847,2.366,2.3425,2.3086,2.2679,2.2488,2.2726,2.3194,2.3287,2.3701,2.433,2.4423,2.4186,2.3797,2.3754,2.3804,2.3941,2.4514,2.4759,2.4957,2.5469,2.5635,2.5586,2.5538,2.5538,0.0,0.0,0.0,0.0,0.0,0.0,0.0,0.0,0.0,0.0,0.0,0.0,0.0,0.0,0.0,0.0,0.0,0.0,0.0,2.4735,2.4686,2.4686,2.4686,2.4134,2.3379,2.2476,2.1869,2.1369,2.0873,2.047,2.0205,1.9983,1.962,1.9368,1.9116,1.8914,1.8698,1.8422,1.8422,1.837,1.8318,1.8318,1.8325,1.8265,0.0,0.0,1.7911,1.7694,1.7582,1.7569,1.7387,1.7286,1.7266,1.6974,1.7014,1.7306,1.7548,1.7582,1.7582,1.7582,1.7582,1.7549,0.0,0.0,0.0,0.0,0.0,0.0,0.0,0.0,0.0,0.0,0.8256,0.9681,1.1165,1.2753,1.428,1.5704,1.7537,0.0,0.0,2.1802,2.2599,2.3484,2.3281,2.3505,2.4279,2.3466,2.3248,2.37,2.342,2.3187,2.3001,2.2889,2.2681,2.2398,2.2283,2.2482,2.2869,2.3094,2.3451,2.388,2.4061,2.411,2.398,2.398,2.398,2.4092,2.4766,2.4995,2.5125,2.5871,2.6014,2.5917,2.5917,2.583,2.5684,0.0,0.0,0.0,0.0,0.0,0.0,0.0,0.0,0.0,0.0,0.0,0.0,0.0,0.0,2.5088,2.5088,0.0,2.5284,2.5284,2.5186,2.5088,2.5088,2.4735,2.4183,2.3379,2.2728,2.2123,2.1725,2.1326,2.0917,2.0557,2.0248,1.999,1.9732,1.9428,1.922,1.9049,1.89,1.8795,1.8646,1.8646,1.8593,1.8422,1.8272,1.822,1.8213,1.7807,1.7583,1.7569,1.7156,1.6927,1.6914,1.6767,1.6794,1.6954,1.7306,1.7455,1.7562,1.7474,1.742,1.7373,0.0,0.0,0.0,0.0,0.0,0.0,0.0,0.0,0.0,0.0,0.7239,0.8623,1.0146,1.1737,1.3355,0.0,0.0,0.0,0.0,2.0844,2.1695,2.2476,2.2272,2.2472,2.3062,2.2495,2.2327,2.2703,2.274,2.2665,2.2515,2.2536,2.2426,2.2284,2.2287,2.2342,2.2509,2.291,2.3163,2.3305,2.3614,2.3894,2.411,2.411,2.4163,2.4362,2.5037,2.527,2.5411,2.6194,2.6352,2.6197,2.6197,2.6014,2.583,2.5781,2.5781,0.0,0.0,0.0,0.0,0.0,0.0,0.0,0.0,2.5538,2.5382,2.5382,2.5382,2.5382,2.5382,2.5538,2.5693,2.5693,2.5538,2.5382,2.5382,2.5137,2.4833,2.4381,2.3628,2.3029,2.2677,2.2224,2.1725,2.1173,2.0873,2.0609,2.0292,1.999,1.9783,1.968,1.948,1.9227,1.8974,1.8974,1.8862,1.8579,1.8534,1.8447,1.8383,1.7888,1.7647,1.7571,1.7004,1.6736,1.6688,1.6699,1.6726,1.6753,1.6998,1.7208,1.7388,1.7266,1.7166,1.7072,0.0,0.0,0.0,0.0,0.0,0.0,0.0,0.0,0.0,0.0,0.0,0.0,0.0,0.0,0.0,0.0,0.0,0.0,1.8888,1.9658,2.0529,2.1427,2.1148,2.1288,2.194,2.1559,2.1436,2.1655,2.1845,2.1921,2.1883,2.191,2.1878,2.1869,2.1856,2.2114,2.2484,2.2575,2.2906,2.3477,2.3527,2.3677,2.3841,2.3841,2.41,2.4524,2.5217,2.5452,2.5584,2.6242,2.6496,2.6448,2.6448,2.6448,2.6352,2.6149,2.6052,2.6004,2.5781,2.5693,2.5693,2.5693,2.5693,2.5693,0.0,2.5684,2.5635,2.5635,2.5635,2.5635,2.5635,2.5684,2.5693,2.5693,2.5684,2.5635,2.5635,2.544,2.5235,2.5186,2.448,2.3786,2.3279,2.2929,2.2526,2.203,2.1725,2.1318,2.0814,2.0565,2.0205,1.9732,1.968,1.9532,1.9279,1.9279,1.9227,1.922,1.8966,1.8667,1.8388,1.8091,1.777,1.7491,1.7127,1.6842,1.6619,1.6656,1.6682,1.6702,1.6746,1.6774,1.6827,1.7112,1.7032,1.6714,0.0,0.0,0.0,0.0,0.0,0.0,0.0,0.0,0.0,0.0,0.0,0.0,0.0,0.0,0.0,0.0,0.0,0.0,1.7436,1.8365,1.9293,2.0204,2.0175,2.0391,2.1047,2.0604,2.0456,2.0586,2.0653,2.083,2.1046,2.1033,2.1231,2.1556,2.156,2.1745,2.2011,2.2011,2.229,2.2671,2.2671,2.2891,2.3261,2.3649,2.4003,2.4391,2.5228,2.5717,0.0,0.0,2.6842,2.6747,2.6747,2.6651,2.6496,2.6352,2.6342,2.6245,2.6014,2.583,2.5693,2.5693,2.5693,2.5693,2.5693,2.5693,2.5693,2.5693,2.5693,2.5693,2.5693,2.5693,2.5693,2.5693,2.5693,2.5693,2.5693,2.5586,2.5538,2.5538,2.5357,2.5002,2.4482,2.4347,2.4034,2.3286,2.2911,2.2409,2.1632,2.1224,2.0763,2.0403,1.9939,1.9628,1.9524,1.9376,1.9279,1.9279,1.8986,1.8774,1.8629,1.7953,1.7415,1.6959,1.6833,1.67,1.6595,1.6633,1.6641,1.6676,1.6821,1.6689,1.6434,1.6632,1.661,1.6413,0.0,0.0,0.0,0.0,0.0,0.0,0.0,0.0,0.0,0.0,0.0,0.0,0.0,0.0,0.0,0.0,0.0,0.0,0.0,1.6821,1.7755,1.8742,1.895,1.9301,1.9867,1.9605,1.9506,1.9555,1.9604,1.9841,2.0177,2.0214,2.0497,2.1005,2.1071,2.1192,2.1329,2.1329,2.1463,2.1687,2.1776,2.2108,2.264,2.3268,2.3699,2.418,2.5249,2.5905,0.0,0.0,2.7129,2.6996,2.6996,2.689,2.6688,2.6651,2.6544,2.6448,2.6245,2.6062,2.5878,2.583,2.583,2.5781,2.5742,2.5693,2.5693,2.5693,2.5693,2.5693,2.5693,2.5693,2.5693,2.5693,2.5693,2.5693,2.5693,2.5693,2.5732,2.5908,2.614,2.6189,2.5888,2.5717,2.524,2.441,2.4025,2.3449,2.2493,2.1928,2.142,2.1019,2.0351,1.9939,1.968,1.9532,1.9376,1.9324,1.8942,1.8738,1.8635,1.779,1.718,1.677,1.677,1.677,1.677,1.673,1.673,1.6704,1.6826,1.6641,1.634,1.6361,1.6298,1.6119,0.0,0.0,0.0,0.0,0.0,0.0,0.0,0.0,0.0,0.0,0.0,0.0,0.0,0.0,0.0,0.0,0.0,0.0,0.0,1.5073,1.5927,1.6929,1.737,1.7785,1.8263,1.8491,1.8647,1.863,1.8888,1.9144,1.9324,1.9522,1.9763,2.0052,2.0247,2.0329,2.0337,2.0337,2.0464,2.0682,2.0952,2.1409,2.1988,2.2547,2.3243,2.4087,2.5332,0.0,0.0,0.0,2.7081,2.7309,2.7309,2.7262,0.0,2.6948,2.6699,0.0,2.6496,2.6496,2.64,2.6149,2.61,2.6004,2.5781,2.5693,2.5693,2.5693,2.5693,2.5693,2.5693,2.5693,2.5693,2.5693,2.5693,2.5693,2.5693,2.5693,2.5849,2.6318,2.6738,2.7158,2.7588,2.673,2.5899,2.5232,2.4891,2.4312,2.3297,2.2728,2.2072,2.1318,2.1019,2.0506,1.9732,1.968,1.9576,1.9324,1.8942,1.8621,1.8291,1.7592,1.7293,1.7279,1.7279,1.7279,1.7286,1.7066,1.6979,1.6979,1.6697,1.6588,1.6588,1.6595,1.6265,1.5838,0.0,0.0,0.0,0.0,0.0,0.0,0.0,0.0,0.0,0.0,0.0,0.0,0.0,0.0,0.0,0.0,0.0,0.0,0.0,1.3644,1.4507,1.5419,1.6027,1.6487,1.6744,1.7176,1.7374,1.7275,1.7486,1.7771,1.8097,1.8171,1.8406,1.8736,1.881,1.8819,1.8866,1.8996,1.9163,1.9455,2.0126,2.0581,2.1023,2.2253,2.2964,2.3526,0.0,0.0,0.0,0.0,0.0,0.0,2.7262,0.0,2.7262,2.7167,2.6986,2.6757,2.6757,2.6651,2.6496,2.64,2.6352,2.6352,2.6255,2.611,2.5965,2.5965,2.6055,2.6172,2.6172,2.6172,2.6172,2.6172,2.5879,2.5693,2.5693,2.5693,2.5742,2.5937,2.6582,2.707,2.7217,2.7033,2.6668,2.6155,2.5607,2.4857,2.3904,2.3479,2.2929,2.2123,2.1471,2.0968,2.0506,1.999,1.9628,1.9569,1.8824,1.8182,1.7647,1.7381,1.7279,1.7279,1.7279,1.7279,1.7279,1.7239,1.72,1.72,1.7099,1.6965,1.6878,1.6878,1.6636,1.6353,0.0,0.0,0.0,0.0,0.0,0.0,0.0,0.0,0.0,0.0,0.0,0.0,0.0,0.0,0.0,0.0,0.0,0.0,0.0,0.0,1.2883,1.3692,1.4507,1.5098,1.5391,1.5903,1.6176,1.6063,1.6283,1.6564,1.6904,1.7004,1.7213,1.7567,1.7567,1.7567,1.7574,1.7819,1.8052,1.8356,1.9225,1.9782,2.0272,2.1635,2.24,0.0,0.0,0.0,0.0,0.0,0.0,0.0,0.0,0.0,2.7309,2.7309,2.7167,2.7034,2.7034,2.6938,2.6736,2.6651,2.6651,2.6643,2.6746,2.6641,2.6534,2.6694,2.6864,2.6912,2.6752,2.6752,2.6702,2.6611,2.625,2.5967,2.5967,2.5791,2.5742,2.5947,2.6455,2.6846,2.7002,2.6965,2.6882,2.6756,2.6097,2.5317,2.4557,2.4075,2.3578,2.2929,2.2131,2.1522,2.107,2.0454,1.9869,1.9314,1.8528,1.7845,1.7279,1.7279,1.7279,1.7279,1.7279,1.7279,1.7279,1.7279,1.7279,1.7279,1.7279,1.7239,1.7113,1.7113,1.7012,1.6817,0.0,0.0,0.0,0.0,0.0,0.0,0.0,0.0,0.0,0.0,0.0,0.0,0.0,0.0,0.0,0.0,0.0,0.0,0.0,0.0,0.0,1.1858,1.2877,1.3661,1.4154,1.4723,1.5003,1.5003,1.5194,1.5432,1.5704,1.5947,1.6244,1.644,1.6487,1.6487,1.6508,1.6766,1.7029,1.7389,1.8216,1.893,1.9625,2.0742,0.0,0.0,0.0,0.0,0.0,2.5353,2.6245,2.69,2.69,2.7081,2.7309,2.7309,2.7309,2.7309,2.7309,2.7309,2.7214,2.6996,2.6921,2.6995,2.7168,2.723,2.7371,2.7804,2.7905,2.7814,2.753,2.748,2.7378,2.7092,2.674,2.6466,2.6436,2.6035,2.5869,2.6309,2.6377,2.6543,2.6943,2.6621,2.6553,2.6953,2.633,2.5766,2.5313,2.4578,2.4035,2.3728,2.2979,2.2173,2.1377,2.1054,2.014,1.8678,1.8115,1.7647,1.7279,1.7279,1.7279,1.7279,1.7279,1.7279,1.7279,1.7279,1.7279,1.7279,1.7279,1.7279,1.7279,1.7279,1.7279,1.7286,0.0,0.0,0.0,0.0,0.0,0.0,0.0,0.0,0.0,0.0,0.0,0.0,0.0,0.0,0.0,0.0,0.0,0.0,0.0,0.0,0.0,0.0,0.0,0.0,0.0,0.0,0.0,1.3601,1.3848,1.404,1.4082,1.4376,1.4526,1.4621,1.4819,1.4873,1.4885,1.5356,1.5673,1.6117,0.0,1.8022,1.8491,0.0,0.0,0.0,0.0,0.0,2.3976,2.5255,2.6245,2.69,2.69,2.7081,2.7309,2.7309,2.7309,2.7309,2.7309,2.7309,2.7262,2.7214,2.7414,2.7644,2.7708,2.7848,2.7964,2.8086,2.8228,2.8317,2.8256,2.8204,2.8214,2.8111,2.7579,2.7021,2.6755,2.6428,2.6143,2.5928,2.6191,2.6426,2.6533,2.6455,2.6435,2.6543,2.6044,2.5654,2.5342,2.5088,2.4686,2.4035,2.3628,2.3029,2.2173,2.1109,1.9906,1.8678,1.8268,1.7798,1.7279,1.7279,1.7279,1.7279,1.7279,1.7279,1.7279,1.7279,1.7279,1.7279,1.7279,1.7279,1.7279,1.7279,1.7279,1.7279,0.0,0.0,0.0,0.0,0.0,0.0,0.0,0.0,0.0,0.0,0.0,0.0,0.0,0.0,0.0,0.0,0.0,0.0,0.0,0.0,0.0,0.0,0.0,0.0,0.0,0.0,0.0,0.0,0.0,0.0,1.3039,1.3286,1.3431,1.3426,1.3576,1.3688,1.3803,1.4304,0.0,0.0,0.0,0.0,0.0,0.0,0.0,0.0,0.0,0.0,2.3827,2.4815,2.58,2.6592,2.6853,2.7081,2.7309,2.7309,2.7309,2.7309,2.7309,2.7309,2.7351,2.75,2.7738,2.8028,2.8442,2.8621,2.8757,2.8962,2.9065,2.9134,2.8978,2.8978,2.8926,2.877,2.8294,2.7811,2.7572,2.7012,2.6478,2.6183,2.6114,2.6103,2.6103,2.6103,2.6103,2.6103,2.583,2.5635,2.5489,2.5333,2.5079,2.4637,2.4134,2.3349,2.2295,2.0875,1.9791,1.8954,1.8298,1.7807,1.7481,1.7333,1.7279,1.7279,1.7279,1.7279,1.7279,1.7279,1.7279,1.7279,1.7279,1.7279,1.7279,1.7279,1.7374,1.7545,0.0,0.0,0.0,0.0,0.0,0.0,0.0,0.0,0.0,0.0,0.0,0.0,0.0,0.0,0.0,0.0,0.0,0.0,0.0,0.0,0.0,0.0,0.0,0.0,0.0,0.0,0.0,0.0,0.0,0.0,0.0,0.0,0.0,0.0,0.0,0.0,0.0,0.0,0.0,0.0,0.0,0.0,0.0,0.0,0.0,0.0,0.0,0.0,0.0,2.4183,2.5118,2.6149,2.6699,2.7034,2.7262,2.7309,2.7309,2.7309,2.7309,2.7309,2.7413,2.781,2.7966,2.8245,2.9104,2.9352,2.9508,2.9911,2.9994,2.9942,2.9722,2.9659,2.9554,2.929,2.8925,2.86,2.854,2.7662,2.7013,2.6953,2.6271,2.5869,2.5869,2.5771,2.5693,2.5693,2.5693,2.5693,2.5693,2.5489,2.5333,2.5235,2.4433,2.3404,2.2045,2.0736,1.979,1.9304,1.8301,1.7768,1.7675,1.7481,1.7326,1.7279,1.7279,1.7279,1.7279,1.7279,1.7279,1.7279,1.7279,1.7279,1.7279,1.7279,1.749,1.7816,0.0,0.0,0.0,0.0,0.0,0.0,0.0,0.0,0.0,0.0,-0.0393,0.0841,0.0,0.0,0.0,0.0,0.0,0.0,0.0,0.0,0.0,0.0,0.0,0.0,0.0,0.0,0.0,0.0,0.0,0.0,0.0,0.0,0.0,0.0,0.0,0.0,0.0,0.0,0.0,0.0,0.0,0.0,0.0,0.0,0.0,0.0,0.0,0.0,0.0,0.0,2.4716,2.5849,2.64,2.6747,2.6996,2.7214,2.7309,2.7309,2.7309,2.7309,2.7413,2.781,2.8214,2.8638,2.9177,2.9601,2.9901,2.9973,2.9994,2.9994,2.9942,2.9942,2.9889,2.9837,2.9597,2.9257,2.888,2.8491,2.8075,2.7764,2.7073,2.6596,2.6596,2.6035,2.5693,2.5693,2.5693,2.5693,2.5693,2.5635,2.544,2.4981,2.4066,2.3174,2.2339,2.1263,2.0276,1.9304,1.8808,1.8272,1.7675,1.7628,1.7527,1.7279,1.7279,0.0,1.7279,1.7279,1.7279,1.7279,1.7279,1.7279,1.7279,1.7279,1.749,1.7816,0.0,0.0,0.0,0.0,0.0,0.0,0.0,-0.3977,-0.3195,-0.2131,-0.1009,0.0112,0.1234,0.1739,0.23,0.0,0.0,0.0,0.0,0.0,0.0,0.0,0.0,0.0,0.0,0.0,0.0,0.0,0.0,0.0,0.0,0.0,0.0,0.0,0.0,0.0,0.0,0.0,0.0,0.0,0.0,0.0,0.0,0.0,0.0,0.0,0.0,0.0,0.0,0.0,2.4076,2.5088,2.5869,2.6448,2.6948,2.7034,2.7167,2.7309,2.7309,2.7427,2.7717,2.8173,2.8628,2.9094,2.9559,2.9839,2.9994,2.9994,2.9994,2.9994,2.9994,2.9994,2.9994,2.9994,2.9879,2.9755,2.9476,2.9033,2.8655,2.8442,2.7573,2.6963,2.6804,2.627,2.5868,2.5684,2.5693,2.5693,2.5693,2.5693,2.5538,2.5137,2.4195,2.3398,2.2709,2.1526,2.0445,1.9594,1.9046,1.8504,1.7908,1.7768,1.7527,1.7279,1.7279,1.7279,1.7279,1.7279,1.7279,1.7279,1.7279,1.7279,1.7301,1.7523,1.7786,1.8094,0.0,0.0,0.0,0.0,0.0,0.0,0.0,-0.4203,-0.3589,-0.2356,-0.1514,-0.0505,0.0673,0.1346,0.1964,0.0,0.0,0.0,0.0,0.0,0.0,0.0,0.0,0.0,0.0,0.0,0.0,0.9642,1.0188,0.0,0.0,0.0,0.0,0.0,1.0876,0.0,0.0,0.0,0.0,0.0,0.0,0.0,0.0,0.0,0.0,0.0,0.0,0.0,0.0,0.0,2.3557,2.4386,2.5332,2.6231,2.6944,2.7138,2.7321,2.7514,2.7552,2.78,2.8183,2.8649,2.9032,2.9425,2.9891,2.9994,2.9994,2.9994,2.9994,2.9994,2.9994,2.9994,2.9994,2.9994,2.9994,2.9994,2.9994,2.9518,2.9126,2.9126,2.8228,2.7451,2.7152,2.6595,2.6112,2.5791,2.5732,2.5693,2.5693,2.5693,2.5586,2.5294,2.4486,2.3727,2.2989,2.1757,2.0769,1.9973,1.9288,1.8735,1.8226,1.7955,1.7621,1.738,1.7326,1.7279,1.7279,1.7279,1.7279,1.7279,1.7279,1.7279,1.7323,1.7691,1.8021,1.835,0.0,0.0,0.0,0.0,0.0,0.0,0.0,-0.4203,-0.3589,-0.2356,-0.1627,-0.0841,0.0336,0.1009,0.1739,0.0,0.0,0.0,0.0,0.0,0.0,0.0,0.0,0.0,0.0,0.0,0.0,0.9696,0.9763,0.0,0.0,0.0,0.0,0.0,0.0,1.0901,1.098,0.0,0.0,0.0,0.0,0.0,0.0,0.0,0.0,0.0,0.0,1.9696,2.0914,2.236,2.3385,2.4167,2.5079,2.6119,2.7148,2.7864,2.8115,2.8155,2.8394,2.8524,2.8659,2.9125,2.927,2.9425,2.9891,2.9994,2.9994,2.9994,2.9994,2.9994,2.9994,2.9994,2.9994,2.9994,2.9994,2.9994,2.9994,2.9953,2.988,2.988,2.9219,2.8594,2.8126,2.7242,2.6527,2.6082,2.583,2.5693,2.5693,2.5693,2.5586,2.5294,2.4862,2.4098,2.3036,2.226,2.1359,2.0246,1.9762,1.9258,1.8735,1.8272,1.79,1.7628,1.7426,1.7279,0.0,1.7279,1.7279,1.7279,1.7279,1.7279,1.7323,1.7691,1.8021,1.835,0.0,0.0,0.0,0.0,0.0,0.0,-0.4648,-0.4369,-0.3867,-0.2637,-0.1964,-0.1177,0.0056,0.0673,0.1402,0.23,0.0,0.0,0.0,0.0,0.0,0.0,0.0,0.0,0.0,0.0,0.8745,0.9485,0.9738,0.0,0.0,0.0,0.0,0.0,0.0,1.0808,1.0812,0.0,0.0,0.0,0.0,0.0,0.0,0.0,0.0,0.0,0.0,0.0,2.0278,2.1604,2.2757,2.388,2.5138,2.6122,2.6825,2.7312,2.7824,2.8237,2.8328,2.8674,2.9073,2.9259,2.9508,2.9766,2.9953,2.9994,2.9994,2.9994,2.9994,2.9994,2.9994,2.9994,2.9994,2.9994,2.9994,0.0,2.9994,2.9994,2.9994,2.9994,2.9477,2.8901,2.8237,2.765,2.6959,2.6179,2.6004,2.5868,2.5684,2.5693,2.5635,2.5538,2.5006,2.4288,2.3448,2.2631,2.1679,2.0518,2.0027,1.9548,1.9098,1.8628,1.8356,1.829,1.7802,1.7618,0.0,1.7359,1.7279,1.7279,1.7279,1.7403,1.7662,1.7991,1.8313,1.8642,0.0,0.0,0.0,0.0,0.0,-0.5485,-0.4648,-0.4424,-0.3923,-0.2693,-0.2028,-0.1186,0.0,0.0624,0.1193,0.2036,0.2476,0.0,0.0,0.0,0.0,0.0,0.0,0.0,0.0,0.0,0.8508,0.9204,0.9689,1.0074,0.0,0.0,1.0692,1.0692,0.0,0.0,0.0,0.0,0.0,0.0,0.0,0.0,0.0,0.0,0.0,0.0,0.0,0.0,0.0,0.0,0.0,2.3519,2.4875,0.0,0.0,2.7193,2.7847,2.837,2.8574,2.9065,2.9508,2.9508,2.9756,2.9994,2.9994,2.9994,2.9994,2.9994,2.9994,2.9994,2.9994,2.9994,2.9994,0.0,0.0,2.9994,2.9994,2.9994,2.9994,2.9994,2.9704,2.927,2.8593,2.7979,2.7203,2.6275,2.6149,2.6004,2.582,2.5732,2.5693,2.5693,2.5228,2.4669,2.4002,2.3252,2.2354,2.1269,2.0672,2.0165,1.9702,1.9216,1.8913,1.8769,1.8197,1.7856,0.0,1.7465,1.7279,1.7286,1.7388,1.7611,1.7867,1.8291,1.8591,1.884,0.0,0.0,0.0,0.0,0.0,0.0,-0.4648,-0.4203,-0.3589,-0.2356,-0.1707,-0.0862,0.0345,0.0758,0.117,0.1727,0.2379,0.0,0.0,0.0,0.0,0.0,0.0,0.0,0.0,0.0,0.8042,0.8916,0.9533,0.9978,1.0308,1.0582,1.0692,1.0692,0.0,0.0,0.0,0.0,0.0,0.0,0.0,0.0,0.0,0.0,0.0,0.0,0.0,0.0,0.0,0.0,0.0,0.0,0.0,0.0,0.0,0.0,2.8475,2.8837,2.9428,2.9764,2.9984,2.9984,2.9994,2.9994,2.9994,2.9994,2.9994,2.9994,2.9994,2.9994,2.9994,2.9994,2.9994,2.9994,2.9994,0.0,2.9994,2.9994,2.9994,2.9994,2.9994,2.9808,2.9342,2.8263,2.7311,2.6526,2.6245,2.61,2.61,2.582,2.5693,2.5693,2.5684,2.5363,2.4726,2.424,2.35,2.2593,2.1843,2.1182,2.066,2.0111,1.9624,1.9079,1.8479,1.8049,0.0,1.7465,1.7279,1.7315,1.7684,1.7808,1.7889,1.8547,1.8789,1.884,0.0,0.0,0.0,0.0,0.0,0.0,0.0,-0.3819,-0.3307,-0.2111,-0.1389,-0.0643,0.0409,0.094,0.1411,0.1813,0.2363,0.0,0.0,0.0,0.0,0.0,0.0,0.0,0.0,0.0,0.8045,0.892,0.9482,0.9981,1.0312,1.0582,1.0692,1.0692,1.0692,1.0692,0.0,0.0,0.0,0.0,0.0,0.0,0.0,0.0,0.0,0.0,0.0,0.0,0.0,0.0,0.0,0.0,0.0,0.0,0.0,0.0,0.0,2.8548,2.9132,2.9501,2.9774,2.9942,2.9994,2.9994,2.9994,2.9994,2.9994,2.9994,2.9994,2.9994,2.9994,2.9994,2.9994,2.9994,2.9994,0.0,2.9994,2.9994,2.9994,2.9994,2.9435,2.899,2.8845,2.7958,2.7225,2.6805,2.6699,2.6554,2.64,2.611,2.5868,2.5693,2.5693,2.5373,2.4726,2.4355,2.3766,2.2838,2.2081,2.1559,2.1277,2.058,2.0053,1.9735,1.8916,1.8382,1.8108,1.7505,1.7457,1.7669,1.7772,1.8086,1.8503,1.8708,1.8935,1.914,0.0,0.0,0.0,0.0,0.0,0.0,0.0,-0.3364,-0.2783,-0.1799,-0.1001,-0.0238,0.0594,0.1135,0.1556,0.1844,0.2415,0.0,0.0,0.0,0.0,0.0,0.0,0.0,0.6323,0.7104,0.7823,0.854,0.9316,0.9816,1.0147,1.0417,1.0582,1.0692,1.0765,1.0798,0.0,0.0,0.0,0.0,0.0,0.0,1.2859,0.0,0.0,0.0,0.0,0.0,0.0,0.0,0.0,0.0,0.0,0.0,0.0,0.0,0.0,0.0,0.0,2.929,2.9659,2.9942,2.9994,2.9994,2.9994,2.9994,2.9994,2.9994,2.9994,2.9994,2.9994,2.9994,2.9994,2.9994,2.9994,2.9994,2.9994,2.9994,2.9994,2.9994,2.9332,2.8804,2.8628,2.7945,2.739,2.7044,2.6948,2.6853,2.6651,2.64,2.611,2.5868,2.5732,2.5509,2.5073,2.4794,2.4324,2.3583,2.2852,2.2304,2.1903,2.1195,2.0702,2.0364,1.9463,1.888,0.0,1.7959,1.7816,1.8013,1.8138,1.843,1.8803,1.8928,1.9103,1.9279,0.0,0.0,0.0,0.0,0.0,0.0,0.0,-0.283,-0.2064,-0.1357,-0.0538,0.0302,0.0967,0.1347,0.1658,0.1876,0.0,0.0,0.0,0.0,0.0,0.0,0.0,0.0,0.5766,0.671,0.7487,0.7989,0.8933,0.9544,0.9816,1.0158,1.0437,1.072,1.0907,1.0997,1.1017,1.1175,1.1248,1.1277,1.1804,1.217,0.0,0.0,0.0,0.0,0.0,0.0,0.0,0.0,0.0,0.0,0.0,0.0,0.0,0.0,0.0,0.0,0.0,2.9069,2.9606,2.9889,2.9994,2.9994,2.9994,2.9994,0.0,2.9994,2.9994,2.9994,2.9994,2.9994,2.9994,3.0047,3.0047,3.0047,3.0047,3.0047,3.0047,3.0047,2.9601,2.9083,2.8659,2.8173,2.7707,2.734,2.7081,2.6948,2.6948,2.6651,2.64,2.6149,2.5868,2.5742,2.5693,2.543,2.5039,2.4529,2.3985,2.3329,2.2526,2.1971,2.1428,0.0,2.0004,1.9446,1.9157,1.8537,1.8313,1.8364,1.8672,1.8803,1.8862,1.9214,1.9279,1.9279,0.0,0.0,0.0,0.0,0.0,0.0,0.0,0.0,0.0,0.0,0.0061,0.0614,0.129,0.1664,0.1912,0.0,0.0,0.0,0.0,0.0,0.0,0.0,0.0,0.0,0.5766,0.671,0.7487,0.7989,0.8933,0.9544,0.9816,1.0226,1.0623,1.0967,1.1086,1.124,1.1374,1.1415,1.1516,1.165,1.1815,1.2003,0.0,0.0,0.0,0.0,1.5477,1.6655,0.0,0.0,0.0,0.0,0.0,0.0,0.0,0.0,2.5789,0.0,2.7736,0.0,2.929,2.9606,2.9837,2.9994,0.0,2.9994,2.9994,2.9994,2.9994,2.9994,2.9994,2.9994,3.0047,3.0297,3.0297,3.0401,3.0568,3.062,3.0516,3.0349,2.9565,2.8971,2.8618,2.7883,2.7423,2.732,2.7262,2.7214,2.7214,2.6938,2.6805,2.6699,2.6255,2.5917,2.5693,2.543,2.5137,2.4784,2.4282,2.3578,2.2778,2.2274,2.1623,2.085,2.0004,1.9446,1.9157,1.8537,1.8445,1.8686,1.876,1.8942,1.9169,1.925,1.9279,1.9279,0.0,0.0,0.0,0.0,0.0,0.0,0.0,0.0,0.0,0.0,0.0,0.0,0.0,0.0,0.0,0.0,0.0,0.0,0.0,0.0,0.0,0.0,0.0,0.4909,0.5662,0.6676,0.7491,0.7989,0.8933,0.9577,0.9924,1.0302,1.0726,1.1094,1.1269,1.1451,1.1626,1.1626,1.1687,1.1776,1.1776,0.0,0.0,0.0,0.0,0.0,1.5061,1.6065,0.0,1.8298,1.9397,2.0493,0.0,0.0,0.0,0.0,2.5348,2.6127,2.7206,2.8165,2.9016,2.9501,2.9774,2.9994,2.9994,2.9994,2.9994,2.9994,2.9994,3.0047,3.0141,3.0193,3.0245,3.0557,3.0557,3.0609,3.0776,3.0931,3.0794,3.0314,2.9648,2.8971,2.8525,2.7821,2.7404,2.7309,2.7309,2.7309,2.7309,2.7167,2.7034,2.69,2.6602,2.6255,2.5868,2.5635,2.5342,2.5088,2.4529,2.3976,2.3429,2.2627,2.1979,2.1412,2.0566,1.9979,1.96,1.9115,1.9,1.9016,1.9016,1.9118,1.9279,1.9279,1.9279,1.9257,0.0,0.0,0.0,0.0,0.0,0.0,0.0,0.0,0.0,0.0,0.0,0.0,0.0,0.0,0.0,0.0,0.0,0.0,0.0,0.0,0.0,0.0,0.0,0.4968,0.5531,0.6732,0.7596,0.805,0.8977,0.9657,1.0149,1.0439,1.0829,1.1313,1.1472,1.163,1.1776,1.1776,1.1776,1.1776,1.1776,0.0,0.0,0.0,0.0,0.0,0.0,0.0,0.0,1.7889,1.8997,1.9989,2.1189,0.0,0.0,0.0,0.0,0.0,2.6772,2.7789,2.8804,2.9396,2.9774,2.9994,2.9994,2.9994,2.9994,3.0047,3.0047,3.0151,3.0391,3.0495,3.0609,3.0879,3.0983,3.1034,3.1034,3.1281,3.1108,3.0381,2.9849,2.9221,2.8473,2.7904,2.7547,2.7357,2.7309,2.7309,2.7309,2.7309,2.7225,2.6948,2.69,2.6651,2.6149,2.5917,2.5586,2.5284,2.4833,2.443,2.4084,2.3079,2.2476,2.2123,0.0,0.0,2.0189,1.9828,1.9583,1.9376,1.9324,1.9279,1.9279,1.9279,1.9279,1.922,0.0,0.0,0.0,0.0,0.0,0.0,0.0,0.0,0.0,0.0,0.0,0.0,0.0,0.0,0.0,0.0,0.0,0.0,0.0,0.0,0.0,0.3863,0.4419,0.4995,0.5564,0.6849,0.7768,0.8323,0.9174,0.9816,1.0263,1.0609,1.1074,1.1695,1.1719,1.1748,1.1776,1.1776,1.1776,1.1776,1.1776,0.0,0.0,0.0,0.0,0.0,0.0,0.0,0.0,1.7642,1.8816,1.9982,2.0952,0.0,0.0,0.0,0.0,0.0,2.6718,2.7691,2.8495,2.9026,2.9564,2.9994,2.9994,2.9994,3.0047,3.0287,3.0349,3.0401,3.0672,3.092,3.1167,3.1424,3.1885,3.224,3.224,3.2291,3.2012,3.1235,3.0482,2.9797,2.9064,2.8153,2.7594,2.7547,2.7404,2.7309,2.7309,2.7309,2.7262,2.7214,2.7034,2.6747,2.6448,2.6149,2.581,2.5284,2.5235,2.4784,2.4084,2.3479,2.2929,2.2375,0.0,2.0865,2.0712,1.999,1.968,1.9628,1.9376,1.9279,1.9279,1.9279,1.9279,1.9191,0.0,0.0,0.0,0.0,0.0,0.0,0.0,0.0,0.0,0.0,0.0,0.0,0.0,0.0,0.0,0.0,0.0,0.0,0.0,0.0,0.0,0.3889,0.4504,0.5049,0.5659,0.6899,0.7811,0.8384,0.9476,1.0159,1.0442,1.1063,1.1495,1.1776,1.1776,1.1776,1.1776,1.1776,1.1776,1.1776,0.0,0.0,0.0,0.0,0.0,0.0,0.0,0.0,0.0,0.0,1.8525,1.9679,2.0658,0.0,0.0,0.0,0.0,0.0,2.6436,2.753,2.8451,2.8973,2.9564,2.9994,2.9994,3.0099,3.0245,3.0391,3.0505,3.0713,3.1178,3.1322,3.1578,3.2139,3.2745,3.3047,3.2896,3.2769,3.2377,3.1465,3.0815,3.0038,2.9045,2.8513,2.8055,2.7631,2.7489,2.7394,2.7309,2.7309,2.7309,2.7309,2.7167,2.6986,2.6699,2.6448,2.6062,2.5489,2.5391,2.503,2.4529,2.3985,2.3379,2.2677,0.0,2.1326,2.0865,2.0189,1.9828,1.968,1.9376,1.9279,1.9257,1.9074,1.8906,1.8686,0.0,0.0,0.0,0.0,0.0,0.0,0.0,0.0,0.0,0.0,0.0,0.0,0.0,0.0,0.0,0.0,0.0,0.0,0.0,0.0,0.3889,0.3889,0.4566,0.5151,0.5752,0.701,0.7923,0.8537,0.9734,1.0486,1.0854,1.1511,1.1776,1.1776,1.1776,1.1776,1.1776,1.1776,1.1776,1.1776,0.0,0.0,0.0,0.0,0.0,0.0,0.0,0.0,0.0,0.0,0.0,0.0,0.0,0.0,0.0,2.3191,2.4128,2.5055,2.6273,2.7368,2.8344,2.8973,2.9564,2.9994,2.9994,3.0193,3.0443,3.0505,3.0765,3.1127,3.1669,3.1924,3.2331,3.3047,3.3392,3.3557,3.3421,3.3089,3.2529,3.1664,3.1062,3.0268,2.9218,2.8943,2.8524,2.7914,2.7726,2.7536,2.7404,2.7309,2.7309,2.7309,2.7309,2.7177,2.69,2.6699,2.6304,2.5781,2.5528,2.5235,2.4981,2.443,2.3786,2.3029,2.2476,2.1776,2.107,2.0498,2.0086,1.9783,1.948,1.9376,1.9235,1.8913,1.8584,1.8255,0.0,0.0,0.0,0.0,0.0,0.0,0.0,0.0,0.0,0.0,0.0,0.0,0.0,0.0,0.0,0.0,0.0,0.0,0.0,0.0,0.3889,0.3889,0.4566,0.5235,0.5898,0.7184,0.8221,0.8885,0.9954,1.0835,1.1445,1.1691,1.1776,1.1776,1.1776,1.1776,1.1776,1.1776,1.1776,1.1776,1.1776,0.0,0.0,0.0,0.0,0.0,0.0,0.0,0.0,0.0,0.0,0.0,0.0,0.0,2.1881,2.3135,2.4128,2.5055,2.6273,2.7251,2.8121,2.891,2.9564,2.9994,2.9994,3.0193,3.0443,3.0724,3.1178,3.1721,3.2218,3.2935,3.3645,3.4188,3.3883,3.366,3.3899,3.3315,3.264,3.2106,3.1414,3.0721,3.0171,2.9301,2.8757,2.871,2.8008,2.7584,2.7584,2.7404,2.7309,2.7309,2.7309,2.7177,2.69,2.69,2.6602,2.6052,2.5781,2.5538,2.5235,2.4735,2.4183,2.3578,2.2828,2.2173,2.1623,2.107,2.0557,2.0034,1.9783,1.9532,1.9235,1.8913,1.8584,1.8255,0.0,0.0,0.0,0.0,0.0,0.0,0.0,0.0,0.0,0.0,0.0,0.0,0.0,0.0,0.0,0.0,0.0,0.0,0.0,0.3703,0.4011,0.4195,0.4626,0.53,0.6217,0.7319,0.8238,0.8915,1.013,1.1003,1.1675,1.1744,1.1776,1.1776,1.1776,1.1776,1.1776,1.1776,1.1776,1.1776,1.1776,1.1776,0.0,0.0,0.0,0.0,0.0,0.0,0.0,0.0,1.7655,1.8765,0.0,0.0,2.1824,0.0,2.3952,2.5055,2.6273,2.7009,2.766,2.8521,2.8818,2.9044,2.9662,3.0033,3.0245,3.0421,3.0695,3.118,3.1856,3.2728,3.3422,3.3601,3.3775,3.3876,3.3981,3.3472,3.2865,3.2388,3.1793,3.1103,3.0284,2.9897,2.9439,2.885,2.8524,2.8149,2.7631,2.7547,2.7441,2.7309,2.7309,2.7262,2.7177,2.6996,2.6699,2.6352,2.6062,2.5723,2.5284,2.4932,2.448,2.3877,2.3079,2.2426,2.1869,2.1173,2.0557,2.0078,1.9628,1.9376,1.9213,1.8679,1.8408,1.8225,0.0,0.0,0.0,0.0,0.0,0.0,0.0,0.0,0.0,0.0,0.0,0.0,0.0,0.0,0.0,0.0,0.0,0.0,0.3455,0.3765,0.4073,0.4376,0.4808,0.5485,0.6403,0.7503,0.836,0.9037,1.0304,1.1277,1.1776,1.1776,1.1776,1.1776,1.1776,1.1776,1.1776,1.1776,1.1776,1.1776,1.1776,1.1776,0.0,0.0,0.0,0.0,0.0,0.0,0.0,0.0,0.0,0.0,0.0,0.0,0.0,0.0,0.0,2.4827,2.5973,2.6539,2.7068,2.7958,2.8127,2.8298,2.9197,2.9645,2.9956,3.0177,3.0685,3.1253,3.1933,3.2782,3.3387,3.3526,3.3713,3.3876,3.3979,3.3407,3.2929,3.2605,3.2067,3.1439,3.0758,3.0397,2.9897,2.9174,2.8943,2.8477,2.7773,2.7631,2.7489,2.7309,2.7309,2.7309,2.7309,2.7129,2.689,2.6602,2.6342,2.5965,2.544,2.5137,2.4735,2.4183,2.3479,2.2728,2.2072,2.142,2.0755,2.0078,1.9576,1.9317,1.906,1.8503,1.824,1.8072,0.0,0.0,0.0,0.0,0.0,0.0,0.0,0.0,0.0,0.0,0.0,0.0,0.0,0.0,0.0,0.0,0.0,0.0,0.3455,0.3765,0.4073,0.4376,0.5053,0.5728,0.6403,0.7744,0.8723,0.9335,1.0668,1.1462,1.1776,1.1776,1.1776,1.1776,1.1776,1.1776,1.1776,1.1776,1.1776,1.1776,1.1776,1.1776,1.1776,0.0,0.0,0.0,0.0,0.0,0.0,0.0,0.0,0.0,0.0,0.0,0.0,2.2667,2.3538,2.4393,2.5237,2.5848,2.6368,2.7186,2.7592,2.7934,2.8553,2.9062,2.955,3.0101,3.1194,3.2241,3.2794,3.3248,3.3744,3.4202,3.3834,3.3575,3.384,3.319,3.2711,3.2711,3.2101,3.1705,3.1705,3.0802,3.0136,2.9931,2.9231,2.856,2.8045,2.7773,2.7489,2.7309,2.7309,2.7309,2.7309,2.7309,2.7177,2.69,2.6651,2.6207,2.5684,2.544,2.499,2.448,2.3926,2.3079,2.208,2.1827,2.1054,2.0078,1.9776,1.9324,1.8752,1.8423,1.8094,1.7765,0.0,0.0,0.0,0.0,0.0,0.0,0.0,0.0,0.0,0.0,0.0,0.0,0.0,0.0,0.0,0.0,0.0,0.0,0.3765,0.4071,0.4378,0.4749,0.5425,0.616,0.7079,0.8845,0.994,1.0365,1.097,1.1462,1.1776,1.1776,1.1776,1.1776,1.1776,1.1776,1.1776,1.1776,1.1776,1.1776,1.1776,1.1776,1.1776,0.0,0.0,0.0,0.0,0.0,0.0,0.0,0.0,0.0,0.0,0.0,0.0,2.2091,2.3058,2.4071,2.4651,2.5112,2.5667,2.6674,2.6913,2.7043,2.7777,2.8439,2.9058,2.9579,3.0583,3.1431,3.1736,3.2321,3.2867,3.312,3.3202,3.3233,3.3319,3.3138,3.2896,3.2711,3.2537,3.2232,3.1749,3.1439,3.0949,3.0182,2.9783,2.9277,2.8617,2.8139,2.7762,2.7536,2.7357,2.7309,2.7309,2.7309,2.7177,2.69,2.6651,2.6304,2.5965,2.5528,2.5137,2.4735,2.4233,2.3479,2.2577,2.1573,2.0704,2.0078,1.9776,1.9324,1.8752,1.8423,1.8094,1.7765,0.0,0.0,0.0,0.0,0.0,0.0,0.0,0.0,0.0,0.0,0.1977,0.2038,0.0,0.0,0.0,0.0,0.0,0.0,0.0,0.4195,0.4624,0.5054,0.5732,0.6773,0.8116,0.9576,1.0547,1.097,1.1337,1.1587,1.1776,1.1776,1.1776,1.1776,1.1776,1.1833,1.1949,1.1949,1.1949,1.1949,1.1949,1.1893,1.1837,0.0,0.0,0.0,0.0,0.0,0.0,0.0,0.0,0.0,0.0,0.0,0.0,2.1762,2.2556,2.3308,2.3922,2.4446,2.5092,2.5946,2.6299,2.6736,2.7584,2.8269,2.886,2.9403,3.0227,3.096,3.1261,3.1893,3.2475,3.268,3.2939,3.3111,3.3197,3.324,3.3154,3.3013,3.2896,3.268,3.2145,3.1837,3.1395,3.0668,3.0227,2.9691,2.8943,2.856,2.8092,2.7631,2.7499,2.7404,2.7309,2.7309,2.7214,2.7081,2.6794,2.6496,2.6245,2.5674,2.5333,2.503,2.4134,2.3329,2.2476,2.1471,2.0763,2.0233,1.9795,1.9284,1.8698,1.8275,1.7904,1.7589,0.0,0.0,0.0,0.0,0.0,0.0,0.0,0.0,0.0,0.0,0.2099,0.2223,0.0,0.0,0.0,0.0,0.0,0.0,0.0,0.0,0.4807,0.5421,0.6217,0.7503,0.9275,1.0001,1.0668,1.1273,1.1647,1.1837,1.1837,1.1837,1.1837,1.1893,1.1893,1.2005,1.2234,1.2234,1.2234,1.2234,1.2234,1.2122,1.1893,1.2122,0.0,0.0,0.0,0.0,0.0,0.0,0.0,0.0,1.8835,1.967,2.0397,2.1513,2.1987,2.2322,2.3169,2.3865,2.4529,2.5137,2.5917,2.6784,2.7715,2.8326,2.8885,2.9393,3.008,3.0713,3.1217,3.1893,3.2431,3.2667,3.2939,3.3154,3.3356,3.3398,3.3398,3.3441,3.324,3.3025,3.2754,3.2145,3.1661,3.135,3.0668,2.9943,2.922,2.8943,2.843,2.7678,2.7631,2.7489,2.7309,2.7309,2.7309,2.7309,2.7034,2.6747,2.6496,2.5975,2.5586,2.5186,2.3926,2.2929,2.2123,2.1573,2.1003,2.0436,1.9879,1.9227,1.8611,1.8022,1.7611,1.7279,0.0,0.0,0.0,0.0,0.0,0.0,0.0,0.0,0.0,0.0,0.0,0.0,0.0,0.0,0.0,0.0,0.0,0.0,0.0,0.0,0.5362,0.5794,0.7378,0.8717,0.97,1.0607,1.1152,1.1273,1.1647,1.1893,1.2118,1.2118,1.2238,1.2483,1.2483,1.2543,1.2599,1.2599,1.2599,1.2599,1.2599,1.2539,1.2483,1.2599,1.2779,0.0,0.0,0.0,0.0,0.0,0.0,0.0,1.8378,1.9335,2.0255,2.0532,2.1031,2.1699,2.2222,2.299,2.3786,2.4735,2.5917,2.6938,2.7347,2.7809,2.8409,2.9301,2.9943,3.0487,3.116,3.1737,3.222,3.2624,3.2939,3.3154,3.3356,3.3398,3.3484,3.3641,3.3484,3.3227,3.3025,3.2667,3.2232,3.1661,3.1083,3.0454,2.9748,2.9128,2.8513,2.7951,2.7726,2.7489,2.7309,2.7309,2.7309,2.7309,2.7034,2.6747,2.6496,2.6149,2.5616,2.4941,2.4233,2.3479,2.2677,2.2131,2.135,2.0403,2.0031,1.9281,1.8312,1.8141,1.7761,1.7279,0.0,0.0,0.0,0.0,0.0,0.0,0.0,0.0,0.0,0.0,0.0,0.0,0.0,0.0,0.0,0.0,0.0,0.0,0.0,0.0,0.5976,0.6834,0.8416,0.9511,1.0001,1.0849,1.1454,1.1752,1.1881,1.2062,1.2174,1.2359,1.2539,1.2719,1.2719,1.2779,1.296,1.3084,1.3204,1.3204,1.3324,1.3204,1.2964,1.3144,1.3204,1.3264,1.3569,0.0,0.0,0.0,0.0,0.0,0.0,0.0,1.9818,1.994,2.0438,2.1103,2.1724,2.2476,2.3429,2.4766,2.581,2.664,2.7167,2.7668,2.8233,2.9024,2.9634,3.0227,3.0847,3.1472,3.2001,3.2463,3.2766,3.3025,3.3356,3.3398,3.3471,3.367,3.3513,3.3356,3.324,3.2896,3.2506,3.2069,3.1439,3.0859,3.0284,2.9542,2.885,2.8196,2.7914,2.7631,2.7309,2.7309,2.7309,2.7309,2.7177,2.689,2.6496,2.611,2.5625,2.5088,2.4529,2.3718,2.2798,2.227,2.1354,2.0278,1.9817,1.9243,1.8527,1.8083,1.7777,1.7481,0.0,0.0,0.0,0.0,0.0,0.0,0.0,0.0,0.0,0.0,0.0,0.0,0.0,0.0,0.0,0.0,0.0,0.0,0.0,0.0,0.0,0.8177,0.9271,1.0065,1.0486,1.1091,1.1696,1.2174,1.2298,1.2359,1.2354,1.2659,1.284,1.29,1.29,1.3084,1.3384,1.3748,1.3873,1.3868,1.4172,1.3933,1.3444,1.3748,1.3688,1.3504,1.4052,1.4471,1.4883,0.0,0.0,0.0,0.0,0.0,1.9261,1.9488,1.9949,2.0617,2.1377,2.2274,2.332,2.4756,2.5548,2.6245,2.6918,2.7478,2.8045,2.856,2.9277,2.9966,3.0442,3.1116,3.1749,3.2213,3.2506,3.284,3.327,3.3398,3.3471,3.367,3.3513,3.3398,3.3398,3.3013,3.268,3.2431,3.1761,3.1116,3.0623,2.9897,2.9174,2.8441,2.8139,2.7762,2.7309,2.7309,2.7309,2.7309,2.7262,2.6976,2.6496,2.5975,2.5586,2.5284,2.4709,2.3889,2.2881,2.2203,2.133,2.0248,1.9614,1.9217,1.8894,1.8053,1.7721,1.7675,0.0,0.0,0.0,0.0,0.0,0.0,0.0,0.0,0.0,0.0,0.4626,0.4687,0.0,0.0,0.0,0.0,0.0,0.0,0.0,0.0,0.0,0.9515,1.0001,1.0547,1.1152,1.1756,1.2118,1.2174,1.2779,1.3084,1.3084,1.3084,1.3264,1.3569,1.3873,1.3992,1.4052,1.4356,1.4476,1.4476,1.4535,1.4471,1.4411,1.4471,1.4471,1.4411,1.453,1.4948,1.551,1.5704,1.6553,0.0,0.0,0.0,1.8938,1.8931,1.9487,2.0292,2.0865,2.2072,2.3429,2.4075,2.5011,2.5849,2.6187,2.687,2.7536,2.7998,2.8885,2.9715,3.017,3.0847,3.1439,3.1761,3.232,3.2797,3.3111,3.3283,3.3471,3.367,3.3513,3.3398,3.3398,3.3197,3.2865,3.2431,3.1937,3.1339,3.0623,2.9897,2.9174,2.8441,2.8139,2.7762,2.7309,2.7309,2.7309,2.7309,2.7081,2.6794,2.6496,2.6207,2.5761,2.5265,2.4611,2.3979,2.3317,2.2245,2.1419,2.0708,1.9944,1.9302,1.8752,1.8241,1.7908,1.7675,0.0,0.0,0.0,0.0,0.0,0.0,0.0,0.0,0.0,0.0,0.0,0.5483,0.0,0.0,0.0,0.0,0.0,0.0,0.0,0.0,0.0,0.9761,1.0486,1.097,1.1273,1.1877,1.2294,1.2479,1.2964,1.3324,1.3563,1.3563,1.3622,1.3804,1.4281,1.4445,1.4323,1.4793,1.4972,1.503,1.5145,1.5145,1.4972,1.4972,1.485,1.4735,1.4914,1.5203,1.5533,1.6046,1.6687,1.7291,1.7351,0.0,0.0,0.0,1.9198,2.0034,2.0712,2.1878,2.2979,2.3529,2.4322,2.5167,2.5752,2.6476,2.7204,2.7536,2.842,2.9301,2.992,3.0408,3.0892,3.1572,3.1969,3.2276,3.2649,3.2896,3.3099,3.3356,3.3283,3.3283,3.3398,3.324,3.2909,3.2444,3.1981,3.1439,3.0871,2.9988,2.9209,2.8617,2.8233,2.7762,2.7309,2.7309,2.7309,2.7309,2.7034,2.6747,2.6486,2.5996,2.5553,2.516,2.4737,2.3956,2.2991,2.234,2.1479,2.0503,1.9987,1.9472,1.8966,1.8512,1.8141,1.79,0.0,0.0,0.0,0.0,0.0,0.0,0.0,0.0,0.0,0.0,0.0,0.0,0.0,0.0,0.0,0.0,0.0,0.0,0.0,0.0,0.0,1.0183,1.091,1.1394,1.1514,1.2053,1.2479,1.284,1.3094,1.3469,1.3771,1.3892,1.3953,1.4019,1.4483,1.4755,1.4756,1.5276,1.5564,1.5676,1.5851,1.5795,1.562,1.562,1.5507,1.5276,1.5564,1.5676,1.5834,1.6442,1.6919,1.7257,1.7523,1.8131,0.0,0.0,0.0,1.9983,2.0712,2.1573,2.2426,2.2979,2.3678,2.4529,2.5304,2.6081,2.6716,2.7204,2.7914,2.8664,2.9462,2.9954,3.0442,3.1217,3.1484,3.1749,3.2169,3.2419,3.2624,3.2896,3.2995,3.3068,3.3227,3.3111,3.281,3.2431,3.1893,3.1395,3.0927,3.0,2.9255,2.871,2.8233,2.7762,2.7309,2.7309,2.7309,2.7309,2.7081,2.6842,2.6582,2.5892,2.5397,2.4996,2.457,2.3793,2.282,2.2354,2.1545,2.0518,2.0155,1.97,1.9242,1.8751,1.8373,1.804,0.0,0.0,0.0,0.0,0.0,0.0,0.0,0.0,0.0,0.0,0.0,0.0,0.7808,0.7808,0.7808,0.7811,0.0,0.0,0.0,0.0,0.0,1.1152,1.1273,0.0,1.2113,1.2479,1.284,1.3144,1.3317,1.3508,1.383,1.4193,1.4384,1.4468,1.4687,1.5112,1.5659,1.6009,1.6295,1.652,1.6526,1.6526,1.652,1.652,1.652,1.6526,1.652,1.6744,1.6975,1.6777,1.7079,1.757,1.7596,1.7971,1.8503,0.0,0.0,0.0,2.0763,2.1318,2.1869,2.2426,2.3129,2.3926,2.4784,2.5362,2.6032,2.7109,2.7357,2.7678,2.8664,2.9577,3.0216,3.0261,3.0847,3.1439,3.1705,3.1913,3.2133,3.2388,3.2593,3.2711,3.2766,3.2723,3.2636,3.2431,3.1717,3.1128,3.0668,2.9897,2.9163,2.8441,2.8139,2.7762,2.7309,2.7309,2.7309,2.7309,2.7309,2.7129,2.6832,2.6138,2.5415,2.4766,2.3842,2.3412,2.33,2.2193,2.158,2.1257,2.0564,1.9982,1.9487,1.8974,1.8504,1.804,0.0,0.0,0.0,0.0,0.0,0.0,0.0,0.0,0.0,0.0,0.0,0.0,0.0,0.8546,0.8546,0.8546,0.9031,0.0,0.0,0.0,0.0,1.1273,1.1522,1.1824,1.2174,1.2539,1.2782,1.3017,1.3414,1.3755,1.3989,1.43,1.4806,1.5395,1.5589,1.5777,1.5843,1.6326,1.6603,1.6657,1.6657,1.6657,1.6657,1.6657,1.6657,1.6657,1.6657,1.6765,1.6854,1.6981,1.7169,1.7416,1.7734,1.8115,1.8475,1.9018,1.948,1.9931,2.0292,2.0763,2.1377,2.208,2.2577,2.3179,2.4183,2.4775,2.5411,2.6139,2.6822,2.7404,2.7773,2.8653,2.9451,2.992,3.0363,3.0668,3.0937,3.1339,3.1649,3.1937,3.2133,3.232,3.2463,3.2519,3.2332,3.1981,3.1528,3.1026,3.0397,2.9806,2.9174,2.8441,2.8139,2.7762,2.7309,2.7309,2.7309,2.7309,2.7309,2.7022,2.6451,2.591,2.5168,2.4311,2.3742,2.3281,2.2961,2.2375,2.1909,2.1517,2.0835,2.0246,1.9708,1.9242,1.8635,1.8087,0.0,0.0,0.0,0.0,0.0,0.0,0.0,0.0,0.0,0.9521,0.0,0.0,0.0,0.0,0.9521,0.9521,0.9883,1.0304,1.0607,1.1031,1.1333,1.1462,1.1768,1.2066,1.2359,1.2658,1.2922,1.3201,1.3461,1.3813,1.4254,1.451,1.5087,1.5897,1.6444,1.6532,1.6371,1.6789,1.7054,1.716,1.7206,1.7259,1.7259,1.716,1.716,1.7107,1.7047,1.6995,1.7054,1.7384,1.7496,1.7543,1.8128,1.8489,1.8795,1.9168,1.948,1.9732,1.9931,2.0351,2.0925,2.1522,2.2021,2.2577,2.3479,2.4183,2.4775,2.5314,2.6139,2.687,2.7109,2.7773,2.8571,2.9416,2.9772,3.0034,3.0318,3.0668,3.1026,3.1294,3.1605,3.1825,3.2025,3.2025,3.1893,3.1572,3.116,3.0668,3.0136,2.9634,2.9035,2.829,2.7951,2.7631,2.7309,2.7309,2.7309,2.7309,2.7309,2.6977,2.6336,2.5814,2.5083,2.4207,2.3736,2.3285,2.2882,2.253,2.2176,2.1785,2.1051,2.0419,1.9837,1.9471,1.8827,1.8087,0.0,0.0,0.0,0.0,0.0,0.0,0.0,0.0,1.0789,1.0789,0.0,0.0,0.0,0.0,0.0,1.0789,1.0849,1.097,1.1273,1.1333,1.1518,1.1837,0.0,0.0,1.2711,1.2826,1.3192,1.3757,1.3394,1.3694,1.4519,1.4885,1.5357,1.5998,1.7107,1.7483,1.7232,1.7536,1.7747,1.8016,1.8325,1.8422,1.837,1.8115,1.8016,1.7964,1.7747,1.7635,1.7635,1.7911,1.8016,1.8128,1.8712,1.9078,1.9279,1.9279,1.948,1.968,0.0,0.0,0.0,2.0822,2.1471,2.2224,2.2778,2.3479,2.4233,2.4784,2.5314,2.5936,2.6716,2.7109,2.7584,2.856,2.9163,2.9542,2.984,3.0045,3.0261,3.0532,3.0982,3.1261,3.1261,3.1261,3.1261,3.1261,3.0578,3.0091,2.9886,2.937,2.8746,2.7987,2.7536,2.7309,2.7309,2.7309,2.7309,2.7309,2.7299,2.704,2.6584,2.5874,2.5198,2.442,2.3769,2.3363,2.3047,2.2564,2.2264,2.2052,2.1275,2.0546,1.9891,1.9671,1.8974,1.8087,0.0,0.0,0.0,0.0,0.0,0.0,1.0668,1.0728,1.0789,0.0,0.0,0.0,1.0789,1.0789,1.091,1.1152,1.1394,1.1635,1.1933,1.2178,1.2359,1.2423,1.2354,1.2517,1.2817,1.291,1.3074,1.337,1.3866,1.4389,1.4874,1.5392,1.6152,1.716,1.7477,1.7793,1.8062,1.816,1.8213,1.8325,1.837,1.8422,1.837,1.8318,1.8272,1.8272,1.8213,1.816,1.8213,1.8265,1.8272,1.8377,1.8757,1.9078,1.9279,0.0,0.0,0.0,1.9628,0.0,0.0,0.0,0.0,0.0,2.2426,2.2929,2.3429,2.4183,2.4726,2.5314,2.5936,2.639,2.687,2.7336,2.8139,2.8803,2.9082,2.9266,2.9588,3.0057,3.0193,3.0329,3.0487,3.0487,3.0454,0.0,3.0102,2.9783,2.937,2.8653,2.8139,2.7726,2.7441,2.7309,2.7309,2.7309,2.7309,2.7299,2.6967,2.6563,2.6096,2.5537,2.4808,2.3978,2.3814,2.3493,2.3047,2.2564,2.2353,2.222,2.1356,2.069,2.0155,1.9762,1.8974,1.8087,0.0,0.0,0.0,0.0,0.0,1.1454,1.1575,1.1571,1.1571,0.0,0.0,0.0,1.1571,1.1571,1.1696,1.1877,1.1991,1.2128,1.2243,1.2408,1.2478,1.2478,1.2494,1.261,1.2959,1.3041,1.3321,1.375,1.4153,1.4744,1.541,1.5939,1.673,1.7635,1.7957,1.8331,1.8646,1.8743,1.8691,1.8646,1.8743,1.8795,1.8743,1.8646,1.8593,1.8593,1.8422,1.8422,1.8422,1.8534,1.8691,1.8795,1.9018,1.9175,1.9279,0.0,0.0,0.0,0.0,0.0,0.0,2.0027,0.0,0.0,2.1429,2.1875,2.231,2.2899,2.3444,2.4082,2.4871,2.5343,2.5834,2.6446,2.7051,2.7631,2.8243,2.8571,2.8907,2.9242,2.9462,2.96,2.9726,2.9852,2.9863,2.9737,2.9646,2.9324,2.8861,2.8196,2.7773,2.7584,2.7404,2.7309,2.7309,2.7309,2.7309,2.7299,2.6832,2.6366,2.5865,2.543,2.4712,2.3797,2.3797,2.3527,2.3047,2.2564,2.2353,2.2176,2.1311,2.0645,2.0065,1.9716,1.9028,1.8234,0.0,0.0,0.0,1.1877,1.2178,1.2419,1.2779,1.2779,1.2779,0.0,1.2779,1.2771,1.2749,1.2744,1.274,1.2718,1.2622,1.2525,1.2525,1.2356,1.2316,1.2316,1.258,1.2856,1.3141,1.3267,1.3714,1.4492,1.444,1.4922,1.5945,1.6524,1.71,1.774,0.0,0.0,1.8974,1.9175,1.9175,1.8974,1.9175,1.9279,1.9272,1.9026,1.8921,1.8921,1.8586,1.8475,1.8534,1.8862,1.9078,1.9279,1.9279,1.925,1.922,0.0,1.8994,0.0,0.0,0.0,0.0,0.0,1.9486,0.0,2.0176,2.066,2.1094,2.1383,2.1861,2.253,2.3592,2.404,2.4546,2.5652,2.5847,2.6282,2.7384,2.7914,2.8254,2.8301,2.8664,2.8943,2.8989,2.9209,2.9347,2.9347,2.9117,2.8757,2.8348,2.7878,2.7594,2.7584,2.7404,2.7309,2.7309,2.7309,2.7278,2.7226,2.676,2.6304,2.5792,2.5357,2.4617,2.3797,2.3797,2.3537,2.3047,2.2574,2.2264,2.2052,2.1275,2.0555,1.9891,1.9671,1.9128,1.8481,0.0,0.0,0.0,1.2844,1.2964,1.3144,1.3444,1.3509,1.3509,1.3509,1.3509,1.3439,1.3207,1.3184,1.3124,1.2966,1.3145,1.3298,1.3298,1.3432,1.3521,1.3521,1.3463,1.3537,1.3877,1.3975,1.4185,1.4564,1.5219,1.5785,1.6217,1.7054,1.774,1.8265,0.0,0.0,1.9227,1.9279,1.9279,1.9227,1.9279,1.9279,1.9272,1.9227,1.9227,1.9227,1.9168,1.9116,1.9116,1.9227,1.9279,1.9279,0.0,0.0,0.0,1.8884,0.0,0.0,0.0,0.0,0.0,1.8784,1.9184,0.0,1.9917,2.0224,2.0572,2.1094,2.143,2.1878,2.253,2.2815,2.3174,2.3824,2.4402,2.5265,2.6809,2.7146,2.7336,2.7726,2.782,2.7961,2.8186,2.8279,2.8269,2.8269,2.8222,2.8092,2.7773,2.7678,2.7547,2.7357,2.7309,2.7309,2.7309,2.7309,2.7123,2.675,2.6283,2.5782,2.5303,2.4838,2.4321,2.3797,2.3797,2.345,2.2838,2.253,2.2264,2.2052,2.1275,2.0555,1.9891,1.9671,1.9128,1.8481,0.0,0.0,0.0,1.3858,1.4038,1.4282,1.4585,1.4644,1.4644,1.4644,1.4538,1.4323,1.4097,1.4071,1.4031,1.392,1.3984,1.3979,1.3979,1.4039,1.4032,1.4032,1.3973,1.4019,1.4352,1.4505,1.4815,1.5244,1.5838,1.6371,1.6955,1.7536,1.8115,1.8646,0.0,1.9227,1.948,1.948,1.9576,1.968,1.9428,1.9376,1.948,1.948,1.9487,1.9448,1.9287,1.9081,1.8789,1.8789,1.8789,0.0,1.8789,1.8679,1.8547,0.0,1.8313,1.8057,0.0,0.0,0.0,1.8152,1.8399,0.0,0.0,1.9217,1.9518,1.988,2.0154,2.058,2.1285,2.1461,2.1852,2.2717,2.3107,2.3803,2.5063,2.5846,2.6418,2.6812,2.6965,2.7156,2.7431,2.7668,2.7857,2.7998,2.7857,2.7715,2.7631,2.7489,2.7404,2.7309,2.7309,2.7309,2.7309,2.7309,2.7071,2.6604,2.6138,2.5647,2.5168,2.4714,2.4239,2.3797,2.3797,2.3406,2.2759,2.2407,2.2052,2.1705,2.1096,2.0382,1.9708,1.9479,1.9066,1.8604,0.0,0.0,0.0,1.4808,1.517,1.5472,1.5833,1.5893,1.5935,1.5886,1.5665,1.5355,1.5114,1.5086,1.507,1.5026,1.485,1.4795,1.4795,1.4603,1.4546,1.4546,1.4546,1.4654,1.4928,1.5143,1.5571,1.6158,1.6424,0.0,0.0,0.0,0.0,1.8921,0.0,1.948,1.968,1.9783,1.9879,2.0086,1.968,1.9635,1.9776,1.9716,1.963,1.9547,1.927,1.8868,1.8454,1.8454,1.8454,1.8454,1.8405,1.8311,0.0,0.0,0.0,0.0,0.0,0.0,0.0,0.0,1.7675,1.7768,0.0,0.0,0.0,1.8643,1.892,1.9323,2.0027,2.0272,2.0653,2.1675,2.1884,2.2224,2.2958,2.4161,2.517,2.579,2.6052,2.6342,2.6716,2.7156,2.7489,2.7762,2.7584,2.7499,2.7536,2.7404,2.7309,2.7309,2.7309,2.7309,2.7309,2.7216,2.6946,2.648,2.5968,2.5523,2.5044,2.4662,2.4239,2.3797,2.3797,2.3406,2.2715,2.2274,2.1785,2.1293,2.0789,2.0209,1.9587,1.9288,1.905,1.8781,1.5477,1.5418,0.0,0.0,0.0,0.0,0.0,0.0,1.716,1.6871,1.6615,1.6348,1.6069,1.604,1.5951,1.5779,1.5737,1.572,1.572,1.5743,1.5731,1.5731,1.5731,1.5838,1.6111,1.6164,1.643,1.7073,1.7325,0.0,0.0,0.0,0.0,0.0,1.9428,1.968,1.9732,1.9931,2.0078,2.0138,2.0308,2.0248,0.0,1.9722,1.9593,1.9567,1.9212,1.9083,1.9003,0.0,1.9003,1.8954,0.0,1.8465,1.8178,1.7923,0.0,0.0,0.0,0.0,0.0,0.0,1.7527,1.7729,1.7721,0.0,1.8133,1.8179,0.0,1.8889,1.8968,0.0,0.0,2.0137,2.0462,2.0832,2.1147,2.1872,2.3,2.4846,2.5079,2.5372,2.61,2.6438,2.6736,2.6986,2.6996,2.7081,2.7309,2.7309,2.7309,2.7309,2.7309,2.7309,2.7309,2.6895,2.6459,2.5947,2.5513,2.5024,2.458,2.4518,2.4239,2.3797,2.3797,2.3276,2.2441,2.2185,2.1687,2.0997,2.0518,2.0027,1.9587,1.9288,1.905,1.8781,1.6774,1.6714,0.0,0.0,0.0,0.0,0.0,1.7518,1.744,1.7383,1.7085,1.6795,1.6504,1.6473,1.6483,1.6371,1.6365,1.6365,1.6365,1.6365,1.6365,1.6365,1.653,1.6696,1.6808,1.712,1.7384,1.7655,1.7957,0.0,0.0,0.0,0.0,0.0,1.9576,1.9887,2.0205,2.0454,2.0652,2.079,0.0,2.0925,0.0,2.0448,2.0047,1.9604,1.9296,1.8981,1.8744,0.0,1.8649,0.0,0.0,0.0,0.0,1.801,0.0,0.0,0.0,0.0,0.0,0.0,0.0,0.0,1.7481,0.0,1.7861,0.0,0.0,0.0,0.0,0.0,0.0,0.0,1.941,1.972,2.0347,2.0703,2.1553,2.3441,2.3843,0.0,2.5294,2.58,2.6149,2.64,2.6699,2.6948,2.7081,2.7214,2.7309,2.7309,2.7309,2.7309,2.7309,2.6843,2.6376,2.5875,2.544,2.4941,2.4497,2.4368,2.4153,2.3797,2.3527,2.3013,2.2353,2.1874,2.1329,2.0781,2.0119,1.9762,1.9541,1.9104,1.892,1.8781,1.8046,0.0,0.0,0.0,1.8116,1.8161,1.8309,1.8092,1.7886,1.7948,1.7639,1.7401,1.7179,1.7153,1.7153,1.7153,1.7153,1.7153,1.7153,1.7153,1.7153,1.7153,1.7378,1.7543,1.7543,1.7911,1.8174,1.8233,1.8436,0.0,0.0,0.0,0.0,0.0,1.9887,2.0205,2.0609,2.0778,2.1036,2.135,2.1296,2.1383,2.1476,2.0989,2.0399,1.9824,1.9515,1.9188,1.8866,1.8827,1.8689,0.0,1.8411,0.0,1.8411,0.0,0.0,0.0,1.8226,0.0,0.0,0.0,0.0,0.0,0.0,0.0,0.0,0.0,0.0,0.0,0.0,0.0,0.0,0.0,0.0,1.8868,0.0,1.9717,2.0404,2.2109,2.2797,0.0,0.0,2.5051,2.5548,2.5945,2.6342,2.6651,2.69,2.7081,2.7214,2.7309,2.7309,2.7309,2.7309,2.6718,2.6262,2.5875,2.5316,2.4828,2.4497,2.4292,2.4067,2.3754,2.3309,2.2784,2.2264,2.166,2.1069,2.0518,1.9853,1.9541,1.9442,1.8966,1.8781,1.8781,1.9491,1.8947,0.0,1.8393,1.8608,1.8871,1.9195,1.9047,1.8845,1.8838,1.8572,1.8384,1.837,1.837,1.837,1.837,1.837,1.837,1.837,1.837,1.837,1.837,1.837,1.837,1.837,1.837,1.8534,1.8869,1.8876,0.0,0.0,0.0,0.0,0.0,2.0359,2.0617,2.0901,2.0827,2.1073,2.1477,2.144,2.1501,2.1543,0.0,2.0559,2.0263,1.9973,0.0,0.0,1.9625,1.9541,0.0,0.0,0.0,0.0,0.0,0.0,0.0,0.0,0.0,0.0,1.7768,0.0,0.0,0.0,0.0,1.7333,0.0,0.0,0.0,0.0,0.0,0.0,0.0,0.0,0.0,0.0,0.0,1.9433,2.0971,2.2136,0.0,0.0,2.4217,2.4873,2.5645,2.5742,2.6091,2.6853,2.69,2.7034,2.7309,2.7309,2.7309,2.7309,2.6397,2.5885,2.591,2.4941,2.4507,2.4497,2.4292,2.4067,2.3754,2.3309,2.2706,2.2052,2.1616,2.0987,2.0246,1.9808,1.9433,1.9188,1.892,1.8781,1.8781,0.0,0.0,0.0,1.955,1.9621,1.9707,1.9823,1.9478,1.9223,1.9425,1.9181,1.9011,1.9011,1.9011,1.9011,1.9011,1.9011,1.9011,1.9011,1.9011,1.9011,1.9011,1.916,1.9257,1.9257,1.9406,1.9569,1.968,1.968,0.0,0.0,0.0,0.0,0.0,0.0,2.0942,2.132,0.0,0.0,0.0,0.0,2.2098,2.1897,0.0,2.1039,2.0781,2.0843,2.0708,0.0,2.0346,2.0209,2.0073,1.9973,1.9791,1.9654,1.9563,1.9387,0.0,0.0,0.0,1.855,1.8458,0.0,0.0,0.0,0.0,0.0,0.0,0.0,0.0,0.0,0.0,0.0,0.0,0.0,0.0,0.0,0.0,1.8838,1.9481,2.0844,2.1898,0.0,2.3064,2.3733,2.4599,2.5148,2.5645,2.6091,2.6592,2.6948,2.7034,2.7214,2.7309,2.7309,2.6387,2.5875,2.591,2.4964,2.4497,2.4497,2.411,2.3894,2.3754,2.296,2.2441,2.2052,2.1419,2.069,2.0019,1.9716,1.935,1.892,1.8827,1.8781,1.8781,2.0248,2.0609,2.0801,2.0347,2.0308,2.0393,2.0392,2.0075,1.9946,2.0094,1.9998,1.9894,1.9894,1.9894,1.9894,1.9894,1.9894,1.9894,1.9894,1.9791,1.9739,1.9739,1.9783,1.9828,1.9828,2.0027,2.0078,2.0078,2.0078,2.0138,0.0,0.0,0.0,0.0,0.0,2.1311,2.1666,2.1736,2.1917,0.0,0.0,2.24,0.0,0.0,2.1731,2.149,0.0,2.1472,2.1195,2.1105,2.088,2.0708,2.0708,2.0518,2.0283,2.0283,2.0155,1.999,1.9853,1.9525,0.0,1.8874,1.8458,0.0,1.7861,0.0,1.7426,0.0,0.0,0.0,0.0,0.0,0.0,0.0,0.0,0.0,0.0,1.8187,0.0,0.0,1.9817,2.0891,2.1584,2.2177,2.2903,2.375,2.4461,2.505,2.5538,2.6149,2.6602,2.69,2.7081,2.7142,2.7061,2.6304,2.5802,2.5637,2.4848,2.4497,2.4497,2.4013,2.3797,2.3754,2.2794,2.222,2.1919,2.1266,2.051,1.9799,1.9633,1.9258,1.8781,1.8781,1.8781,1.8781,2.1275,2.1573,2.1522,2.0771,2.0822,2.0968,2.0968,2.0968,2.0968,2.0968,2.0968,2.0968,2.0968,2.0968,2.0968,2.0968,2.0968,2.0968,2.0968,2.0719,2.0565,2.0573,2.0292,2.0189,2.0189,2.0189,2.0189,2.0189,0.0,0.0,0.0,0.0,0.0,0.0,2.1495,0.0,2.1925,2.1667,2.185,2.2354,2.2415,2.2441,2.2485,2.275,2.2706,2.2441,2.223,2.2141,2.2097,2.183,2.1607,2.1437,2.1437,2.1284,2.1042,2.1042,2.0916,2.0699,2.0428,2.0155,1.9745,1.9058,1.8827,0.0,0.0,0.0,1.7721,0.0,0.0,0.0,0.0,0.0,0.0,0.0,0.0,0.0,0.0,0.0,1.8179,0.0,1.9231,2.0097,2.0939,2.1559,2.227,2.3167,2.375,2.4402,0.0,2.5548,2.6042,2.6805,2.69,2.6818,2.6568,2.6113,2.5658,2.5179,2.4714,2.4497,2.4497,2.4013,2.3797,2.3754,2.2794,2.2132,2.1651,2.1177,2.0473,1.9587,1.9587,1.9258,1.8781,1.8781,1.8781,1.8781,2.2131,2.2577,2.2878,2.2878,2.2426,2.208,2.208,2.208,2.208,2.208,2.208,2.208,2.208,2.208,2.208,2.208,2.208,2.1979,2.1827,2.1725,2.1623,2.142,2.1318,2.1318,2.1318,2.1318,2.1318,2.1318,0.0,0.0,2.142,0.0,0.0,0.0,0.0,2.2145,2.2202,2.2134,2.2416,2.2894,2.3149,2.3319,2.345,0.0,2.3493,2.3363,2.2838,2.2495,2.2309,2.2264,2.2176,2.2132,2.2132,2.1998,2.182,2.182,2.1517,2.1212,2.1122,2.0663,2.0155,1.9973,1.9333,1.8781,0.0,0.0,0.0,0.0,0.0,0.0,0.0,0.0,0.0,0.0,0.0,0.0,0.0,0.0,0.0,1.8187,0.0,0.0,2.0033,2.0291,2.0933,2.2253,2.2846,2.351,2.4353,0.0,2.579,2.5994,2.6602,2.6723,2.631,2.6022,2.5658,2.5179,2.4714,2.4497,2.4497,2.4013,2.3797,2.3754,2.2794,2.2132,2.1651,2.1177,2.0473,1.9587,1.9587,1.9258,1.8781,1.8781,1.8781,1.8781,2.2979,2.3479,2.3935,2.4183,2.3827,2.3479,2.3229,2.3179,2.3179,2.3179,2.3179,2.3129,2.3029,2.3029,2.2979,2.2887,2.2887,2.2837,2.2686,2.2526,2.2375,2.2224,2.2123,2.203,2.203,2.203,2.203,2.203,0.0,0.0,2.2072,0.0,0.0,0.0,0.0,2.2375,2.2446,2.2588,2.2872,2.3319,2.3537,2.3711,0.0,2.3797,2.3797,2.3754,2.3363,2.3101,2.2882,2.2882,2.275,2.2574,2.2574,2.2397,2.222,2.222,2.2052,2.183,2.175,2.1338,2.088,2.0645,2.0011,1.9425,1.9288,1.892,1.855,0.0,1.8357,1.8172,0.0,0.0,0.0,0.0,0.0,0.0,0.0,0.0,0.0,0.0,1.8234,0.0,1.9301,1.9649,2.026,2.1347,2.216,0.0,0.0,0.0,2.5373,2.543,2.6062,2.6148,2.5645,2.5595,2.5368,2.4879,2.4621,2.4497,2.4497,2.4013,2.3797,2.3754,2.2794,2.2132,2.1651,2.1096,2.0382,1.9587,1.935,1.9066,1.8781,1.8781,1.8781,1.8781,2.3777,2.4282,2.4686,2.4932,2.4981,2.4833,2.4381,2.4233,2.4183,2.4183,2.4183,2.4134,2.3877,2.3877,2.3786,2.3596,2.3596,2.3596,2.3546,2.3288,2.3079,2.3079,2.2828,2.2728,2.2728,2.2728,2.2728,0.0,0.0,0.0,0.0,0.0,0.0,0.0,0.0,0.0,0.0,2.3026,2.3319,2.359,2.3797,2.3884,2.3884,2.3884,2.3884,2.3884,2.3884,2.3764,2.3547,2.3547,2.3242,2.2891,2.2891,2.2706,2.2485,2.2485,2.2485,2.2397,2.223,2.1963,2.1642,2.1177,2.0736,2.0337,2.0065,1.9654,1.9234,1.9012,1.8773,1.8542,0.0,0.0,0.0,0.0,0.0,0.0,0.0,0.0,0.0,0.0,0.0,0.0,0.0,1.9347,1.9914,2.0561,2.1588,0.0,0.0,0.0,2.4745,2.4896,2.5451,2.5441,2.4846,2.5057,2.4952,2.4497,2.4497,2.4497,2.4497,2.4013,2.3797,2.3754,2.2794,2.2132,2.1642,2.1006,2.03,1.9541,1.902,1.8781,1.8781,1.8781,1.8781,1.8781,2.4637,2.4932,2.5186,2.5235,2.543,2.5538,2.543,2.5039,2.4784,2.4784,2.4784,2.4735,2.4677,2.4686,2.4686,2.4637,2.4637,0.0,0.0,0.0,0.0,2.3877,2.3827,2.3827,2.3827,2.3827,2.3827,0.0,0.0,0.0,0.0,0.0,0.0,0.0,0.0,0.0,2.3022,2.3305,0.0,2.4077,2.411,2.4239,2.4368,2.4368,2.4368,2.4368,2.4368,2.411,2.3754,2.3754,2.358,2.3373,2.3373,2.3188,2.296,2.296,2.2882,2.2706,2.2715,2.2362,2.1963,2.1642,2.123,2.0826,2.0609,2.0155,1.9745,1.97,1.9571,1.9342,1.905,0.0,0.0,0.0,0.0,0.0,0.0,0.0,0.0,0.0,0.0,1.852,0.0,0.0,0.0,0.0,0.0,2.1268,0.0,0.0,2.3664,0.0,2.4829,0.0,0.0,0.0,2.4952,2.4497,2.4497,2.4497,2.4497,2.4013,2.3797,2.3754,2.2794,2.2132,2.1651,2.1141,2.0428,1.9541,1.902,1.8781,1.8781,1.8781,1.8781,1.8781,2.546,2.5713,2.5917,2.5917,2.6014,2.612,2.612,2.5917,2.5625,2.5333,2.5333,2.5235,2.5137,2.5088,2.503,2.4932,2.4883,2.4833,2.4735,2.4686,2.4637,2.4529,2.4529,2.4529,2.4529,2.4333,2.4221,2.4221,0.0,0.0,0.0,0.0,0.0,0.0,0.0,2.333,0.0,0.0,0.0,2.4206,2.4325,2.4411,2.4497,2.4497,2.4497,2.4497,2.4497,2.4368,2.4143,2.4024,2.3851,2.3677,2.3677,2.358,2.345,2.3319,2.3232,2.3154,2.2969,2.2706,2.2451,2.2309,2.1909,2.1508,2.1284,2.0925,2.0618,2.0382,2.0246,2.0073,1.9654,1.9058,0.0,0.0,0.0,0.0,0.0,0.0,1.8187,0.0,0.0,0.0,0.0,0.0,0.0,0.0,0.0,2.1066,2.1866,0.0,2.3485,0.0,0.0,0.0,2.4129,0.0,2.4714,2.4497,2.4497,2.4497,2.4497,2.4013,2.3797,2.3754,2.2794,2.2132,2.1651,2.0654,1.9936,1.9342,1.8974,1.8781,1.8781,1.8781,1.8781,1.8781,2.6149,2.6352,2.6496,2.6496,2.6496,2.6496,2.6496,2.6496,2.6352,2.5927,2.5878,2.5781,2.5577,2.5577,2.5479,2.5274,2.5226,2.5226,2.5226,2.5177,2.5138,2.5043,2.4994,2.4907,2.4812,2.4498,2.4326,0.0,0.0,0.0,0.0,0.0,0.0,0.0,0.0,0.0,0.0,0.0,2.4196,2.4292,2.4454,2.4497,2.4497,2.4497,2.4497,2.4497,2.4497,2.4497,2.4454,2.4335,2.411,2.3894,2.3894,2.3841,2.3754,2.3634,2.3547,2.345,2.3232,2.3013,2.2838,2.2794,2.2539,2.2185,2.1909,2.1696,2.1437,2.106,2.0925,2.0699,2.0155,1.9563,0.0,0.0,0.0,0.0,0.0,0.0,0.0,0.0,0.0,0.0,1.8874,0.0,0.0,0.0,0.0,2.0914,2.143,2.2686,2.3219,0.0,0.0,2.4159,2.3797,0.0,2.4497,2.4497,2.4497,2.4497,2.4497,2.4013,2.3797,2.3754,2.2794,2.2087,2.1463,2.0255,1.9571,1.9242,1.9012,1.8874,1.8781,1.8781,1.8781,1.8781,2.6448,2.6496,2.6496,2.6496,2.6496,2.6496,2.6496,2.6496,2.6496,2.6448,2.6458,2.64,2.64,2.64,2.64,2.6352,2.6352,2.6352,2.6352,2.61,2.5826,2.5441,2.5222,2.4894,2.4458,2.4409,2.439,0.0,0.0,2.4219,0.0,0.0,0.0,0.0,0.0,0.0,0.0,2.4206,2.4292,2.4454,2.4497,2.4497,2.4497,2.4497,2.4497,2.4497,2.4497,2.4497,2.4497,2.4497,2.4325,2.4163,2.4163,2.398,2.3797,2.3797,2.3624,2.3503,2.346,2.3276,2.3013,2.2847,2.2759,2.2662,2.2397,2.2176,2.2008,2.1963,2.1616,2.1212,2.0699,2.0382,2.0065,0.0,0.0,0.0,0.0,0.0,1.8735,1.8781,0.0,0.0,1.9142,1.9142,0.0,0.0,1.9962,2.0298,2.1005,2.1823,2.2323,2.2454,2.3368,2.3837,2.3797,2.4282,2.4497,2.4497,2.4497,2.4497,2.4497,2.4013,2.3797,2.3754,2.2794,2.19,2.0997,2.0464,1.9982,1.9541,1.9288,1.9004,1.8781,1.8781,1.8781,1.8781,2.6928,2.7071,0.0,0.0,0.0,0.0,0.0,2.7384,2.7384,2.7384,2.687,2.6496,2.6496,2.6496,2.6496,2.6496,2.6496,2.6386,2.6114,2.5999,2.5704,2.5265,2.5142,2.5017,2.4838,2.458,2.4451,0.0,0.0,0.0,0.0,0.0,0.0,0.0,0.0,2.4153,2.4368,2.4368,2.4411,2.4497,2.4497,2.4497,2.4497,2.4497,2.4497,2.4497,2.4497,2.4497,2.4497,2.4497,2.4464,2.4368,2.4368,2.4325,2.4196,2.4067,2.398,2.3894,2.3711,2.3493,2.3319,2.3242,2.3101,2.2925,2.2706,2.2583,2.2485,2.2309,2.2052,2.1696,2.1374,2.0961,2.0645,2.0428,0.0,0.0,0.0,0.0,0.0,1.9304,0.0,1.9304,0.0,1.9433,0.0,0.0,0.0,2.0555,2.0997,2.1811,2.2309,2.2397,0.0,2.3797,2.3797,2.4282,2.4497,2.4497,2.4497,2.4497,2.4497,2.4196,2.3797,2.3363,2.2574,2.1874,2.1195,2.0564,2.0065,1.9754,1.9533,1.9387,1.9304,1.9304,1.9304,1.9304,2.7489,0.0,2.7773,0.0,2.7998,2.7998,2.7998,2.7998,2.7998,2.7998,2.7384,2.6918,2.6918,2.688,2.6781,2.6649,2.6591,2.6351,2.5847,2.5771,2.5532,2.5078,2.4967,0.0,2.4731,2.442,2.4269,2.4269,2.3958,0.0,0.0,0.0,0.0,0.0,2.4292,2.4378,2.4497,2.4497,2.4497,2.4497,2.4497,2.454,2.4615,2.4615,2.4658,2.47,2.47,2.47,2.47,2.47,2.47,2.4658,2.454,2.4497,2.4454,2.4325,2.4249,2.4163,2.398,2.3764,2.359,2.359,2.3406,2.3188,2.3023,2.2925,2.2838,2.2574,2.2407,2.223,2.1963,2.1588,2.123,2.1015,0.0,0.0,0.0,1.9936,0.0,1.9808,1.9808,1.9853,1.9899,1.9945,0.0,0.0,0.0,0.0,2.1186,0.0,0.0,0.0,0.0,0.0,2.3797,2.4282,2.4497,2.4497,2.4497,2.4497,2.4497,2.4196,2.3711,2.3057,2.253,2.2008,2.1437,2.0934,2.0428,2.0019,1.9853,1.9716,1.9587,1.9587,1.9587,1.9587,2.7998,2.7987,2.7998,2.7998,2.7998,2.7998,2.7998,2.7998,2.7998,2.7998,2.7998,2.7987,2.7987,2.7773,2.7416,2.7012,2.6774,2.6382,2.5916,2.5634,2.5304,0.0,0.0,2.4313,2.3817,2.3807,2.3807,2.3807,0.0,0.0,2.4206,0.0,2.4497,2.4497,2.4497,2.4497,2.4497,2.4497,2.4497,2.4497,2.4497,2.4658,2.4903,2.4903,2.5031,2.52,2.52,2.52,2.52,2.52,2.52,2.5115,2.4668,2.4497,2.4497,2.4497,2.4378,2.4206,2.4206,2.398,2.3797,2.3797,2.3624,2.3503,2.3503,2.3276,2.3057,2.2838,2.2794,2.2715,2.2441,2.223,2.2008,2.1731,0.0,0.0,0.0,2.0473,0.0,2.0292,2.0292,2.0382,2.0654,2.0699,0.0,0.0,0.0,0.0,0.0,0.0,0.0,2.2803,2.345,0.0,2.3797,2.4282,2.4497,2.4497,2.4497,2.4497,2.4497,2.4013,2.3537,2.3101,2.2882,2.2353,2.1696,2.1696,2.115,2.0292,2.0292,2.0027,1.9587,1.9587,1.9587,1.9587,2.8699,2.8746,2.8792,2.8967,2.9024,2.9024,2.9024,2.9024,2.9024,2.9024,2.8681,2.8483,2.8483,2.7807,2.7222,0.0,2.6658,2.6412,0.0,2.5828,2.5574,2.5112,2.5038,2.4836,2.4572,2.4562,2.4444,2.4282,0.0,0.0,0.0,2.4454,2.4583,2.4786,2.4786,2.4861,2.4999,2.4999,2.4999,2.4999,2.4999,2.5031,2.5115,2.5115,2.5158,2.52,2.52,2.52,2.52,2.52,2.52,2.5158,2.5031,2.4861,2.4786,2.4786,2.4615,2.4411,2.4411,2.4239,2.4067,2.4067,2.3894,2.3711,2.3711,2.3537,2.3373,2.3285,2.3144,2.2925,2.2706,2.2627,2.2495,2.222,2.1954,0.0,2.1651,0.0,2.1239,2.1239,2.1239,2.1284,2.1374,2.1374,0.0,0.0,0.0,0.0,0.0,0.0,0.0,0.0,2.3537,0.0,2.4067,2.4368,2.4497,2.4497,2.4497,2.4497,2.4497,2.4196,2.3894,2.358,2.3188,2.2706,2.2132,2.182,2.1428,2.1024,2.0826,2.069,2.0555,2.0555,2.0555,2.0555,2.9485,2.9485,2.9577,2.9715,2.976,2.976,2.976,2.976,2.9692,2.9512,2.9161,2.8834,2.845,2.7889,0.0,2.6768,2.6658,2.6421,2.5937,2.5819,2.5637,2.5338,2.5242,2.5158,2.5031,2.5031,0.0,2.4743,2.4743,2.4743,2.4743,2.4743,2.4871,2.5031,2.5031,2.5115,2.5316,2.5316,2.5369,2.5464,2.5464,2.5496,2.5569,2.5569,2.5622,2.5748,2.5748,2.5748,2.5748,2.5748,2.5748,2.5748,2.5748,2.5569,2.5316,2.5073,2.4903,2.4743,2.4658,2.4583,2.4454,2.4335,2.411,2.3927,2.3841,2.3711,2.3624,2.3624,2.3493,2.3319,2.311,2.3067,2.2925,2.2618,2.2451,2.2318,2.223,0.0,2.1954,0.0,0.0,0.0,0.0,2.1954,2.2043,0.0,0.0,0.0,0.0,0.0,0.0,2.3232,2.3711,2.4024,2.4206,2.4411,2.4497,2.4497,2.4497,2.4497,2.4497,2.4292,2.412,2.3927,2.345,2.3013,2.2618,2.2264,2.1919,2.166,2.1463,2.1365,2.1275,2.1275,2.1275,2.1275,3.0306,3.0306,3.0306,0.0,3.0306,3.0306,3.0306,3.0306,3.0122,2.9571,2.9479,2.9088,2.81,2.7962,2.7676,2.7053,0.0,0.0,2.6012,2.5759,2.558,2.558,2.5411,2.5285,2.5285,2.5285,2.5242,2.5242,2.5242,2.5242,2.5242,2.5242,2.5242,2.5285,2.5285,2.5369,2.558,2.558,2.5717,2.5937,2.5948,2.6093,2.6238,2.6268,2.6404,2.6644,2.6644,2.6644,2.6644,2.6644,2.6644,2.6644,2.6644,2.6456,2.6144,2.5485,2.5242,2.52,2.4988,2.4946,2.4861,2.4583,2.4368,2.4163,2.3927,2.3841,2.3841,2.3841,2.3797,2.3754,2.3547,2.3503,2.3373,2.2935,2.2891,2.2803,2.253,2.2485,2.2485,0.0,0.0,0.0,2.2485,2.2485,2.2476,0.0,0.0,0.0,0.0,0.0,2.3276,2.3547,2.398,2.4206,2.4206,2.4411,2.4497,2.4497,2.4497,2.4497,2.4497,2.4292,2.4206,2.4163,2.3721,2.3406,2.3135,2.2925,2.2574,2.2185,2.2141,2.1963,2.1731,2.1731,2.1731,2.1731,0.0,0.0,3.1339,3.1339,3.1339,3.1339,3.1339,3.1339,3.1148,3.0569,3.0165,2.9677,2.897,2.8554,2.8236,2.79,2.7369,2.6964,2.6697,2.6603,2.6509,2.6343,2.6302,2.6166,2.5988,2.5946,2.5874,2.5717,2.5717,2.5717,2.5717,2.5717,2.5843,2.5946,2.5946,2.6113,2.6343,2.6343,2.6396,2.6437,2.6603,2.6685,2.6757,2.6899,2.6981,2.7074,2.7074,2.7074,2.7074,2.7074,2.7074,2.7074,2.7074,2.7021,2.6805,2.6155,2.5695,2.5411,2.5369,2.5242,2.5073,2.4861,2.4615,2.4411,2.4368,2.4239,2.412,2.412,2.3937,2.3797,2.3754,2.3711,2.3667,2.358,2.358,2.3493,2.3276,2.3232,2.3144,0.0,2.2916,2.3003,2.3232,2.3232,2.3319,0.0,0.0,0.0,2.3614,2.3851,2.398,2.4034,2.4153,2.4282,2.4411,2.4454,2.4497,2.4497,2.4497,2.4497,2.4497,2.4454,2.4325,2.4206,2.4077,2.3894,2.3624,2.3188,2.296,2.2838,2.2485,2.2309,2.2211,2.2211,2.2211,2.2211,3.1981,3.2025,3.2025,3.2025,3.2025,3.2025,3.2025,3.1807,3.1411,3.0877,3.0342,2.9808,2.9209,2.8946,2.8736,2.8618,2.8047,2.7563,2.7394,2.726,2.7126,2.7003,2.691,2.6828,2.664,2.664,2.661,2.6498,2.6498,2.6498,2.6498,2.6498,2.6528,2.664,2.664,2.6775,2.7003,2.7003,2.7085,2.7219,2.7301,2.7353,2.7394,2.7493,2.7534,2.7534,2.7534,2.7563,2.7684,2.7684,2.7725,2.7765,2.7684,2.7684,2.7563,2.7115,2.658,2.6124,2.5988,2.5748,2.5422,2.4988,2.4786,2.4658,2.454,2.4421,2.4335,2.4335,2.4239,2.411,2.398,2.398,2.3937,2.3841,2.3797,2.3754,2.3667,2.3634,2.358,2.345,2.3406,2.3493,2.3624,2.3634,2.3667,2.3797,2.3927,0.0,2.398,2.4196,2.4292,2.4206,2.4292,2.4368,2.4497,2.4497,2.4497,2.4497,2.4497,2.4497,2.4497,2.4497,2.4454,2.4325,2.4249,2.411,2.3927,2.358,2.3406,2.3396,2.3144,2.3047,2.3047,2.3047,2.3047,2.3047,3.2487,3.2531,3.2531,3.2531,3.2531,3.245,3.2364,3.1945,3.1415,3.0865,3.0318,2.9813,2.9271,2.9209,2.917,2.917,2.8685,2.8299,2.8042,2.7817,2.7672,2.7644,2.747,2.7389,2.7389,2.7389,2.7348,2.7348,2.7307,2.7319,2.7319,2.7348,2.7348,2.7348,2.7389,2.747,2.7644,2.7644,2.7777,2.8002,2.8002,2.8042,2.8042,2.8082,2.8082,2.8082,2.8082,2.8191,2.8339,2.8339,2.8459,2.8538,2.8379,2.8339,2.8299,2.8122,2.7638,2.7044,2.6734,2.6332,2.5853,2.52,2.5031,2.4903,2.4625,2.4583,2.454,2.4497,2.4497,2.4454,2.4292,2.4249,2.4153,2.3927,2.3927,2.3884,2.3841,0.0,2.3841,2.3797,2.3797,2.3841,2.3841,2.3841,2.3884,2.3884,2.411,2.4249,2.4249,2.4411,2.4411,2.4249,2.4411,2.4497,2.4497,2.4497,2.4497,2.4497,2.4497,2.4497,2.4497,2.4497,2.4497,2.4497,2.4335,2.4249,2.4249,2.397,2.3841,2.3841,2.3841,2.3797,2.3797,2.3797,2.3797,2.3797,3.2952,3.2995,3.2995,3.2995,3.2995,3.2832,3.2289,3.2139,3.1739,3.0751,3.0551,3.0276,2.9764,2.9675,2.9611,2.938,2.9263,2.9067,2.8685,2.8633,2.8526,2.8339,2.8299,2.8299,2.8299,2.8139,2.8047,2.8047,2.7869,2.78,2.78,2.7978,2.8047,2.8047,2.8219,2.8311,2.8339,2.8339,2.8351,2.8431,2.8566,2.8645,2.8685,2.8855,2.8895,2.8895,2.8895,2.8934,2.8973,2.8973,2.8973,2.9013,2.8973,2.8973,2.8973,2.8934,2.859,2.8099,2.7522,2.6899,2.629,2.5853,2.5591,2.5327,2.4903,2.4828,2.4775,2.454,2.4497,2.4497,2.4454,2.4454,2.4454,2.4411,2.4411,2.4325,2.4163,0.0,2.4067,2.3841,2.3797,2.3894,2.411,2.4153,2.4196,2.4368,2.4411,2.4454,2.4454,2.4497,2.4497,2.4454,2.4497,2.4497,2.4497,2.4497,2.4497,2.4497,2.4497,2.4497,2.4497,2.4497,2.4497,2.4497,2.4454,2.4454,2.4454,2.4249,2.4153,2.411,2.3894,2.3797,2.3797,2.3797,2.3797,2.3797,3.3081,3.3124,3.298,3.2667,3.2616,3.2416,3.1851,3.1537,3.1173,3.0643,3.0357,3.0068,2.9817,2.9792,2.974,2.9611,2.9611,2.9534,2.9339,2.9091,2.8922,2.8828,2.8816,2.8816,2.8816,2.8736,2.8685,2.8685,2.859,2.855,2.855,2.8657,2.8685,2.8697,2.8776,2.8816,2.8816,2.8816,2.8816,2.8816,2.8922,2.8961,2.8961,2.9052,2.9091,2.9091,2.9091,2.917,2.9275,2.9275,2.9365,2.9456,2.9326,2.9275,2.9236,2.9131,2.8828,2.8339,2.7684,2.7185,2.6775,2.6332,2.5968,2.5633,2.5285,2.5158,2.4988,2.4786,2.47,2.4658,2.454,2.4497,2.4497,2.4497,2.4497,0.0,0.0,2.4368,2.4335,2.4196,2.4186,2.4239,2.4325,2.4368,2.4411,2.4497,2.4497,2.4497,2.4497,2.4497,2.4497,2.4497,2.4497,2.4497,2.4497,2.4497,2.4497,2.4497,2.4497,2.4497,2.4497,2.4497,2.4497,2.4497,2.4497,2.4497,2.4497,2.4411,2.4368,2.4325,2.4239,2.4186,2.4186,2.4186,2.4186,2.4186,3.3124,3.3011,3.2742,3.229,3.2102,3.1838,3.1298,3.0871,3.057,3.0444,3.0055,2.9792,2.9792,2.9792,2.9792,2.9792,2.9792,2.9792,2.9792,2.9456,2.9248,2.9248,2.9248,2.9248,2.9248,2.9209,2.917,2.917,2.9131,2.9091,2.9091,2.917,2.917,2.917,2.9209,2.9248,2.9248,2.9248,2.9248,2.9248,2.9248,2.9248,2.9248,2.9248,2.9248,2.9248,2.9248,2.9365,2.9509,2.9509,2.9611,2.9753,2.956,2.9509,2.947,2.93,2.9013,2.8578,2.7926,2.7644,2.7389,2.6857,2.6456,2.6135,2.579,2.5538,2.5285,2.5073,2.4988,2.4903,2.4625,2.4583,2.4583,2.4497,0.0,0.0,0.0,2.4497,2.4497,2.4497,2.4497,2.4497,2.4497,2.4497,2.4497,2.4497,2.4497,2.4497,2.4497,2.4497,2.4497,2.4497,2.4497,2.4497,2.4497,2.4497,2.4497,2.4497,2.4497,2.4497,2.4497,2.4497,2.4497,2.4497,2.4497,2.4497,2.4497,2.4497,2.4497,2.4497,2.4497,2.4497,2.4497,2.4497,2.4497,2.4497,3.3124,3.2641,3.2265,3.2227,3.1788,3.1273,3.0758,3.0645,3.0432,2.9917,2.9817,2.9792,2.9792,2.9792,2.9792,2.9792,2.9792,2.9792,2.9792,2.9753,2.9753,2.9753,2.9753,2.9753,2.9753,2.9521,2.938,2.938,2.9197,2.9091,2.9091,2.9275,2.938,2.938,2.965,2.9753,2.9753,2.9753,2.9753,2.9753,2.9753,2.9753,2.9753,2.9753,2.9753,2.9753,2.9753,2.9753,2.9792,2.9792,2.9792,2.9792,2.9792,2.9792,2.9753,2.9753,2.956,2.9184,2.8578,2.8431,2.8259,2.7603,2.7267,2.6981,2.6528,2.6135,2.577,2.5496,2.5327,2.5115,2.4903,2.4861,2.4786,2.454,0.0,0.0,2.4497,2.4497,2.4497,2.4497,2.4497,2.4497,2.4497,2.4497,2.4497,2.4497,2.4497,2.4497,2.4497,2.4497,2.4497,2.4497,2.4497,2.4497,2.4497,2.4497,2.4497,2.4497,2.4497,2.4497,2.4497,2.4497,2.4497,2.4497,2.4497,2.4497,2.4497,2.4497,2.4497,2.4497,2.4497,2.4497,2.4497,2.4497,2.4497,2.4497,3.2541,3.2089,3.1599,3.1286,3.1047,3.0721,3.0193,3.0105,3.003,2.9817,2.9792,2.9792,2.9792,2.9792,2.9792,2.9792,2.9792,2.9792,2.9792,2.9792,2.9792,2.9792,2.9792,2.9792,2.9792,2.9702,2.965,2.965,2.9573,2.9546,2.9546,2.9611,2.965,2.965,2.974,2.9792,2.9792,2.9792,2.9792,2.9792,2.9792,2.9792,2.9792,2.9792,2.9792,2.9792,2.9792,2.9792,2.9792,2.9792,2.9792,2.9792,2.9792,2.9792,2.9792,2.9792,2.974,2.9573,2.917,2.8776,2.8431,2.8179,2.7765,2.7307,2.7021,2.6704,2.6396,2.6041,2.579,2.5549,2.5327,2.5158,2.4988,2.4786,0.0,2.47,2.454,2.4497,2.4497,2.4497,2.4497,2.4497,2.4497,2.4497,2.4497,2.4497,2.4497,2.4497,2.4497,2.4497,2.4497,2.4497,2.4497,2.4497,2.4497,2.4497,2.4497,2.4497,2.4497,2.4497,2.4497,2.4497,2.4497,2.4497,2.4497,2.4497,2.4497,2.4497,2.4497,2.4497,2.4497,2.4497,2.4497,2.4497,2.4497,2.4497,3.1951,3.1524,3.1035,3.067,3.047,3.0231,2.9854,2.9792,2.9792,2.9792,2.9792,2.9792,2.9792,2.9792,2.9792,2.9792,2.9792,2.9792,2.9792,2.9792,2.9792,2.9792,2.9792,2.9792,2.9792,2.9792,2.9792,2.9792,2.9792,2.9792,2.9792,2.9792,2.9792,2.9792,2.9792,2.9792,2.9792,2.9792,2.9792,2.9792,2.9792,2.9792,2.9792,2.9792,2.9792,2.9792,2.9792,2.9792,2.9792,2.9792,2.9792,2.9792,2.9792,2.9792,2.9792,2.9792,2.9792,2.9753,2.956,2.917,2.8776,2.8697,2.8259,2.7765,2.7644,2.7319,2.6962,2.6599,2.6332,2.6093,2.5779,2.558,2.5338,2.5115,2.4988,2.4828,2.4658,2.454,2.4497,2.4497,2.4497,2.4497,2.4497,2.4497,2.4497,2.4497,2.4497,2.4497,2.4497,2.4497,2.4497,2.4497,2.4497,2.4497,2.4497,2.4497,2.4497,2.4497,2.4497,2.4497,2.4497,2.4497,2.4497,2.4497,2.4497,2.4497,2.4497,2.4497,2.4497,2.4497,2.4497,2.4497,2.4497,2.4497,2.4497,2.4497,3.1386,3.0972,3.0608,3.0608,3.0156,2.9792,2.9792,2.9792,2.9792,2.9792,2.9792,2.9792,2.9792,2.9792,2.9792,2.9792,2.9792,2.9792,2.9792,2.9792,2.9792,2.9792,2.9792,2.9792,2.9792,2.9792,2.9792,2.9792,2.9792,2.9792,2.9792,2.9792,2.9792,2.9792,2.9792,2.9792,2.9792,2.9792,2.9792,2.9792,2.9792,2.9792,2.9792,2.9792,2.9792,2.9792,2.9792,2.9792,2.9792,2.9792,2.9792,2.9792,2.9792,2.9792,2.9792,2.9792,2.9792,2.9792,2.9792,2.9611,2.9341,2.917,2.8776,2.851,2.851,2.7978,2.7429,2.7267,2.7044,2.6757,2.6279,2.6052,2.5812,2.5538,2.5158,2.4903,2.4903,2.4658,2.4497,2.4497,2.4497,2.4497,2.4497,2.4497,2.4497,2.4497,2.4497,2.4497,2.4497,2.4497,2.4497,2.4507,2.4507,2.4507,2.4507,2.4507,2.4497,2.4497,2.4497,2.4497,2.4507,2.4497,2.4497,2.4507,2.4497,2.4497,2.4497,2.4497,2.4497,2.4497,2.4497,2.4497,2.4497,2.4497,2.4497,2.4497,3.0846,3.0407,3.0043,3.0043,2.9905,2.9792,2.9792,2.9792,2.9792,2.9792,2.9792,2.9792,2.9792,2.9792,2.9792,2.9792,2.9792,2.9792,2.9792,2.9792,2.9792,2.9792,2.9792,2.9792,2.9792,2.9792,2.9792,2.9792,2.9792,2.9792,2.9792,2.9792,2.9792,2.9792,2.9792,2.9792,2.9792,2.9792,2.9792,2.9792,2.9792,2.9792,2.9792,2.9792,2.9792,2.9792,2.9792,2.9792,2.9792,2.9792,2.9792,2.9792,2.9792,2.9792,2.9792,2.9792,2.9792,2.9792,2.9792,2.974,2.9611,2.9353,2.9118,2.8895,2.8724,2.8459,2.8139,2.7926,2.7603,2.7237,2.694,2.6745,2.6437,2.5853,2.5686,2.5506,2.5158,2.4903,2.4786,2.4786,2.4615,2.4497,2.4497,2.4497,2.4497,2.4497,2.4497,2.4497,2.4497,2.4497,2.4652,2.4972,2.4983,2.5127,2.5482,2.4807,2.4497,2.4497,2.4497,2.4662,2.4972,2.4652,2.4673,2.4962,2.4631,2.4497,2.4497,2.4497,2.4497,2.4497,2.4497,2.4497,2.4497,2.4497,2.4497,2.4497,3.0281,3.0018,2.9792,2.9792,2.9792,2.9792,2.9792,2.9792,2.9792,2.9792,2.9792,2.9792,2.9792,2.9792,2.9792,2.9792,2.9792,2.9792,2.9792,2.9792,2.9792,2.9792,2.9792,2.9792,2.9792,2.9792,2.9792,2.9792,2.9792,2.9792,2.9792,2.9792,2.9792,2.9792,2.9792,2.9792,2.9792,2.9792,2.9792,2.9792,2.9792,2.9792,2.9792,2.9792,2.9792,2.9792,2.9792,2.9792,2.9792,2.9792,2.9792,2.9792,2.9792,2.9792,2.9792,2.9792,2.9792,2.9792,2.9792,2.9792,2.9753,2.9599,2.9404,2.9197,2.9067,2.8882,2.8657,2.8379,2.8099,2.7805,2.7522,2.7249,2.688,2.6467,2.6177,2.5884,2.5549,2.5285,2.5115,2.5031,2.4828,2.4658,2.4658,2.4583,2.458,2.4755,2.4776,2.4848,2.5057,2.5068,2.5192,2.5482,2.5492,2.5616,2.5875,2.5347,2.5068,2.5068,2.5068,2.5213,2.5482,2.5192,2.5223,2.5461,2.4962,2.4776,2.4755,2.458,2.4497,2.4497,2.4497,2.4497,2.4497,2.4497,2.4497,2.4497,2.9792,2.9792,2.9792,2.9792,2.9792,2.9792,2.9792,2.9792,2.9792,2.9792,2.9792,2.9792,2.9792,2.9792,2.9792,2.9792,2.9792,2.9792,2.9792,2.9792,2.9792,2.9792,2.9792,2.9792,2.983,2.9792,2.9792,2.983,2.983,2.983,2.9869,2.983,2.983,2.983,2.9792,2.9792,2.9792,2.9792,2.9792,2.9792,2.9792,2.9792,2.9792,2.9792,2.9792,2.9792,2.9792,2.9792,2.9792,2.9792,2.9792,2.9792,2.9792,2.9792,2.9792,2.9792,2.9792,2.9792,2.9792,2.9792,2.9792,2.9792,2.9611,2.9419,2.9419,2.9275,2.9013,2.8669,2.859,2.8431,2.8042,2.7615,2.7307,2.7226,2.6682,2.6196,2.6021,2.5717,2.5454,2.5285,2.5073,2.4903,2.4903,2.4699,2.4755,2.521,2.5241,2.5461,2.5854,2.5875,2.5941,2.5937,2.5937,2.5958,2.5999,2.6055,2.5958,2.5875,2.5875,2.5941,2.5937,2.5941,2.5906,2.5962,2.5482,2.523,2.5158,2.4735,2.4538,2.4497,2.4497,2.4497,2.4497,2.4497,2.4497,2.4497,2.9792,2.9792,2.9792,2.9792,2.9792,2.9792,2.9792,2.9792,2.9792,2.9792,2.9792,2.9792,2.9792,2.9792,2.9792,2.9792,2.9792,2.9792,2.9792,2.9792,2.9792,2.9792,2.9792,2.9869,3.0049,2.9869,2.9869,3.0049,3.0049,3.0113,3.0254,3.0113,3.0049,3.0049,2.9869,2.9792,2.9792,2.9792,2.9792,2.9792,2.9792,2.9792,2.9792,2.9792,2.9792,2.9792,2.9792,2.9792,2.9792,2.9792,2.9792,2.9792,2.9792,2.9792,2.9792,2.9792,2.9792,2.9792,2.9792,2.9792,2.9792,2.9792,2.9753,2.9702,2.9702,2.9521,2.9314,2.9223,2.9079,2.8855,2.8431,2.8311,2.8059,2.751,2.7185,2.6899,2.6727,2.6188,2.5812,2.577,2.538,2.5073,2.4903,2.4991,2.522,2.5699,2.574,2.5782,2.5875,2.5875,2.6086,2.6449,2.647,2.6635,2.7009,2.7009,2.6646,2.5875,2.5875,2.6107,2.6449,2.6086,2.6082,2.6438,2.5937,2.5544,2.5179,2.5086,2.4828,2.4497,2.4497,2.4497,2.4497,2.4497,2.4497,2.4497,2.9792,2.9792,2.9792,2.9792,2.9792,2.9792,2.9792,2.9792,2.9792,2.9792,2.9792,2.9792,2.9792,2.9792,2.9792,2.9792,2.9792,2.9792,2.9792,2.9908,2.9934,2.9934,3.0049,3.0152,3.0228,3.0152,3.0152,3.0228,3.0228,3.0292,3.0406,3.0292,3.019,3.0113,2.9972,2.9908,2.9792,2.9792,2.9792,2.9792,2.9792,2.9792,2.9792,2.9792,2.9792,2.9792,2.9792,2.9792,2.9792,2.9792,2.9792,2.9792,2.9792,2.9792,2.9792,2.9792,2.9792,2.9792,2.9792,2.9792,2.9792,2.9792,2.9792,2.9792,2.9792,2.9689,2.956,2.9419,2.9302,2.9157,2.8855,2.8697,2.8498,2.8059,2.7805,2.7563,2.7237,2.6798,2.6467,2.6396,2.6081,2.584,2.5783,2.5862,2.6054,2.6414,2.6399,2.6447,2.6573,2.6584,2.6698,2.6936,2.6946,2.7061,2.7309,2.7309,2.7061,2.6584,2.6584,2.6708,2.6936,2.6698,2.6718,2.6915,2.6449,2.6082,2.5834,2.5365,2.5044,2.4807,2.459,2.4497,2.4497,2.4497,2.4497,2.4497,2.9792,2.9792,2.9792,2.9792,2.9792,2.9792,2.9792,2.9792,2.9792,2.9792,2.9792,2.9792,2.9792,2.9792,2.9792,2.9792,2.983,2.9869,2.9869,3.0049,3.0152,3.0152,3.0292,3.0406,3.0444,3.0444,3.0444,3.0444,3.0444,3.0482,3.0482,3.0482,3.0368,3.0203,3.0113,3.0011,2.9869,2.9792,2.9792,2.9792,2.9792,2.9792,2.9792,2.9792,2.9792,2.9792,2.9792,2.9792,2.9792,2.9792,2.9792,2.9792,2.9792,2.9792,2.9792,2.9792,2.9792,2.9792,2.9792,2.9792,2.9792,2.9792,2.9792,2.9792,2.9792,2.9792,2.974,2.9509,2.947,2.9392,2.9197,2.9,2.8843,2.863,2.8379,2.8139,2.7725,2.7441,2.7219,2.7087,2.6888,2.6824,2.689,2.6899,2.6955,2.7182,2.7121,2.7196,2.7336,2.7309,2.7309,2.7309,2.7309,2.7309,2.7309,2.7309,2.7309,2.7309,2.7309,2.7309,2.7309,2.7309,2.7309,2.7289,2.6895,2.6687,2.6553,2.5678,2.5251,2.5137,2.4683,2.4497,2.4497,2.4497,2.4497,2.4497,2.9792,2.9792,2.9792,2.9792,2.9792,2.9792,2.9792,2.9792,2.9792,2.9792,2.9792,2.9792,2.9792,2.9792,2.9792,2.9792,2.9972,3.0049,3.0049,3.0254,3.0368,3.0368,3.0406,3.0482,3.066,3.066,3.066,3.066,3.066,3.0773,3.0911,3.0736,3.066,3.0584,3.0279,3.0075,3.0049,2.9869,2.9792,2.9792,2.9792,2.9792,2.9792,2.9792,2.9792,2.9792,2.9792,2.9792,2.9792,2.9792,2.9792,2.9792,2.9792,2.9792,2.9792,2.9792,2.9792,2.9792,2.9792,2.9792,2.9792,2.9792,2.9792,2.9792,2.9792,2.9792,2.9792,2.974,2.9753,2.9663,2.9431,2.9341,2.9263,2.9052,2.8697,2.8431,2.8391,2.7846,2.7574,2.7828,2.7658,2.7624,2.7815,2.7677,2.7643,2.787,2.7631,2.7521,2.7536,2.7404,2.7309,2.7309,2.7309,2.7309,2.7309,2.7309,2.7309,2.7309,2.7309,2.7309,2.7309,2.7309,2.7309,2.7299,2.7237,2.6988,2.6573,2.6009,2.5575,2.5137,2.4683,2.4497,2.4497,2.4497,2.4497,2.4497,2.9792,2.9792,2.9792,2.9792,2.9792,2.9792,2.9792,2.9792,2.9792,2.9792,2.9792,2.9792,2.9792,2.9792,2.9869,2.9972,3.0049,3.0152,3.0254,3.0457,3.0571,3.0571,3.0685,3.0798,3.0874,3.0874,3.0874,3.0874,3.0874,3.0911,3.0986,3.0911,3.0811,3.0698,3.0495,3.0305,3.0075,3.0011,2.9895,2.9792,2.9792,2.9792,2.9792,2.9792,2.9792,2.9792,2.9792,2.9792,2.9792,2.9792,2.9792,2.9792,2.9792,2.9792,2.9792,2.9792,2.9792,2.9792,2.9792,2.9792,2.9792,2.9792,2.9792,2.9792,2.9792,2.9792,2.9792,2.9792,2.9792,2.9753,2.965,2.9611,2.956,2.9314,2.9118,2.8961,2.8855,2.863,2.8628,2.897,2.8836,2.8812,2.9047,2.8715,2.8481,2.8456,2.8196,2.7961,2.7809,2.7715,2.7668,2.7668,2.7536,2.7452,2.7452,2.7357,2.7309,2.7309,2.7309,2.7309,2.7309,2.7309,2.7309,2.7309,2.7309,2.7195,2.6967,2.6501,2.5999,2.5544,2.5055,2.4724,2.4497,2.4497,2.4497,2.4497]}]]